GFSCGP_prec_cloud_003.txt.gz
Cloud_Cover
100 100 100 100 100 74 98 100 83 55 27 5 6 11 13 35 43 75 68 49 45 80 98 70 48 67 56 53 25 72 41 82 22 19 4 58 100 99 19 17 5 3 1 4
96 92 100 100 100 82 44 50 55 5 4 5 3 5 5 5 5 5 5 10 72 63 60 46 69 75 34 49 93 59 41 9 9 64 0 0 0 0 0 0 0 0 0 2
99 75 93 100 61 94 100 52 82 29 6 72 43 21 5 4 0 4 5 5 5 5 6 37 28 20 26 14 4 3 3 63 5 1 1 0 0 0 0 0 0 0 0 0
64 9 6 47 74 32 5 5 4 43 100 36 10 59 60 5 3 4 5 6 17 20 4 2 5 15 86 93 5 16 32 34 1 4 0 0 0 0 0 0 0 0 0 0
35 25 5 5 5 4 5 5 5 5 41 55 6 3 4 0 5 13 7 2 0 5 5 6 5 5 5 92 30 44 5 38 0 0 0 0 0 0 0 0 0 0 0 3
2 5 52 5 5 4 2 5 16 7 20 5 5 1 0 0 0 0 0 0 0 4 70 63 5 5 7 82 52 0 5 5 5 5 5 4 1 2 3 5 0 2 3 0
2 4 4 0 0 4 5 30 56 56 3 0 0 0 0 0 0 0 0 0 3 81 86 86 23 28 90 7 1 0 5 5 5 5 5 5 5 5 5 4 0 0 0 0
5 17 10 5 2 0 0 0 0 0 0 0 0 0 0 0 0 0 0 1 1 3 12 27 99 100 8 1 5 5 5 5 5 5 5 5 5 5 5 2 1 2 3 5
0 0 0 0 0 0 0 0 0 0 0 0 0 0 0 0 0 0 0 0 0 0 5 15 75 0 0 0 5 5 5 7 13 64 9 30 49 39 52 7 5 5 5 5
0 0 0 0 0 0 0 0 0 0 0 0 0 0 0 0 0 0 0 0 0 0 5 2 0 2 0 3 5 5 19 67 46 31 80 96 95 44 5 5 5 26 63 67
0 0 0 0 0 0 0 0 0 0 0 0 0 0 0 0 0 0 0 2 4 3 1 1 2 5 5 12 45 5 82 100 5 84 100 58 5 5 10 36 70 56 74 6
0 1 0 0 0 0 0 0 0 0 0 0 0 0 0 0 0 3 5 5 5 5 0 4 5 48 81 98 69 97 94 5 77 99 100 40 61 91 100 99 30 6 4 5
0 2 0 0 0 1 5 5 1 0 0 0 1 0 0 4 5 8 5 5 2 0 4 9 81 97 83 81 100 100 10 96 100 48 99 95 99 72 7 5 5 5 5 5
0 0 0 0 5 5 7 5 2 2 1 3 5 5 5 9 5 5 5 5 5 23 9 36 94 100 100 100 84 97 82 35 5 24 20 6 20 5 5 5 5 28 52 18
3 2 5 5 5 5 5 5 5 5 5 5 5 5 98 26 7 5 5 5 89 100 100 98 60 99 82 95 56 5 5 5 5 5 5 5 5 26 34 56 96 100 50 25
66 69 45 59 9 5 59 17 5 5 5 5 5 5 4 5 5 16 63 100 84 93 94 40 88 96 93 5 5 5 5 5 5 10 8 15 46 97 100 100 100 61 52 5
48 29 44 83 38 57 100 23 5 5 5 5 19 7 5 5 56 100 100 70 52 44 9 43 86 98 72 5 9 13 5 25 50 67 85 99 100 100 100 98 93 64 4 5
40 21 6 59 5 86 72 66 5 5 5 5 5 5 14 38 100 100 79 57 99 14 27 38 98 100 52 42 78 24 74 63 96 100 100 100 100 97 86 40 22 4 0 3
36 5 10 8 8 76 95 90 87 5 8 5 5 26 5 99 100 100 97 92 53 45 82 100 100 100 100 89 59 100 93 100 100 100 100 100 100 72 56 10 0 0 0 5
12 17 31 43 57 92 100 95 10 5 33 49 100 10 100 94 68 99 60 35 76 100 100 100 100 100 91 99 100 100 100 100 100 100 90 100 78 26 5 5 5 5 0 3
48 24 45 32 26 50 18 5 5 26 29 91 100 98 85 74 39 96 70 82 100 100 100 100 100 100 100 100 100 100 100 100 100 83 89 97 16 37 5 2 5 5 5 5
29 60 100 100 100 24 9 10 11 56 97 35 12 5 5 8 84 34 100 100 100 100 100 100 100 100 100 100 100 100 96 100 90 78 65 40 100 8 0 0 5 25 5 5
99 100 100 100 100 11 5 8 97 99 6 5 5 5 71 100 95 80 76 89 100 100 100 100 100 100 100 100 88 95 95 76 96 63 56 99 7 5 0 5 60 98 96 87
100 100 100 49 79 48 48 99 70 5 9 9 5 76 100 93 45 32 90 100 100 100 100 100 100 100 100 100 93 28 93 90 81 89 94 25 38 5 5 6 74 78 90 72
100 100 100 100 100 100 100 90 5 5 5 5 6 5 8 8 65 87 80 99 100 100 100 100 100 100 100 100 100 100 100 99 91 89 29 68 100 85 23 25 97 95 70 30
100 100 47 97 91 16 29 13 11 28 17 28 40 49 50 37 80 100 100 100 100 100 100 100 100 100 100 100 100 94 92 95 96 90 5 74 100 100 100 100 88 67 58 8

GFSCGP_prec_cloud_006.txt.gz
Cloud_Cover
100 100 100 100 100 100 100 100 100 100 98 98 96 71 75 63 16 25 49 49 86 96 99 98 75 65 59 54 56 62 55 17 5 11 16 12 8 3 5 5 0 0 0 0
100 100 100 100 100 100 100 100 100 100 100 26 40 40 60 38 30 32 57 77 42 6 9 40 31 39 35 5 5 7 46 21 5 5 5 5 4 0 0 0 0 0 0 0
100 100 100 100 100 100 100 94 88 85 90 44 12 5 5 0 3 5 62 43 20 6 5 18 30 15 26 76 67 60 5 5 6 73 0 0 0 0 0 2 2 0 0 0
100 99 100 100 100 100 100 100 88 92 84 50 7 84 0 0 0 0 2 5 5 9 5 51 50 36 22 5 5 5 45 17 6 0 0 0 5 3 5 5 5 5 4 0
100 100 100 57 100 100 99 63 51 40 10 15 5 1 4 0 5 26 23 5 3 0 5 5 6 100 5 5 7 77 56 10 0 5 5 5 5 5 5 5 5 5 5 5
78 82 14 98 72 5 5 25 15 28 18 4 0 4 71 62 9 0 0 0 0 0 0 5 5 20 90 5 5 7 0 0 5 5 5 5 5 5 22 5 5 5 5 1
5 5 13 4 19 24 49 47 5 24 5 8 16 2 0 0 0 0 0 0 0 1 5 5 40 53 5 5 5 1 5 5 5 5 12 43 6 22 8 5 5 2 0 0
2 18 52 34 10 5 5 17 55 6 4 0 0 0 0 0 0 0 0 0 0 0 5 3 5 5 5 5 7 4 5 5 5 5 15 100 39 5 8 58 40 0 5 5
2 3 5 6 43 83 60 8 0 0 0 0 0 0 0 0 0 0 0 0 0 0 4 3 5 5 5 3 4 4 5 9 33 44 93 100 10 7 76 7 5 5 9 27
2 5 4 0 1 0 0 0 0 0 0 0 0 0 0 0 0 0 0 0 5 5 5 5 5 5 2 5 5 7 70 100 100 100 78 5 7 76 5 8 42 23 30 5
0 0 0 0 0 0 0 0 0 0 0 0 0 2 0 0 0 1 5 6 5 5 5 5 3 4 5 5 63 100 100 100 82 79 87 41 18 38 10 5 5 5 5 5
0 0 0 2 0 0 0 0 0 3 4 0 0 5 2 0 0 5 5 5 5 5 5 5 5 27 96 99 100 100 100 86 86 100 74 30 16 5 5 5 5 5 23 32
0 1 2 0 0 0 0 2 5 5 5 5 28 0 3 5 5 5 5 4 3 2 5 5 58 100 100 100 100 100 87 99 100 5 17 23 5 5 5 5 13 53 65 46
2 0 0 3 5 5 31 79 89 81 6 5 4 2 5 6 5 9 19 5 5 5 12 92 100 86 100 99 84 83 79 99 8 5 9 62 57 19 5 24 33 76 85 16
4 5 5 5 40 48 86 99 23 5 5 5 5 4 5 89 56 100 78 6 5 63 100 100 50 5 24 99 98 81 100 32 29 20 97 82 36 24 93 94 99 100 32 5
19 68 75 77 68 70 99 50 5 5 5 5 13 6 5 5 84 18 8 5 82 100 99 76 100 96 11 93 100 100 91 82 99 74 100 93 42 93 78 100 100 71 7 13
11 5 5 41 62 96 100 13 5 5 5 5 5 5 6 16 5 58 18 69 100 91 46 86 100 49 68 100 100 100 79 76 81 100 100 46 76 99 100 100 71 19 50 27
5 5 5 5 34 100 98 8 3 2 3 5 5 5 13 5 5 9 5 98 90 46 96 100 100 100 100 100 100 100 100 100 100 100 98 89 100 100 100 98 22 17 5 16
5 5 5 24 5 59 99 61 18 5 5 5 5 5 5 5 5 13 96 51 37 80 100 100 100 99 43 90 82 100 100 100 100 100 100 100 100 100 99 51 55 5 61 40
5 5 5 6 67 55 73 28 5 17 36 100 99 92 26 76 100 50 5 9 92 100 100 100 92 35 84 95 100 100 100 100 100 100 100 100 100 99 70 42 7 5 59 29
25 37 39 8 35 9 5 36 90 97 100 100 85 97 100 99 17 5 24 57 91 100 97 41 42 87 98 100 100 100 100 100 100 100 100 86 94 82 66 14 20 5 76 78
12 6 26 6 64 36 5 75 100 80 42 45 28 21 34 6 5 22 58 90 88 45 11 20 74 95 100 100 100 100 100 100 100 94 97 100 87 65 60 96 7 49 48 95
6 5 5 6 5 5 5 65 20 5 18 92 100 23 5 25 17 59 98 86 96 55 79 82 84 99 100 100 100 100 100 100 100 100 100 100 100 100 99 72 26 94 87 27
61 12 22 9 82 7 5 16 86 97 100 80 5 7 63 97 99 95 100 67 63 100 66 100 96 100 100 100 100 100 100 100 100 100 100 100 100 100 96 51 81 94 93 90
100 8 5 12 67 79 100 80 6 9 11 5 9 60 98 53 64 41 8 16 26 46 65 94 100 100 99 100 100 100 100 100 100 100 100 100 100 54 94 80 84 92 96 81
100 94 100 100 74 21 15 27 91 66 34 51 79 39 23 28 6 5 19 78 96 100 100 100 100 100 100 100 100 100 100 100 100 100 100 100 100 100 100 100 100 92 38 12

GFSCGP_prec_cloud_009.txt.gz
Cloud_Cover
100 100 100 100 100 100 100 100 100 98 100 100 100 100 19 11 97 97 65 75 61 74 91 37 20 29 38 26 16 16 8 49 80 47 17 36 100 64 10 5 0 0 0 0
100 100 100 100 100 100 100 100 98 100 100 100 82 85 38 13 19 50 88 72 60 40 8 31 29 13 22 60 88 80 61 83 90 89 36 5 2 0 0 0 0 0 5 2
100 100 100 100 100 100 100 100 100 100 100 79 100 76 81 80 45 7 2 5 10 10 11 5 5 11 61 59 81 93 42 8 54 64 19 0 0 0 1 2 2 3 0 2
100 100 100 100 100 95 100 100 100 100 74 96 9 97 94 44 1 5 5 4 1 0 4 18 51 96 100 100 31 5 5 5 5 4 0 0 9 22 3 5 5 5 5 5
99 100 100 100 100 100 100 100 100 100 6 100 100 4 100 99 1 5 4 3 8 51 28 10 72 88 28 5 5 6 5 5 5 0 0 0 4 5 6 5 5 5 5 5
100 90 94 99 100 100 100 100 100 47 98 66 6 100 100 90 92 20 5 3 1 0 18 29 13 3 5 5 5 5 5 5 0 0 0 3 5 12 98 64 16 5 5 4
100 100 100 100 99 100 100 100 68 83 99 12 67 6 73 84 70 4 0 0 0 0 0 0 0 3 5 5 5 5 5 0 1 3 5 5 5 97 62 100 13 5 5 2
100 100 69 78 98 95 13 99 16 100 94 89 48 4 46 0 0 0 0 0 0 0 0 0 0 0 0 5 5 5 5 5 0 0 5 5 52 93 99 9 5 5 5 5
77 100 100 89 70 51 63 5 6 29 45 1 0 19 75 0 0 0 1 0 0 0 0 0 0 0 1 5 5 5 5 3 5 5 5 56 67 100 86 6 5 5 5 5
38 91 8 52 74 10 5 5 3 0 0 3 63 80 31 0 0 0 2 0 0 0 4 0 5 5 5 5 5 5 5 28 50 25 13 7 98 98 77 21 5 5 5 5
24 27 19 6 5 9 3 0 0 1 13 5 2 28 0 0 0 0 0 2 0 5 5 5 5 5 5 5 5 5 5 11 5 94 7 51 98 99 5 5 5 5 5 5
6 2 3 1 1 0 0 5 5 0 0 0 0 0 0 4 2 5 5 5 8 6 5 5 5 5 5 19 63 40 5 5 56 90 44 88 100 7 13 6 11 48 8 40
0 0 5 5 0 0 1 0 0 0 0 4 23 4 0 4 0 5 9 5 5 5 3 5 5 5 100 96 5 5 15 38 78 85 86 99 67 22 14 27 95 26 30 100
0 0 1 5 88 5 5 5 5 5 5 5 0 0 0 4 6 19 4 2 2 5 3 5 5 94 100 5 11 62 62 78 94 84 99 68 80 22 58 97 64 58 100 100
0 0 5 5 1 3 11 40 69 5 5 5 0 0 2 5 12 5 10 5 4 5 5 5 67 100 24 5 71 86 98 95 100 100 100 100 79 100 100 99 100 100 100 100
0 5 3 0 3 14 77 65 2 3 5 5 1 4 5 4 5 5 5 5 5 5 5 22 96 27 5 23 46 100 100 100 100 100 100 100 100 100 100 100 100 100 100 58
5 3 5 5 5 5 79 5 5 0 0 4 5 5 5 4 4 5 5 5 5 5 79 30 5 10 53 51 99 84 100 100 100 100 100 100 100 100 100 100 99 33 5 8
3 2 5 7 4 58 8 0 4 4 2 5 5 4 5 5 6 5 5 5 77 100 24 5 30 10 30 52 88 74 99 70 99 100 100 100 100 100 100 100 78 85 75 89
0 4 5 20 4 5 5 30 5 5 4 11 5 5 5 6 8 36 5 5 36 8 5 6 12 54 71 42 16 44 100 100 96 100 100 100 100 100 100 100 99 100 100 81
5 5 5 5 57 63 9 5 5 5 5 37 5 6 18 95 23 5 7 38 5 24 11 32 54 42 5 6 82 100 100 100 100 100 100 100 100 100 100 100 100 100 99 100
5 33 38 5 35 8 56 25 90 57 10 5 54 100 64 74 66 86 100 34 21 18 31 94 52 44 89 86 98 100 100 100 100 96 100 100 100 100 100 100 100 100 100 100
37 47 28 18 65 73 58 76 56 9 5 12 5 5 6 70 100 94 96 92 45 59 99 96 93 100 100 100 100 100 90 100 100 100 100 100 100 100 100 100 100 100 100 100
32 7 14 8 8 11 6 5 5 5 5 44 5 64 87 100 88 63 15 24 72 85 30 40 24 95 100 100 80 100 100 100 100 100 100 100 100 100 100 100 100 100 79 91
65 6 27 21 5 5 5 5 5 5 5 5 20 87 96 56 35 14 59 95 77 66 43 22 7 39 95 57 100 100 100 100 100 100 100 100 100 100 100 100 100 46 97 100
14 5 5 5 5 5 6 4 32 72 6 39 93 53 70 44 9 42 55 61 42 16 5 11 70 100 100 100 100 100 100 100 100 100 100 100 100 100 100 100 100 96 68 100
17 5 11 41 80 100 100 100 54 5 73 98 52 10 13 23 51 41 14 6 24 37 90 100 100 100 100 100 100 100 100 100 100 100 100 100 100 100 100 100 83 100 100 25

GFSCGP_prec_cloud_012.txt.gz
Cloud_Cover
100 100 100 100 100 100 100 100 78 100 74 68 92 19 5 99 100 100 100 100 73 91 97 100 100 86 33 24 5 6 8 81 68 80 100 100 77 66 38 44 30 4 1 0
89 100 100 100 100 100 100 100 100 81 92 97 100 100 100 100 76 13 16 33 5 5 5 5 5 5 5 6 51 24 16 18 46 83 6 5 5 6 4 0 0 0 0 0
100 100 100 100 100 100 100 100 88 84 67 100 100 100 100 18 5 36 30 24 6 6 4 5 5 21 65 100 100 49 100 5 23 5 5 5 0 0 0 0 0 0 3 4
100 100 100 100 100 100 100 25 90 96 100 100 100 98 99 97 88 79 1 1 5 56 5 4 2 16 35 100 100 52 94 25 5 5 5 1 0 0 0 0 4 4 5 5
99 98 100 100 100 94 96 98 48 100 95 100 100 67 84 73 98 36 2 3 0 0 2 5 5 100 100 100 100 100 31 5 5 5 5 0 0 0 0 4 5 5 8 41
100 97 100 100 97 100 60 87 21 84 100 100 100 100 83 100 100 98 100 99 33 34 4 11 12 41 26 89 28 11 0 5 5 5 2 0 0 0 0 5 21 90 14 5
100 98 100 100 100 97 100 100 92 95 100 99 85 100 100 100 100 100 100 100 11 0 0 37 83 65 100 70 0 0 0 4 5 5 3 5 5 5 5 5 5 56 100 42
100 93 95 100 100 100 86 98 100 100 85 57 63 47 100 71 35 19 100 58 0 25 29 25 78 82 14 0 0 0 0 5 5 18 78 48 6 5 5 9 36 94 100 73
66 65 100 100 100 100 19 100 49 62 98 76 91 67 5 4 3 37 0 0 0 0 3 0 25 0 0 0 0 0 0 15 100 100 11 5 5 8 8 93 96 100 27 6
100 100 96 62 28 57 88 51 14 22 9 12 52 24 72 41 21 0 0 0 0 0 0 0 0 0 0 5 5 4 5 52 100 78 5 5 24 77 74 92 90 100 65 5
100 100 100 41 99 24 11 63 9 5 32 53 0 26 73 3 0 0 0 4 0 0 0 0 0 0 0 0 1 5 7 100 100 8 5 5 62 85 91 97 100 94 5 5
7 5 97 74 98 22 26 73 9 2 0 1 4 0 0 0 0 0 0 0 0 0 0 0 0 3 5 5 5 29 100 94 6 5 5 41 88 100 100 45 59 5 5 5
22 56 83 92 43 8 4 0 1 90 3 0 25 0 0 0 0 0 0 0 2 0 0 0 5 5 2 2 1 45 5 5 5 5 77 90 82 100 82 100 65 5 8 86
4 1 0 0 4 92 65 4 5 5 0 0 0 0 0 0 0 0 0 0 4 5 4 2 4 5 5 5 29 5 5 5 5 5 84 100 98 100 100 41 76 40 58 81
0 0 0 1 27 21 98 22 14 5 0 0 0 0 0 0 0 0 0 5 4 2 4 5 5 81 92 94 7 5 5 5 5 56 100 100 100 93 100 90 63 80 100 94
0 0 0 0 1 5 5 5 4 0 3 5 0 0 0 0 0 5 5 3 5 5 5 5 5 5 5 5 5 12 17 5 5 75 100 100 99 100 67 100 95 100 82 100
2 0 0 0 5 5 5 0 0 0 0 0 4 1 0 0 5 0 2 5 5 60 14 5 5 21 31 5 5 5 5 5 5 61 100 100 96 98 100 100 100 100 100 100
5 5 1 8 5 5 0 0 0 5 0 1 5 5 4 5 5 5 5 6 88 5 5 25 99 37 5 4 4 5 5 5 3 97 100 90 100 95 100 100 100 100 100 99
5 5 4 60 4 1 1 0 0 5 0 15 82 5 5 5 11 5 14 85 26 37 38 100 42 5 5 5 5 5 5 5 68 97 92 100 100 100 100 100 100 100 100 100
5 5 5 5 0 5 5 5 1 5 5 84 6 5 5 27 5 55 83 5 39 100 75 5 5 5 5 20 67 19 83 100 97 100 100 100 100 100 100 100 100 100 100 100
5 6 38 5 33 5 10 11 12 35 41 5 5 8 35 20 61 36 18 94 100 5 5 6 5 43 47 75 92 100 100 100 72 100 100 100 100 100 100 100 100 100 100 100
5 6 36 8 73 58 5 80 90 40 8 42 33 9 14 5 81 94 54 10 79 9 45 18 79 27 5 25 93 97 88 90 91 89 100 100 100 100 100 100 100 100 100 100
5 5 5 14 6 62 87 99 34 35 100 17 5 28 5 9 75 88 7 26 88 82 54 98 12 5 5 5 50 100 100 96 100 100 100 100 100 100 100 100 100 100 100 100
5 5 9 97 18 11 46 46 18 98 31 89 92 67 100 100 64 6 56 75 82 87 25 56 86 28 52 96 100 100 100 100 100 100 100 100 100 100 100 100 100 100 100 100
14 72 6 100 33 5 5 51 88 28 11 99 100 100 100 59 7 8 17 67 76 41 11 56 86 97 94 100 100 100 100 100 100 100 100 100 100 100 100 100 100 100 100 100
69 29 52 88 17 76 5 18 41 44 100 100 100 95 30 19 6 7 43 70 30 85 100 100 97 84 48 74 97 88 94 100 100 100 100 100 100 100 100 100 100 100 100 100

GFSCGP_prec_cloud_015.txt.gz
Cloud_Cover
30 49 60 100 100 100 100 100 100 100 87 24 100 100 23 100 100 100 100 100 100 100 100 80 8 63 79 100 100 100 69 85 45 36 100 100 100 100 100 100 100 100 65 5
55 96 100 100 100 100 100 94 93 100 100 46 100 100 98 100 100 100 100 100 100 100 6 28 47 35 24 80 100 92 5 12 68 62 34 32 17 18 54 25 14 7 5 4
100 50 66 74 79 82 92 98 100 100 100 85 28 56 99 100 100 100 90 50 96 5 2 6 5 4 5 4 10 26 13 26 39 92 18 6 15 5 4 1 0 0 0 2
94 67 54 99 89 97 69 82 96 82 34 88 34 100 94 99 42 52 94 81 5 5 0 0 2 5 5 2 2 5 4 70 14 83 18 6 2 0 0 0 0 0 1 5
100 95 100 100 12 12 81 74 46 54 97 93 100 99 21 42 100 100 68 2 27 57 0 0 0 0 2 73 100 100 100 100 36 0 5 5 5 2 0 0 0 0 5 5
78 100 98 90 98 100 100 89 98 99 38 94 100 59 85 73 90 91 100 98 96 70 5 92 4 4 1 99 100 100 100 100 7 3 4 5 5 5 2 0 2 5 5 5
84 100 100 100 83 100 100 95 18 100 100 99 39 100 100 55 40 96 100 100 37 34 7 29 0 0 0 24 98 100 100 86 1 0 4 5 5 5 5 4 5 5 6 5
60 58 90 95 91 84 100 75 85 98 100 100 100 100 81 22 50 100 100 63 11 65 57 45 0 4 100 29 1 58 59 0 2 5 5 32 79 100 77 56 92 71 74 20
23 90 91 66 21 68 99 98 60 97 100 100 92 98 99 15 34 24 38 8 90 13 78 7 100 99 100 4 55 15 0 0 1 5 5 97 100 59 7 97 56 5 29 94
81 59 98 100 100 75 100 93 84 32 99 100 100 66 3 33 9 10 0 0 36 82 8 2 2 0 8 47 44 75 10 0 0 5 19 95 40 43 48 81 80 91 87 84
38 91 100 100 100 51 6 40 9 5 69 100 45 62 31 5 5 1 0 0 0 0 0 0 0 0 0 0 0 0 0 0 0 5 15 17 22 97 75 62 100 81 99 77
82 68 100 100 99 29 5 24 5 53 5 60 5 8 2 4 5 4 0 0 0 0 0 0 0 0 0 0 0 4 0 13 100 92 5 13 98 100 98 77 100 100 100 100
90 100 42 54 34 5 5 7 71 82 5 5 1 0 0 0 0 0 0 0 0 0 0 0 0 0 2 5 5 5 5 5 5 5 40 56 96 100 100 99 100 94 100 99
5 4 24 18 61 5 41 22 31 20 2 2 0 0 0 0 0 0 0 0 0 0 0 4 5 5 5 6 8 44 11 74 5 9 0 3 95 100 100 100 98 90 84 99
32 5 5 8 10 10 5 8 15 30 0 0 0 0 0 0 4 4 4 0 1 9 1 1 5 19 80 70 64 15 90 6 1 5 22 70 100 66 87 100 100 82 62 94
5 5 0 0 0 0 4 3 5 4 3 5 3 0 0 0 5 3 0 7 40 20 5 5 5 5 5 34 68 96 66 5 5 22 96 100 97 97 85 76 87 100 100 100
2 0 1 0 0 0 0 0 0 0 0 0 0 0 0 1 4 1 3 4 5 5 5 66 100 53 6 73 20 5 5 5 5 80 100 92 29 23 11 84 100 100 100 100
8 3 5 5 3 3 0 2 0 0 0 0 0 5 2 0 0 5 5 5 5 5 5 18 17 75 98 9 5 5 5 5 26 96 100 100 89 96 92 100 100 100 100 100
96 5 5 5 5 2 0 5 0 0 0 0 5 0 4 5 5 5 5 5 5 5 5 6 44 33 5 5 5 5 5 5 12 18 89 82 100 100 100 100 100 100 100 100
5 5 5 5 5 5 7 7 2 0 5 5 5 5 5 5 9 5 5 5 5 6 44 5 85 60 21 5 5 56 98 100 100 90 100 99 75 100 100 100 100 100 100 100
8 6 5 8 13 5 60 6 5 1 5 5 5 6 13 19 40 66 11 5 7 80 90 100 8 5 5 11 40 78 100 94 82 100 100 100 100 100 100 100 100 100 100 100
5 23 65 73 78 14 5 45 5 5 5 5 20 5 92 98 68 19 6 7 43 98 100 80 45 16 6 70 100 100 100 100 89 84 100 100 100 100 100 100 100 100 100 100
5 5 5 5 5 5 5 5 5 46 92 75 71 85 78 21 6 12 60 99 100 100 85 53 22 43 39 82 94 95 100 100 100 100 100 100 100 100 100 100 100 100 100 100
13 5 5 5 5 21 76 65 80 100 100 100 64 100 100 68 52 89 100 100 100 87 76 85 57 79 100 100 100 100 100 100 100 100 100 93 100 100 100 100 100 100 100 100
26 5 5 10 5 7 16 59 100 100 100 100 100 82 53 90 98 100 100 99 80 26 26 43 79 100 82 97 100 100 100 100 100 100 100 100 100 100 100 99 89 54 38 46
32 59 100 90 100 13 43 26 40 29 58 86 100 98 100 100 100 100 93 66 10 43 82 48 43 59 95 100 100 100 100 100 94 99 62 26 10 5 4 2 0 5 5 33

GFSCGP_prec_cloud_018.txt.gz
Cloud_Cover
5 18 5 100 64 100 98 87 100 100 100 98 100 100 100 40 100 83 100 96 85 100 100 100 100 81 100 47 14 2 0 1 12 40 45 74 100 82 52 88 93 72 81 85
5 34 59 88 49 100 100 99 89 70 100 100 45 86 100 71 94 99 100 97 99 29 69 71 21 6 36 7 5 53 18 5 5 5 98 92 14 5 5 13 48 62 27 6
48 67 66 100 99 100 99 67 100 100 100 98 97 96 98 100 100 100 100 100 100 79 84 9 43 37 5 5 5 38 36 18 5 5 5 17 44 32 47 29 10 5 5 3
75 98 100 99 100 100 100 100 100 100 100 100 100 91 72 68 67 95 100 100 100 100 16 98 98 87 4 0 0 0 5 78 21 3 5 5 5 5 5 5 0 0 0 4
94 99 100 100 99 100 100 100 84 65 90 71 89 79 38 100 98 96 80 99 100 10 3 5 32 11 1 0 0 0 2 4 23 53 4 1 5 3 5 5 3 0 3 5
29 70 98 71 100 92 29 30 100 100 81 9 5 28 47 67 100 95 100 99 100 69 72 99 44 4 5 2 1 96 99 100 100 100 7 3 5 5 57 100 30 12 18 67
5 32 100 98 83 55 55 92 99 76 59 13 7 6 94 82 74 17 21 24 24 5 22 12 2 1 3 4 33 5 6 98 100 100 96 3 5 18 85 99 91 10 16 76
54 5 12 90 22 61 93 24 71 27 38 33 35 5 29 49 100 96 71 0 2 5 4 13 46 5 0 3 6 0 0 97 100 100 94 78 23 66 86 83 68 80 99 95
5 2 27 57 98 100 92 13 70 95 71 5 87 12 99 8 66 86 12 10 5 1 1 6 26 5 53 56 5 0 5 5 96 100 47 85 93 99 89 91 97 100 85 99
1 90 49 18 5 31 8 6 89 98 91 23 37 5 40 33 22 5 4 3 0 0 0 2 4 4 5 1 0 1 27 64 27 12 20 71 83 98 100 69 85 98 90 96
0 0 90 70 97 99 34 12 12 5 32 12 29 3 98 47 5 47 13 0 1 5 1 0 6 10 5 5 5 4 20 19 39 4 9 17 95 100 100 100 100 100 79 32
1 15 30 67 24 90 100 98 5 5 4 14 92 0 5 3 60 6 5 5 4 0 0 3 5 5 5 5 5 5 5 4 5 5 5 49 86 100 62 78 84 73 98 70
1 28 67 100 4 92 8 29 5 5 5 47 5 0 5 0 0 0 1 2 0 0 0 4 0 1 5 5 5 3 18 23 5 7 75 100 100 78 51 90 76 38 17 77
100 44 54 100 90 7 6 53 12 5 54 5 5 1 0 0 0 0 0 0 0 5 5 0 3 5 5 14 16 70 76 87 100 83 52 100 43 98 100 100 49 42 26 17
78 35 61 100 100 25 99 95 54 15 17 5 0 0 0 0 0 5 2 0 0 1 0 3 5 8 5 6 8 23 63 90 70 32 46 24 100 100 100 100 100 17 8 80
90 11 5 5 47 14 82 46 16 2 2 0 0 0 0 40 74 12 1 2 5 5 5 1 0 3 5 5 5 14 25 65 6 25 9 100 100 100 100 100 99 50 23 99
0 0 0 0 0 0 0 0 0 0 94 5 22 5 5 5 4 5 5 5 4 5 5 5 5 4 0 0 0 0 5 5 5 5 33 100 100 100 100 94 64 68 96 100
5 2 0 0 0 0 0 0 0 0 0 0 3 5 1 0 3 5 5 5 4 12 5 5 0 5 5 5 5 5 15 5 5 5 56 100 100 100 96 90 94 100 100 100
88 99 82 0 0 1 0 0 0 0 0 4 5 5 5 0 0 0 5 5 60 47 34 5 5 5 5 6 85 100 43 5 5 19 60 42 50 70 100 93 100 100 100 100
97 100 89 11 4 2 9 5 0 0 6 38 8 5 5 5 5 5 8 6 5 5 5 5 5 5 6 94 97 8 14 5 17 57 70 20 100 100 100 100 100 100 100 100
59 58 98 33 5 1 5 0 5 5 34 43 31 39 6 5 22 22 17 5 5 5 8 76 56 12 100 99 7 5 30 99 92 98 100 100 100 100 100 100 100 100 99 100
73 21 56 66 25 5 5 5 6 57 91 64 17 5 9 5 5 5 16 11 5 6 75 63 91 100 98 61 18 7 75 100 100 100 100 100 100 100 100 100 100 93 84 100
52 70 61 20 5 3 5 36 54 8 7 13 38 54 88 99 100 77 70 99 67 63 68 93 100 100 88 48 73 73 84 99 100 100 100 100 100 100 100 100 100 99 100 77
16 14 5 5 5 5 5 5 68 97 62 50 93 100 100 100 100 98 55 44 50 62 86 100 100 100 66 58 100 100 100 100 100 100 100 100 100 100 100 100 76 30 5 4
33 21 6 16 26 40 28 5 5 15 58 76 91 81 100 100 100 100 100 100 100 100 100 100 100 86 81 79 30 98 100 100 100 100 100 100 100 100 98 58 90 5 3 1
63 35 66 69 100 75 60 22 13 64 86 99 100 100 100 100 100 100 95 99 94 100 91 99 87 72 9 9 81 100 98 100 100 100 100 100 100 100 84 82 10 4 0 0

GFSCGP_prec_cloud_021.txt.gz
Cloud_Cover
0 1 2 51 100 100 100 96 93 100 100 100 100 100 84 100 100 100 100 100 100 100 100 100 100 100 100 100 100 100 100 100 100 100 100 100 100 100 100 100 100 100 100 39
0 4 3 14 36 96 100 100 94 100 100 61 100 100 100 100 99 8 44 100 97 87 50 81 100 100 100 100 100 100 100 100 100 100 98 97 93 88 14 20 24 5 12 29
0 23 98 100 85 77 99 100 100 100 100 100 100 100 100 100 100 99 90 100 100 89 5 7 78 100 100 100 100 38 13 7 13 5 4 5 5 5 5 24 67 36 5 5
1 5 21 100 88 100 100 99 82 100 99 100 94 100 100 98 39 67 100 100 100 100 20 5 5 30 70 14 54 92 40 14 5 5 4 5 5 5 49 86 72 81 5 5
66 25 6 5 88 100 100 100 58 62 27 76 98 76 99 65 100 100 96 56 34 69 60 27 5 5 85 69 12 35 33 3 0 8 6 6 22 5 32 97 96 43 5 5
92 28 49 6 83 88 66 100 100 89 89 62 95 100 100 84 100 78 84 51 6 59 71 79 8 17 32 6 0 1 2 2 100 100 100 69 5 11 5 75 47 5 9 83
42 48 30 24 57 99 100 100 100 90 98 58 100 66 8 87 94 83 24 5 39 5 7 5 5 9 35 97 11 11 5 19 12 24 9 100 99 60 6 5 53 8 80 88
5 6 23 80 62 100 83 100 100 100 100 99 95 95 11 83 35 43 82 98 87 68 100 85 5 68 100 100 100 100 5 99 23 35 96 100 100 100 99 100 100 100 89 51
5 5 5 28 91 90 98 46 7 5 97 81 18 62 5 27 14 5 5 28 26 6 41 7 5 96 96 100 100 75 100 100 81 59 22 44 92 96 98 47 99 100 99 90
2 5 4 56 30 95 100 5 5 5 10 5 45 66 100 41 88 5 43 6 5 6 17 88 95 25 8 9 5 1 12 0 24 14 5 13 8 25 88 100 100 100 88 100
0 0 22 12 53 98 99 30 25 25 8 5 7 99 68 8 30 98 44 2 5 5 5 4 4 0 0 0 0 0 0 0 0 6 18 6 13 61 85 99 64 100 100 100
0 0 1 1 94 70 97 73 89 23 50 5 4 5 0 5 5 97 7 0 4 0 0 0 0 0 0 3 5 5 1 3 5 35 5 12 78 17 89 73 100 100 100 100
0 0 0 0 4 100 99 75 95 83 4 5 4 3 32 5 14 99 79 0 0 0 2 2 0 0 5 4 0 0 5 5 9 6 100 100 73 49 66 100 100 100 100 100
0 0 0 0 45 58 7 5 5 5 1 18 25 5 52 42 94 23 0 7 4 0 0 0 4 5 15 84 22 52 41 41 56 99 96 100 64 66 85 98 100 100 100 100
3 2 39 5 5 5 2 1 4 5 5 5 8 5 4 89 34 0 5 6 0 0 54 69 69 97 100 93 47 35 44 16 17 76 100 66 69 16 56 99 100 100 100 100
1 45 98 99 64 5 5 0 5 5 91 5 5 1 0 0 0 0 3 3 0 5 5 4 4 5 5 7 38 95 55 92 100 100 36 21 5 40 100 100 100 100 100 100
26 38 3 1 3 5 5 92 100 43 11 3 1 0 0 0 3 1 0 0 5 5 4 0 1 2 5 5 5 12 66 72 62 10 5 38 5 45 44 85 92 100 100 100
85 6 5 3 0 5 0 0 0 0 0 0 0 4 4 2 5 5 7 5 2 0 4 5 5 9 49 51 5 5 3 3 5 5 5 5 97 100 100 98 99 84 100 100
8 1 1 2 4 2 0 0 0 0 0 4 5 0 0 0 0 5 7 2 4 5 5 5 5 5 5 17 7 5 5 42 40 97 83 14 66 95 100 100 100 100 100 100
5 1 3 10 16 11 100 0 0 1 11 5 3 0 0 0 0 0 3 5 5 5 7 10 19 5 5 5 5 5 28 69 100 78 12 87 100 100 97 100 100 100 100 100
8 6 1 50 5 29 100 22 4 0 22 4 4 5 5 4 4 5 5 5 24 69 81 36 5 5 6 18 23 5 32 92 100 83 100 85 100 100 100 100 100 100 100 100
1 13 34 4 5 93 100 100 7 1 4 2 2 5 5 5 10 17 5 22 52 21 5 5 72 100 100 100 100 100 100 100 44 85 91 100 100 100 100 100 100 100 100 100
2 2 0 0 5 78 6 5 5 5 5 0 5 5 5 49 30 22 50 65 18 55 96 100 100 100 100 100 100 100 100 98 100 96 97 92 100 100 100 100 100 98 100 100
5 9 5 3 5 7 29 13 7 6 6 6 5 5 26 7 30 100 100 100 100 98 72 74 98 100 100 97 68 63 99 90 85 74 54 66 45 60 77 89 96 100 100 100
48 49 42 91 18 67 95 43 38 49 37 50 64 60 69 79 62 90 100 100 100 100 100 100 100 100 91 97 99 92 49 26 81 79 17 5 5 5 84 100 100 100 100 89
100 100 55 96 5 60 100 100 100 100 100 100 100 100 100 99 100 100 100 100 100 100 100 100 100 96 80 75 58 87 90 74 19 5 5 5 5 81 100 100 100 100 72 7

GFSCGP_prec_cloud_027.txt.gz
Cloud_Cover
0 0 0 0 0 2 4 5 47 5 14 22 100 97 100 100 100 100 100 100 100 100 100 100 100 100 100 100 100 100 43 74 100 100 100 100 100 100 100 100 100 45 98 78
2 3 0 0 0 0 5 5 5 18 70 44 91 100 100 95 93 100 100 100 95 100 100 100 100 100 100 75 96 100 99 100 100 100 100 100 98 100 98 87 100 100 94 100
0 2 0 0 0 2 5 88 74 74 100 100 100 100 100 88 95 100 100 100 84 68 100 100 100 100 100 100 100 71 38 34 32 12 57 100 89 100 100 100 49 38 35 56
3 3 5 0 1 70 15 10 82 100 96 100 99 100 100 100 100 100 100 100 94 90 99 83 81 100 100 100 100 100 100 100 100 100 100 100 100 100 100 86 21 25 5 17
0 5 5 0 0 8 9 10 91 100 96 100 100 100 100 100 100 100 100 95 100 100 100 84 99 100 100 100 100 100 100 100 84 54 25 17 32 64 100 72 100 100 82 79
3 2 5 0 0 0 4 5 10 82 100 99 98 100 100 70 79 100 100 100 100 100 100 92 56 28 14 32 54 49 40 39 17 13 91 100 90 100 100 91 100 95 100 85
0 0 2 1 0 0 18 50 8 27 100 100 100 100 100 96 79 82 90 96 100 95 100 23 5 50 74 68 51 11 5 67 5 96 100 100 100 100 100 100 100 100 100 85
1 4 5 5 1 1 5 74 33 94 84 100 100 100 99 45 94 97 100 100 59 86 33 5 6 6 5 5 5 8 28 98 96 74 100 94 100 100 100 100 100 98 100 100
0 10 5 5 5 5 5 48 91 87 50 100 100 100 100 33 70 34 100 96 100 100 100 19 6 5 5 5 6 98 100 100 93 100 52 62 12 100 100 100 100 100 100 100
3 5 2 5 5 5 5 23 4 20 67 85 100 100 100 100 100 100 100 95 57 100 100 100 94 23 4 0 59 100 100 75 31 36 6 30 100 100 100 100 100 100 96 100
5 5 4 5 5 5 60 60 45 8 5 36 81 100 100 100 100 100 100 100 100 100 100 100 42 5 1 5 5 46 68 17 4 14 63 100 100 100 100 100 91 100 100 100
5 5 1 5 24 34 5 5 65 58 100 61 25 100 100 26 100 95 54 100 71 76 74 57 5 5 5 5 51 73 7 5 35 100 100 100 100 100 100 100 99 100 100 100
78 19 3 1 5 4 3 5 8 72 59 26 16 100 100 5 21 60 37 100 98 100 10 5 5 5 6 76 32 5 5 31 100 100 100 100 86 63 53 60 96 97 97 100
99 6 1 5 0 2 0 5 5 67 4 18 46 100 100 5 4 5 8 77 100 32 2 5 5 5 12 2 5 5 5 5 21 74 80 49 5 8 50 57 20 42 73 99
97 5 3 5 0 1 0 0 0 1 0 0 90 100 100 3 5 26 22 16 14 5 0 4 5 3 0 5 5 5 5 5 5 5 5 5 5 7 16 6 58 100 100 100
95 10 3 5 5 0 0 0 0 0 0 0 5 91 97 5 49 88 100 76 10 5 1 0 0 0 5 6 14 5 5 6 5 5 5 5 5 5 72 100 100 100 100 100
99 10 5 5 5 5 0 7 27 5 0 5 84 85 83 74 80 100 28 20 50 6 0 1 4 4 1 5 5 5 5 5 5 5 6 41 51 39 51 100 100 100 100 100
93 6 5 3 1 2 0 6 1 0 0 4 5 4 5 9 6 44 0 0 7 10 5 5 2 0 0 0 5 2 1 5 5 26 39 23 10 80 76 96 95 100 97 100
54 5 55 81 3 2 0 0 0 0 1 0 4 0 0 0 0 0 0 4 5 5 2 5 5 4 5 5 5 5 5 5 7 27 32 54 90 97 76 89 99 100 100 100
5 29 37 4 5 5 0 0 0 0 35 3 0 0 0 0 0 5 10 10 5 5 4 10 53 47 78 95 95 56 20 46 10 21 69 82 92 98 100 90 64 100 100 100
11 5 12 5 3 5 5 0 0 0 0 0 5 3 5 5 50 88 27 5 1 2 5 5 5 42 72 66 47 12 16 45 78 86 90 88 100 99 54 56 100 100 100 99
100 87 50 5 5 23 2 0 0 0 0 0 2 5 41 34 38 37 5 0 4 5 5 5 4 5 5 5 6 32 80 84 92 80 81 90 94 100 91 96 55 27 58 70
100 100 99 5 17 5 5 4 0 0 0 0 0 0 5 5 5 5 5 5 5 3 0 4 4 5 24 5 5 49 92 34 13 6 12 95 100 100 100 92 59 70 70 63
100 99 100 72 45 10 5 5 5 5 11 5 6 0 4 5 5 5 5 5 5 5 5 5 5 5 5 5 5 5 5 5 7 61 100 98 100 100 91 69 50 73 60 36
100 95 92 83 100 91 5 5 44 90 10 21 39 8 5 5 5 5 5 5 5 5 13 27 24 14 49 16 7 5 22 82 100 98 100 100 100 85 75 56 44 46 23 44
100 100 99 100 100 98 100 100 100 77 46 5 5 5 5 29 58 63 38 23 44 35 15 9 45 54 88 92 38 29 31 90 100 100 100 100 90 64 24 18 31 58 45 8

GFSCGP_prec_cloud_030.txt.gz
Cloud_Cover
4 8 5 5 4 1 0 2 100 53 5 5 7 61 100 54 55 82 100 100 100 100 100 100 100 100 100 100 100 100 100 91 100 100 100 100 100 100 100 100 100 100 100 100
5 5 5 5 5 0 0 0 23 9 6 9 91 99 85 82 53 100 6 59 100 55 100 100 100 88 100 100 100 100 100 100 95 100 100 100 100 100 100 100 100 100 100 100
5 13 3 5 4 0 0 25 9 24 58 96 82 80 81 49 85 80 80 96 100 13 100 51 100 32 99 100 100 70 18 16 28 87 73 74 94 100 100 100 100 100 100 100
6 24 19 5 5 4 5 2 3 30 100 100 100 100 100 100 100 50 85 100 100 100 47 100 100 81 38 100 64 97 100 88 16 5 7 68 42 62 9 95 100 67 34 19
63 8 23 5 5 5 72 5 6 100 93 100 100 100 58 98 23 15 41 100 100 58 66 73 100 98 100 100 97 100 100 100 98 100 100 100 100 100 61 64 98 72 78 89
10 26 23 5 4 5 0 5 5 54 50 98 100 100 100 91 22 8 66 100 100 93 50 61 64 71 30 25 32 6 23 64 56 39 16 93 83 89 52 48 100 100 63 96
5 65 25 41 5 5 5 2 99 100 95 100 100 100 100 100 38 54 11 53 62 100 83 100 100 100 24 5 5 5 98 100 99 72 13 26 90 97 100 100 100 100 100 100
4 15 66 88 5 8 25 6 87 100 97 100 100 100 100 99 100 100 39 21 73 79 85 54 40 48 13 24 24 5 96 100 84 14 67 95 100 45 100 100 100 100 100 100
5 30 6 57 6 5 16 2 89 83 99 96 73 100 100 97 69 95 5 5 72 7 89 100 41 5 5 5 88 42 75 100 92 100 86 48 99 100 100 100 100 100 100 100
11 18 16 8 5 37 72 75 10 22 97 100 100 100 100 94 77 98 45 27 63 70 47 99 44 10 21 28 6 5 5 84 100 100 80 74 75 97 100 100 100 100 100 100
5 5 5 14 7 98 84 30 6 74 20 100 97 100 100 90 17 5 78 95 100 100 100 99 99 100 5 5 4 2 0 70 100 100 48 86 100 99 100 100 100 100 100 100
5 1 5 21 5 31 98 100 92 99 84 4 18 100 100 70 23 6 67 99 100 100 100 100 100 100 65 58 4 1 0 5 99 100 19 62 100 100 100 100 100 100 100 100
97 6 40 100 6 5 60 51 35 23 5 6 62 98 100 92 20 5 5 5 5 5 23 100 100 100 100 100 51 6 4 5 16 5 4 46 97 100 100 100 100 100 100 100
25 1 5 100 69 12 4 5 5 5 5 1 1 3 97 75 14 5 7 5 5 5 6 97 100 100 100 100 85 93 54 14 5 34 5 21 56 78 92 97 100 100 91 100
100 43 6 100 86 7 8 5 5 9 0 5 4 5 100 46 5 5 4 5 5 92 100 100 57 63 98 51 26 19 7 5 85 38 5 9 39 51 50 52 70 74 94 100
100 18 18 100 84 6 5 5 4 0 1 0 0 1 51 70 5 5 5 12 59 42 12 10 5 68 80 8 5 5 0 5 5 20 28 5 5 5 5 5 12 99 100 100
100 60 91 100 15 25 21 5 34 0 4 5 0 1 0 5 5 5 5 5 56 78 100 51 5 5 5 6 5 5 3 5 5 77 63 30 25 10 5 29 59 55 95 100
100 71 100 100 48 93 2 2 5 2 1 0 0 0 0 3 5 5 5 5 6 52 55 9 5 17 5 10 5 1 0 2 28 48 71 54 14 5 6 10 70 100 100 98
27 99 100 100 100 100 80 0 4 5 0 2 0 0 0 0 0 2 4 0 2 1 0 2 3 5 5 5 96 97 83 52 21 28 40 44 63 46 45 98 93 70 30 82
100 100 100 100 100 100 2 0 5 5 3 0 0 0 0 0 0 5 5 0 0 0 0 5 5 5 5 20 99 100 100 100 100 100 88 56 26 82 88 67 100 100 100 100
100 100 100 100 100 100 8 0 4 5 3 0 0 0 0 0 0 4 5 5 10 22 48 5 5 5 5 5 5 5 6 23 22 33 54 76 85 100 100 100 100 100 100 80
100 100 100 100 52 100 73 1 5 4 4 5 4 0 0 0 0 0 5 33 95 98 51 18 14 6 24 21 21 30 37 57 78 96 100 100 81 73 79 61 33 16 79 100
98 100 100 99 80 81 89 5 5 0 4 51 5 0 5 0 0 0 0 5 9 40 45 65 66 67 72 46 52 90 100 100 93 73 67 56 61 58 11 33 58 18 60 62
100 100 100 79 90 100 64 88 10 4 25 14 5 5 5 5 5 5 0 0 5 37 81 86 85 78 89 80 40 11 31 60 43 14 16 9 5 11 5 5 7 16 70 57
100 100 100 39 100 100 100 100 52 68 100 91 11 5 5 5 3 0 3 0 3 5 5 22 38 49 66 74 70 34 5 22 5 5 5 5 5 7 30 40 27 34 10 5
100 100 100 100 100 98 72 30 96 100 96 60 5 5 5 5 5 5 8 5 5 5 11 31 33 48 52 49 30 8 5 5 5 5 6 18 28 63 59 11 7 54 5 5

GFSCGP_prec_cloud_033.txt.gz
Cloud_Cover
5 5 5 5 64 84 98 65 98 100 100 16 89 40 100 27 79 5 100 100 95 57 100 100 100 100 100 100 100 100 100 100 77 100 100 100 100 100 100 100 100 100 100 100
27 6 5 5 5 5 5 70 40 99 8 26 57 100 95 100 99 14 62 100 100 100 100 100 100 100 100 100 98 96 100 100 100 100 100 100 100 100 100 100 100 100 100 100
99 100 100 5 5 5 5 100 100 63 91 6 74 74 76 77 43 5 25 69 100 100 88 100 100 100 100 100 100 98 100 100 100 100 100 100 92 100 100 100 100 100 100 100
100 100 100 29 5 5 96 14 100 6 1 96 68 100 91 98 5 5 5 5 61 100 73 91 92 66 100 100 100 100 100 100 42 8 12 13 15 77 100 100 100 100 100 96
100 100 100 5 5 30 98 96 33 99 96 99 61 73 89 100 99 93 5 33 86 100 100 97 10 100 93 100 94 65 100 100 99 98 99 100 77 86 20 18 56 69 94 100
100 100 100 5 5 10 42 44 7 82 82 98 92 100 95 100 100 100 97 31 67 100 100 64 98 30 100 100 100 92 29 5 5 5 3 16 5 25 34 65 63 100 100 100
100 100 100 85 78 5 23 62 98 100 99 39 100 99 100 100 96 100 96 90 57 99 100 97 8 12 78 82 5 5 5 5 15 5 6 5 5 7 63 90 78 88 92 97
100 100 100 99 9 48 14 89 43 100 100 100 68 71 100 98 54 6 27 100 77 66 5 85 100 96 77 24 5 5 5 8 25 85 16 15 12 100 99 86 100 100 100 100
100 100 99 77 6 12 89 98 6 64 32 19 98 100 100 60 5 46 51 5 5 5 6 100 100 100 14 5 5 5 40 94 46 40 97 100 81 74 100 100 100 100 100 100
100 100 100 100 6 14 11 93 88 83 100 50 66 96 100 82 92 10 6 5 5 5 4 70 72 38 89 14 5 62 76 68 5 7 66 100 99 74 73 95 100 100 100 100
100 100 100 100 64 38 5 76 60 94 94 93 85 91 99 92 100 99 40 18 6 5 5 5 5 36 62 62 100 61 35 92 32 41 80 98 97 100 100 100 100 99 100 100
100 100 100 100 100 16 96 78 95 97 86 60 48 38 100 91 59 24 35 82 5 5 5 5 5 5 54 100 100 99 76 12 29 52 46 100 100 100 100 100 100 100 100 100
100 54 100 100 96 34 6 100 97 83 100 44 90 3 100 37 100 25 61 52 7 7 7 5 5 5 11 91 100 95 94 62 14 26 71 100 100 100 100 100 100 100 100 100
100 84 100 100 97 85 63 100 100 74 100 31 49 76 100 100 99 71 79 14 40 5 5 5 5 3 5 95 100 100 100 100 34 56 39 76 100 100 100 100 100 100 100 100
80 70 100 100 100 100 76 100 100 100 90 87 40 100 98 79 91 8 33 80 33 5 1 1 2 85 49 100 100 100 55 27 12 26 47 94 100 100 100 100 100 100 100 99
98 50 100 100 100 70 65 88 100 100 99 100 100 77 97 100 53 5 5 48 26 60 5 5 4 5 76 74 41 37 61 52 62 5 6 5 13 14 50 51 41 48 59 81
94 50 100 100 100 100 80 96 59 100 85 13 30 4 7 75 70 5 2 5 13 28 66 12 6 5 5 3 8 34 31 91 87 9 5 5 5 57 84 87 87 81 82 50
96 100 100 100 100 92 100 57 100 34 53 5 50 8 5 61 5 2 0 1 5 5 5 13 61 47 7 83 100 100 34 5 5 5 5 5 5 5 5 5 5 10 68 98
99 100 100 100 79 88 100 100 100 91 32 30 98 17 5 73 2 0 0 0 1 3 0 3 3 6 5 6 28 5 5 5 5 5 23 99 98 100 100 100 100 99 96 92
100 100 100 100 100 100 100 100 100 24 40 17 99 5 5 5 0 0 0 0 0 0 5 5 5 5 6 8 10 5 5 5 32 70 68 34 19 49 84 80 100 100 98 86
100 100 100 100 100 100 100 100 98 64 46 91 36 84 14 5 2 1 0 5 0 0 5 5 6 38 82 74 68 26 5 8 5 5 5 19 44 95 99 83 91 98 96 90
100 100 100 100 83 100 100 100 14 100 1 5 46 45 5 5 5 2 0 0 0 0 0 1 9 42 48 22 5 31 24 17 42 23 48 83 96 100 94 72 67 90 98 82
100 100 100 100 100 100 100 100 95 65 6 5 5 5 5 5 0 0 4 0 0 0 0 0 5 4 5 27 43 53 48 57 80 100 100 99 93 99 100 100 100 100 70 38
100 100 100 100 100 100 100 100 100 52 4 5 7 90 5 5 5 5 5 0 0 1 0 0 5 5 12 29 45 98 100 99 98 98 91 77 65 73 85 100 99 90 46 7
100 100 100 100 100 100 100 100 100 74 66 60 99 100 100 62 11 5 6 5 16 5 3 36 5 5 5 10 5 39 82 62 39 51 46 55 99 96 71 35 17 5 5 11
100 100 100 100 100 100 100 100 100 75 88 79 63 100 100 100 100 47 12 5 5 5 80 100 22 5 5 11 8 11 8 5 6 39 90 63 7 17 28 6 5 17 57 60

GFSCGP_prec_cloud_036.txt.gz
Cloud_Cover
0 5 34 100 12 5 86 23 85 91 87 25 95 100 97 100 100 40 43 62 69 37 32 100 100 72 5 100 100 100 100 100 100 100 100 100 100 100 100 100 100 100 100 100
3 7 98 100 100 5 5 5 73 53 2 3 0 99 97 100 100 2 6 100 100 100 99 100 100 99 100 100 99 95 100 100 100 100 100 97 95 96 100 100 100 100 100 100
42 100 94 100 100 25 5 5 4 97 97 31 0 1 70 99 51 100 72 72 36 100 100 100 100 94 100 100 100 99 92 100 100 100 100 100 92 92 70 90 100 100 100 100
66 100 100 100 100 96 6 5 46 87 36 14 3 7 84 100 95 23 22 5 5 93 100 100 100 100 91 13 8 78 100 100 93 12 76 91 13 5 89 21 40 59 100 100
94 84 100 100 100 100 51 20 69 88 97 29 34 38 95 13 22 50 5 5 5 5 91 100 95 100 100 100 100 100 100 76 100 100 85 100 71 81 8 70 70 5 9 6
98 14 23 100 100 100 73 14 21 89 5 4 2 89 91 3 32 100 100 90 58 7 86 100 100 75 27 56 66 54 100 100 39 15 71 96 79 83 41 63 79 44 72 69
99 95 96 100 100 100 100 51 52 78 78 2 54 98 10 74 87 80 91 97 100 86 5 97 100 100 99 46 13 100 94 100 100 99 9 7 62 47 93 78 21 5 95 100
100 100 100 100 100 100 100 100 12 98 92 88 99 89 53 1 99 91 23 6 57 100 64 7 100 100 100 44 31 5 17 76 91 39 5 5 94 29 80 100 88 68 100 100
100 100 100 100 100 100 100 92 15 38 100 59 100 100 100 50 2 45 7 12 18 7 5 5 97 5 36 6 50 7 5 14 24 5 65 5 36 60 100 100 100 100 89 100
100 100 100 100 100 100 100 100 100 65 94 83 5 85 99 48 95 24 73 7 6 8 4 4 82 23 86 73 100 100 3 7 5 5 5 5 66 100 100 100 98 100 100 100
100 100 100 100 100 100 100 100 100 100 96 5 67 21 32 53 100 78 4 4 57 5 5 5 5 5 29 77 100 100 85 100 3 5 86 100 88 100 100 100 99 100 100 100
100 100 100 100 100 100 100 100 71 77 96 89 100 10 69 44 100 100 86 6 14 37 4 0 5 5 5 5 6 56 47 6 11 79 100 100 96 98 100 100 100 100 100 100
100 100 100 100 100 100 100 100 99 99 67 98 100 100 43 100 54 81 7 2 3 5 14 6 0 0 4 5 4 5 5 39 43 69 55 100 89 41 100 71 100 100 100 100
100 100 100 100 100 100 100 100 100 96 99 13 94 93 50 68 66 24 94 93 6 24 100 5 1 0 0 5 5 3 1 8 29 87 81 8 81 88 39 100 100 100 100 100
100 100 100 100 100 100 100 100 87 93 100 99 68 100 100 65 14 87 100 84 100 6 91 95 6 3 0 0 10 5 20 94 61 19 4 11 7 14 100 100 100 100 100 100
100 100 100 100 100 100 100 100 100 100 100 96 100 100 100 86 100 39 40 24 92 8 0 84 6 0 1 1 5 28 12 5 5 4 2 29 99 100 100 100 100 100 100 100
100 100 100 100 100 100 46 87 100 100 96 95 92 99 100 100 41 61 31 5 0 0 0 3 5 5 5 5 5 5 5 5 5 1 3 4 3 4 5 12 24 65 61 9
100 100 100 100 100 86 62 95 100 100 37 98 96 100 100 83 56 16 11 100 8 0 0 0 2 5 5 2 1 4 6 5 6 66 59 86 53 5 5 5 5 5 9 38
100 89 63 66 75 100 7 100 100 100 100 100 56 100 100 100 25 14 14 13 1 0 0 0 0 0 0 0 0 0 5 5 8 35 5 5 5 5 5 5 5 5 5 10
100 82 42 100 53 6 83 100 100 100 100 86 96 99 100 91 91 68 4 0 0 0 0 0 0 0 0 0 0 2 5 6 55 51 26 6 25 13 9 20 16 43 57 97
100 100 81 62 36 2 98 100 100 99 100 96 99 41 100 100 89 5 5 5 5 0 0 0 0 0 0 0 0 0 3 4 24 22 28 58 54 52 56 100 88 79 88 100
100 100 54 98 93 23 100 100 100 100 100 100 26 100 100 93 57 5 5 5 5 5 0 0 4 0 0 0 0 1 1 0 0 5 5 21 65 99 100 100 96 100 100 100
100 100 100 100 52 98 100 100 100 100 100 98 60 7 100 100 90 5 5 5 5 5 5 5 5 5 5 2 5 5 5 5 5 10 63 91 100 100 100 100 98 100 91 56
100 100 72 97 100 100 100 100 100 100 100 58 97 100 100 100 34 5 5 7 19 5 10 5 5 10 20 17 5 14 7 6 5 22 24 77 55 79 98 99 92 77 82 66
100 100 100 100 100 100 100 100 100 100 100 85 100 100 100 97 8 16 80 100 100 100 100 36 35 12 57 26 77 100 100 64 8 17 89 82 61 83 89 93 95 74 63 74
100 99 100 100 100 100 100 100 100 91 100 98 100 100 100 100 40 16 22 68 100 98 100 100 100 44 48 52 100 56 99 96 65 98 100 100 65 66 72 75 30 42 56 89

GFSCGP_prec_cloud_039.txt.gz
Cloud_Cover
100 100 5 5 5 88 75 100 27 27 52 99 4 0 2 100 96 58 93 63 25 38 96 100 100 100 38 74 100 77 99 100 100 100 100 100 87 56 77 100 100 100 100 100
100 54 20 5 4 15 29 100 70 85 93 21 18 4 0 9 99 35 30 0 97 1 100 94 94 100 100 96 44 94 80 67 90 42 58 92 70 71 73 99 100 100 100 100
97 26 14 5 28 5 5 88 100 26 45 83 66 45 23 3 4 40 100 2 89 3 18 92 26 70 88 46 88 100 95 39 100 98 87 75 87 56 18 10 81 100 100 100
62 11 5 4 24 100 93 77 100 9 96 29 94 82 7 4 96 21 1 2 6 1 7 100 100 100 100 99 49 11 50 64 100 100 100 100 100 100 100 84 23 60 93 94
100 35 5 5 4 75 30 5 12 100 69 15 6 73 96 5 2 6 5 5 2 0 0 100 100 100 100 100 100 100 100 100 100 100 100 100 100 9 44 100 100 100 100 95
100 100 100 100 83 89 98 17 38 100 93 11 51 47 89 8 5 5 29 35 39 34 79 100 100 100 100 100 100 78 27 24 59 43 84 80 74 41 100 97 90 89 80 57
100 100 100 100 100 100 100 100 100 100 100 30 5 4 8 61 93 100 47 23 3 16 100 100 64 100 100 99 96 95 76 72 79 100 95 100 100 45 13 83 77 50 22 100
96 100 100 100 100 100 100 100 100 100 100 9 5 5 66 72 84 38 83 73 87 82 5 77 9 22 100 34 90 72 6 5 5 5 6 32 31 64 87 68 33 72 99 100
100 98 100 100 100 100 100 100 79 84 100 100 48 9 41 59 64 50 3 46 49 4 75 4 5 5 5 74 98 31 6 42 99 100 100 16 44 100 100 17 84 100 100 100
100 99 100 100 100 54 88 100 92 73 100 100 100 16 42 81 48 57 79 4 0 0 3 0 0 4 4 17 5 5 85 100 100 100 100 99 100 95 100 95 100 100 76 79
100 81 96 100 98 89 100 100 100 100 98 100 100 100 5 57 100 96 44 4 5 4 1 0 5 2 0 78 58 9 73 100 100 100 100 99 97 100 100 100 100 100 100 100
100 100 100 100 100 100 100 99 100 100 100 100 100 45 56 92 100 100 100 99 95 78 87 98 19 0 0 0 85 5 5 100 100 100 100 100 100 100 100 100 100 100 100 100
100 100 100 97 44 94 100 100 100 100 100 100 100 83 32 5 99 95 94 100 24 3 0 46 62 5 5 4 0 2 7 15 100 100 100 100 100 100 100 100 100 100 100 100
100 100 99 71 98 100 100 100 100 100 100 100 100 100 8 14 7 6 90 15 19 8 4 25 5 18 39 4 0 0 0 14 82 100 100 100 80 100 100 100 100 100 100 100
100 100 100 100 100 100 100 100 91 100 100 100 100 100 100 93 28 100 100 100 50 66 100 88 9 21 100 59 4 0 0 0 5 1 28 58 45 49 57 88 100 100 100 100
100 100 100 100 92 100 100 100 68 61 100 100 100 100 100 61 57 100 100 88 28 0 74 71 0 3 0 58 8 0 0 0 0 0 0 0 0 20 33 62 100 99 100 100
100 91 88 65 100 100 99 100 100 100 100 100 100 100 100 88 46 51 100 38 8 5 5 4 0 0 0 0 0 2 4 0 0 0 0 0 0 0 0 6 21 69 96 100
100 100 95 32 100 100 80 100 100 100 100 100 100 100 100 100 91 100 100 100 90 4 0 2 0 0 0 0 1 0 0 0 0 0 0 0 0 4 2 2 6 39 33 4
100 100 100 82 42 90 100 100 100 100 100 100 100 100 100 100 94 22 100 100 5 5 5 4 0 0 0 0 0 0 0 0 0 0 1 3 4 5 7 66 42 38 56 60
100 100 100 100 93 8 100 100 100 100 100 100 100 100 100 100 10 88 100 100 11 5 5 5 0 0 0 0 0 0 0 0 0 1 5 5 24 2 0 0 0 5 26 45
100 100 100 100 100 5 8 100 100 100 100 100 100 62 72 100 73 100 100 100 98 12 15 5 5 0 0 0 0 0 0 0 0 2 0 5 4 2 0 0 1 5 5 5
100 100 100 100 66 41 52 100 100 100 100 100 99 32 20 82 95 100 100 100 93 4 5 5 5 5 3 11 13 36 14 4 4 5 5 5 5 5 5 2 1 5 5 6
100 100 100 100 93 91 100 77 97 80 100 100 41 96 86 99 100 100 100 95 5 98 9 5 5 23 98 100 100 100 16 5 7 35 12 8 5 26 11 41 30 62 18 86
100 100 100 99 100 100 100 100 100 100 100 99 100 65 93 100 100 100 100 14 100 100 61 6 82 100 100 96 100 51 35 100 100 95 46 41 5 38 61 62 57 33 99 44
100 100 100 100 100 100 15 95 78 100 100 94 49 95 64 100 100 100 99 46 100 100 100 100 96 42 5 9 98 100 100 100 100 100 100 99 83 64 100 99 85 99 80 94
100 100 100 100 100 100 99 98 98 100 100 100 100 100 100 98 100 100 100 100 94 100 100 100 97 6 5 19 100 100 100 100 100 100 100 100 100 100 100 100 100 99 100 100

GFSCGP_prec_cloud_042.txt.gz
Cloud_Cover
100 100 4 22 100 96 83 88 66 5 63 49 23 4 0 0 0 18 54 5 4 5 5 69 49 100 100 100 100 100 100 100 100 100 100 100 100 94 100 100 100 100 100 80
80 97 98 91 24 72 87 16 80 5 96 87 67 10 0 0 0 10 16 77 15 67 20 100 72 100 100 100 100 100 100 100 100 100 100 100 100 100 100 100 100 100 100 100
99 81 9 40 3 70 51 62 39 5 64 53 24 25 0 0 0 3 49 75 43 6 100 18 100 98 100 100 100 100 100 100 100 100 100 100 100 100 84 92 100 100 26 97
93 56 5 5 8 5 27 12 14 80 5 8 4 21 11 0 2 5 10 0 2 5 5 5 30 52 92 100 100 100 100 100 100 100 100 100 100 100 99 91 100 94 100 100
70 52 5 5 100 80 53 5 5 100 94 10 5 16 5 0 0 5 18 3 2 0 1 3 3 69 100 100 100 100 100 100 100 98 5 13 93 9 99 10 10 100 99 100
100 22 5 54 69 88 38 92 100 100 100 100 7 5 5 3 2 0 3 20 71 2 5 1 5 16 100 100 100 100 46 15 6 16 78 10 5 5 19 87 100 100 100 78
100 79 6 5 62 81 100 35 56 100 100 88 11 4 95 4 17 0 5 4 85 1 5 95 38 5 9 100 94 26 68 15 5 15 5 11 88 89 97 100 100 100 100 100
10 6 5 87 5 100 46 57 32 100 50 97 50 5 97 5 6 5 5 0 4 72 2 44 17 6 9 67 40 33 100 100 11 2 6 9 10 62 54 83 80 61 100 100
14 6 76 15 75 55 39 4 99 100 100 5 17 5 8 5 6 37 3 42 0 58 99 98 47 25 16 4 5 5 4 5 99 78 94 86 100 100 81 98 100 100 100 100
88 8 99 100 81 5 5 47 90 27 7 5 38 8 89 10 16 51 0 5 0 0 0 1 2 76 15 5 3 2 5 90 76 66 88 97 99 100 100 100 100 100 100 95
96 75 67 49 3 5 6 35 98 18 15 46 99 66 44 86 5 14 22 10 18 6 5 0 7 45 0 53 72 47 39 43 43 100 100 100 100 100 100 100 100 100 100 100
66 22 25 31 99 36 5 61 100 100 70 76 98 100 22 79 5 4 5 4 58 100 94 13 3 1 0 1 59 5 100 100 80 38 100 100 100 100 100 100 100 100 100 100
77 24 64 94 89 72 5 28 92 100 100 91 100 100 100 76 74 28 4 56 82 62 98 6 47 0 0 1 5 0 20 98 29 36 94 100 100 100 100 100 100 100 100 100
99 56 63 26 100 96 93 100 100 100 77 45 19 100 100 100 99 35 5 5 4 5 70 14 95 35 2 0 0 0 0 3 4 58 100 100 100 100 100 100 100 100 100 100
100 99 97 58 100 76 95 98 100 100 68 10 100 100 100 99 93 99 5 93 56 30 26 36 100 9 44 14 4 0 0 4 1 7 96 100 100 100 100 100 100 100 100 100
100 83 100 5 79 100 91 91 99 96 100 55 76 81 100 100 75 57 100 100 60 100 65 90 21 92 75 94 40 0 0 16 2 5 16 100 100 100 100 100 100 100 100 100
100 100 100 33 97 100 100 25 68 100 100 100 99 100 100 100 100 100 100 100 100 100 35 98 9 0 0 0 0 0 0 20 79 97 100 100 100 100 100 100 100 100 100 100
91 48 100 95 90 97 8 100 100 71 36 100 100 100 100 100 100 86 52 86 100 100 100 100 92 4 4 5 2 0 0 0 28 100 100 100 100 100 100 98 86 52 12 48
1 95 100 100 93 86 1 100 100 100 88 100 100 100 100 100 100 100 100 100 68 100 100 100 92 15 5 4 0 0 0 0 0 5 40 54 70 97 90 15 5 18 92 65
78 99 100 100 100 100 81 85 100 100 98 100 100 100 100 100 100 100 84 100 100 100 100 100 100 17 0 4 5 2 0 0 0 0 0 16 1 0 1 5 5 41 0 0
100 100 100 100 100 95 100 96 100 100 66 99 100 100 100 98 70 69 29 93 100 16 99 100 100 60 5 3 5 5 5 5 1 2 0 0 0 3 4 2 3 5 5 5
100 100 100 100 100 100 100 100 100 39 95 100 100 100 41 90 88 57 95 99 99 91 84 100 100 26 5 6 5 5 8 5 4 5 1 0 0 4 5 5 4 5 5 30
79 100 100 100 100 100 100 98 67 52 100 100 100 18 5 29 96 98 100 100 100 88 100 100 100 92 100 100 100 3 5 5 5 4 5 5 4 5 5 5 5 5 8 6
51 100 100 100 100 100 100 100 100 100 100 100 100 94 9 86 21 97 99 100 100 100 100 100 100 100 100 100 100 94 12 14 8 8 5 5 5 22 33 67 62 5 5 5
100 100 100 100 100 100 100 100 100 100 100 100 100 100 96 29 92 100 100 100 100 100 100 100 100 100 100 100 100 100 100 100 100 58 8 5 12 7 86 100 100 69 50 36
38 100 100 100 100 100 100 100 100 100 100 100 100 83 84 100 100 96 87 90 100 100 100 100 100 100 100 100 100 100 100 100 82 96 76 86 92 100 100 99 100 100 100 100

GFSCGP_prec_cloud_048.txt.gz
Cloud_Cover
100 100 100 97 84 86 87 5 5 5 5 27 6 4 5 7 67 40 0 0 13 73 34 100 100 46 100 100 100 100 100 100 100 100 100 100 100 100 100 100 100 99 100 100
100 100 100 86 63 13 16 5 4 5 5 15 5 3 35 76 33 3 1 0 0 9 100 96 100 100 100 100 100 100 100 100 100 100 100 100 100 100 100 100 100 100 100 100
100 100 100 61 38 38 5 5 0 5 12 5 28 68 96 80 5 0 3 0 0 0 91 100 100 100 100 100 100 100 100 100 100 100 100 100 100 100 100 100 100 100 100 100
100 100 100 99 43 35 5 12 30 5 6 5 5 82 83 100 9 0 0 0 0 0 0 84 100 100 100 100 83 100 100 100 100 100 100 100 100 100 100 100 100 100 100 100
68 100 100 50 53 6 46 42 100 35 5 54 16 11 100 99 46 2 0 5 1 0 0 8 64 87 100 100 100 84 100 100 100 100 100 100 100 100 100 100 100 100 100 100
40 100 100 100 100 100 100 46 62 4 5 100 26 44 100 15 96 5 0 5 5 0 0 0 0 16 90 80 88 51 35 34 100 100 100 100 100 100 100 100 100 100 100 100
100 100 100 100 100 100 100 26 4 5 7 85 7 87 100 7 58 30 5 4 1 5 3 0 0 16 60 62 66 66 40 20 31 100 100 100 100 100 100 100 100 100 100 100
93 100 100 100 100 99 34 5 5 87 100 12 99 100 97 5 5 97 43 46 4 5 5 0 0 2 44 8 21 18 31 18 97 28 73 100 100 100 100 100 100 100 100 100
100 100 100 100 100 98 97 18 100 6 92 100 100 78 74 64 18 16 79 100 10 5 5 3 5 14 32 3 0 0 0 0 3 94 100 100 100 75 100 100 100 100 100 97
96 82 100 100 42 10 97 94 100 100 100 100 79 73 100 28 5 99 100 100 96 6 5 5 2 1 0 4 0 0 0 0 0 4 44 100 100 100 100 100 100 100 100 100
100 100 100 100 100 100 100 100 100 100 93 63 100 100 100 43 26 66 100 100 100 16 5 5 5 5 0 0 0 0 0 0 29 61 6 33 64 100 100 90 87 100 100 100
84 84 100 100 100 100 100 100 100 63 29 52 98 98 100 98 5 34 99 100 100 98 36 5 47 8 5 5 82 81 5 2 2 5 6 90 100 100 100 100 99 100 74 87
100 76 91 100 100 100 100 100 96 55 27 14 93 90 100 100 42 24 100 92 100 100 100 100 74 5 5 1 6 8 2 0 0 0 84 100 100 100 56 63 82 65 97 50
100 96 100 100 100 100 100 100 100 100 100 100 91 100 100 100 93 7 5 22 100 100 100 100 100 47 5 5 4 0 2 2 0 0 1 51 94 100 100 100 91 100 100 100
100 100 100 100 100 100 100 100 100 100 100 18 71 18 100 100 99 8 5 37 98 100 99 100 100 100 46 42 9 0 3 0 0 0 0 0 0 2 7 88 100 100 100 98
100 100 100 100 100 100 100 100 100 63 35 5 5 5 13 80 100 5 5 81 100 100 100 100 100 100 100 100 24 46 97 5 3 0 0 0 0 0 0 0 2 100 100 100
48 77 85 66 100 100 96 100 100 100 67 5 4 38 95 68 100 82 79 63 100 100 100 100 100 100 96 96 100 100 71 100 98 1 0 0 0 0 0 45 100 100 100 100
29 5 86 80 100 94 80 98 100 100 66 9 5 55 75 97 90 100 12 52 100 100 100 100 100 100 100 80 100 100 100 100 98 4 2 0 1 28 84 100 100 100 100 100
5 81 52 37 51 77 60 99 85 100 22 57 5 5 18 96 48 100 100 96 76 100 100 100 100 100 100 100 100 100 100 100 100 100 94 39 88 100 100 100 100 100 100 100
2 5 92 97 100 15 82 100 100 100 1 5 4 1 5 5 38 96 100 100 100 100 100 99 93 99 100 100 100 100 100 100 100 100 100 100 100 100 100 100 100 100 100 100
84 76 66 100 99 2 0 0 69 100 28 1 1 0 0 5 5 8 100 100 82 97 100 100 100 100 100 100 100 100 100 100 100 100 100 100 100 100 100 100 100 100 100 100
38 70 94 99 100 23 0 0 2 56 53 4 0 5 0 44 1 5 100 100 100 58 50 100 100 93 75 100 100 100 100 100 100 100 100 100 100 100 100 100 100 100 100 100
5 4 7 2 2 0 0 0 0 5 2 2 5 3 4 34 10 11 100 100 100 100 96 98 99 100 100 80 100 100 99 100 100 100 100 100 100 100 100 100 100 100 100 100
0 1 0 1 0 0 0 0 2 0 5 100 100 64 38 68 64 37 99 100 100 100 100 100 100 100 85 92 100 100 100 100 99 100 100 100 100 100 100 100 100 100 100 100
26 6 2 0 0 0 0 0 0 1 62 100 100 100 100 100 100 100 77 100 100 99 98 100 100 100 100 100 100 100 100 100 100 100 100 100 100 100 100 100 100 100 100 100
5 24 5 0 92 98 20 0 3 6 63 94 100 100 100 100 100 99 100 100 100 97 100 100 100 100 100 100 100 100 100 100 100 100 100 100 100 100 100 100 100 100 100 100

GFSCGP_prec_cloud_051.txt.gz
Cloud_Cover
94 24 97 14 22 88 100 19 26 5 5 11 21 4 5 5 5 5 0 0 0 12 22 22 94 79 100 93 100 100 100 100 100 100 100 100 100 100 100 100 100 100 100 100
91 100 100 5 4 100 100 89 5 5 18 30 5 12 5 5 5 5 3 0 0 0 47 55 100 61 85 78 100 100 100 100 100 100 100 100 100 100 100 100 100 100 100 100
100 100 100 78 5 100 100 100 8 5 79 45 12 7 5 18 5 20 1 0 0 0 14 99 84 87 32 74 99 100 100 100 100 100 100 100 100 100 100 100 100 100 100 100
100 100 100 98 5 91 100 97 5 52 5 49 33 83 5 5 5 4 5 0 0 0 0 8 77 72 57 15 76 100 100 100 100 100 100 100 100 100 100 100 100 100 100 100
100 100 100 96 90 14 100 6 20 59 5 15 13 100 100 5 5 2 1 0 5 5 0 0 0 0 18 53 44 92 100 100 100 100 100 100 100 100 100 100 100 100 100 100
100 100 100 100 84 37 100 71 6 5 5 100 16 96 100 80 0 21 1 0 0 2 0 0 0 0 1 54 100 96 96 100 100 100 100 100 100 100 100 100 100 100 100 100
100 100 100 100 100 100 100 100 100 12 5 100 71 84 100 100 34 4 5 5 4 5 5 0 0 11 15 98 100 100 98 43 67 91 100 100 100 100 100 100 100 100 100 100
100 100 100 100 100 100 100 99 56 39 5 90 74 98 100 100 100 8 5 5 1 5 5 3 0 0 6 74 100 100 98 60 26 30 26 97 100 100 100 100 100 100 100 100
100 100 100 100 100 100 94 47 99 36 5 52 100 100 100 100 100 100 11 4 5 0 16 5 0 0 0 1 5 31 18 20 36 20 4 8 59 100 100 100 100 100 100 100
100 100 100 100 100 64 100 100 79 6 5 28 90 100 100 100 100 100 98 5 4 0 4 5 2 0 3 2 3 3 0 0 0 1 0 0 16 73 54 95 100 100 100 99
100 100 100 100 100 100 100 100 20 5 5 73 76 100 100 100 100 78 86 5 43 6 3 4 4 4 5 5 5 5 0 0 0 0 0 0 0 2 51 100 83 100 98 99
100 100 100 100 100 99 9 29 10 5 4 8 100 100 100 100 100 100 23 35 50 100 5 4 5 33 5 5 5 5 5 0 2 2 0 1 2 4 67 83 23 46 98 92
100 100 100 100 100 100 80 88 94 45 23 73 100 100 100 100 100 93 80 100 100 100 93 56 70 82 100 7 5 5 5 5 3 1 3 1 2 81 100 100 98 96 37 8
100 100 100 100 100 100 100 100 100 100 100 100 100 100 100 100 100 100 16 5 31 21 100 100 100 100 100 84 55 5 5 5 5 4 0 0 0 1 49 96 100 91 95 100
100 100 100 100 100 100 100 100 30 32 61 72 41 8 40 100 100 100 100 96 87 97 91 100 100 100 100 99 92 33 5 5 5 5 5 5 0 0 0 2 74 98 91 100
93 100 100 100 100 100 100 100 100 66 46 74 65 91 72 97 100 100 100 100 26 91 100 100 100 100 100 100 100 100 53 6 5 5 5 5 5 5 0 0 0 0 0 6
96 98 99 100 100 100 100 100 100 100 100 85 8 100 100 100 100 100 100 100 99 77 100 100 100 100 100 100 100 100 88 100 58 33 98 26 5 11 6 31 5 5 3 29
100 100 100 100 100 95 100 100 100 100 100 100 100 100 100 36 53 100 100 100 100 95 76 100 95 100 100 100 100 100 100 47 98 39 99 100 97 67 27 48 46 72 98 100
100 100 100 100 100 77 100 100 100 100 100 100 99 28 32 21 5 21 81 99 100 99 77 54 100 100 100 100 100 100 100 100 100 100 63 84 65 100 100 100 100 100 100 100
30 41 40 98 99 100 100 100 100 100 100 100 100 100 100 69 20 95 100 100 100 100 100 100 100 100 100 100 79 100 100 100 100 100 100 99 52 100 100 100 100 100 100 100
100 100 100 100 94 93 55 72 68 68 60 11 5 5 5 5 5 66 50 100 100 100 100 100 100 100 100 100 100 100 100 100 100 100 100 100 100 100 100 100 100 100 100 100
48 74 69 100 91 99 99 10 4 5 5 5 0 0 0 0 3 93 80 31 100 100 100 100 100 87 100 100 100 100 100 100 100 100 100 100 100 100 100 100 100 100 100 100
51 5 4 2 2 0 0 0 0 0 0 0 0 0 0 0 0 5 100 6 89 100 100 100 100 100 98 100 100 100 100 100 100 100 100 100 100 100 100 100 100 100 100 100
2 5 2 0 0 0 0 0 0 0 0 0 0 0 0 0 1 5 100 98 85 90 99 96 99 100 100 100 100 100 100 100 100 100 100 100 100 100 100 100 100 100 100 100
0 1 0 0 0 0 0 4 20 0 2 2 2 5 12 54 98 90 100 100 100 100 99 99 100 100 100 100 100 100 100 100 100 100 100 100 100 100 100 100 100 100 100 100
0 0 0 5 53 98 70 6 91 92 5 2 5 59 14 88 100 100 100 100 100 100 100 100 100 100 100 100 100 100 100 100 100 100 100 100 100 100 100 100 100 100 100 100

GFSCGP_prec_cloud_054.txt.gz
Cloud_Cover
100 100 99 100 8 14 60 100 100 5 2 14 59 5 5 0 2 1 0 0 0 0 0 0 1 76 74 89 100 100 100 100 100 100 100 100 100 100 100 100 100 100 100 100
100 100 100 100 32 42 100 100 94 78 5 4 84 10 5 0 0 3 4 0 0 0 0 0 0 18 100 88 100 100 100 100 100 100 100 100 100 100 100 100 100 100 100 100
100 100 100 100 20 95 100 100 100 63 6 56 38 77 0 0 0 5 5 0 0 0 0 0 0 0 22 91 99 100 100 100 100 100 100 100 100 100 100 100 100 100 100 100
100 100 100 100 61 100 94 100 98 98 93 100 67 74 5 5 5 4 3 0 0 0 0 0 0 0 0 3 100 96 100 100 100 100 100 100 100 100 100 100 100 100 100 100
100 100 100 100 100 98 100 100 5 5 100 100 71 22 5 5 2 0 0 0 4 0 0 1 0 0 0 0 31 100 97 100 100 100 100 100 100 100 100 100 100 100 100 100
100 100 100 100 100 100 100 95 8 80 100 100 96 50 100 6 5 3 0 0 5 1 0 6 1 0 0 0 4 84 100 100 100 100 100 100 100 100 100 100 100 100 100 100
100 100 100 100 100 100 96 100 100 100 94 100 63 58 100 100 99 1 0 4 4 5 0 0 5 0 0 0 0 2 75 100 100 100 100 100 100 100 100 100 100 100 100 100
100 100 100 100 100 100 100 100 100 46 5 98 21 100 100 100 100 10 0 30 32 5 4 0 4 4 0 0 0 0 0 4 93 100 100 100 100 100 100 100 100 100 100 100
100 100 100 100 100 100 57 25 100 100 19 18 81 99 100 100 100 50 5 8 88 22 1 0 0 2 1 1 5 0 0 0 0 49 98 61 99 100 100 100 100 100 100 100
100 100 100 100 100 100 90 66 18 5 20 97 100 98 100 100 100 63 6 48 95 16 0 4 0 0 5 2 5 5 4 0 0 0 16 31 61 80 78 78 100 100 99 100
100 100 100 100 100 100 100 84 63 74 84 93 98 100 99 100 100 100 11 97 100 22 4 5 1 0 2 5 2 1 5 0 0 0 1 24 7 27 38 23 3 2 58 100
100 100 100 100 100 100 100 100 100 100 91 93 81 100 100 100 100 100 100 100 100 7 5 7 5 0 0 4 79 1 5 2 2 0 2 0 19 23 18 0 0 4 5 5
100 100 100 100 100 100 100 100 100 79 54 47 84 78 89 100 100 100 100 6 79 32 6 31 8 6 15 19 5 100 51 5 1 5 1 0 0 0 0 0 0 3 5 6
100 100 100 100 100 100 100 94 100 84 51 31 58 74 100 100 100 100 100 100 100 90 21 5 18 34 84 9 13 23 14 100 80 5 5 5 1 0 0 39 5 3 32 48
100 100 100 100 100 100 100 100 100 100 97 89 100 74 90 100 100 100 100 100 92 100 98 100 95 60 60 75 46 34 5 5 67 100 91 4 5 5 5 5 0 0 0 9
100 100 100 100 100 100 100 100 100 100 100 100 100 95 45 100 100 100 100 100 100 99 87 100 100 100 100 100 98 100 79 5 6 77 77 77 5 5 5 5 5 5 4 5
100 100 100 100 100 100 100 100 100 100 100 100 100 100 100 97 88 98 100 100 100 100 100 100 100 100 93 94 97 48 95 55 5 52 82 79 29 5 5 5 5 5 14 20
100 100 100 100 100 100 100 100 100 100 100 100 66 5 5 5 5 69 70 99 100 100 100 100 100 47 100 69 81 100 72 20 64 20 58 100 100 80 62 61 74 90 94 45
100 100 100 96 65 60 100 100 100 99 39 5 4 5 5 1 1 34 35 68 100 100 100 100 100 26 5 76 100 95 92 98 17 92 85 82 92 94 100 100 100 100 98 100
100 100 100 100 96 100 100 100 100 100 100 82 79 26 5 5 45 98 100 100 100 100 100 100 100 100 25 96 100 100 96 100 100 100 100 100 100 100 100 100 100 100 100 100
100 100 100 97 100 99 100 100 100 100 100 100 100 100 100 99 34 70 100 6 5 11 81 98 100 100 100 16 100 100 100 100 100 100 100 100 100 100 100 100 100 100 100 100
100 100 91 91 100 100 100 100 100 100 100 100 100 100 100 100 27 68 100 99 19 11 86 95 100 100 100 100 100 100 100 100 100 100 100 100 100 100 100 100 100 100 100 100
100 100 100 100 99 30 68 100 100 85 100 100 100 95 14 21 5 6 5 5 8 33 74 98 100 100 100 100 100 100 100 100 100 100 100 100 100 100 100 100 100 100 100 100
10 83 100 100 100 100 100 100 100 99 86 59 100 35 6 4 5 0 0 0 5 3 8 68 100 100 100 100 100 100 100 100 100 100 100 100 100 100 100 100 100 100 100 100
76 64 5 64 70 54 9 5 39 3 2 2 5 3 2 2 5 0 0 8 18 80 100 100 100 100 100 100 100 100 100 100 100 100 100 100 100 100 100 100 100 100 100 100
66 50 86 89 61 5 1 3 17 0 2 0 1 0 0 4 3 2 38 92 72 86 100 100 100 100 100 100 100 100 100 100 100 100 100 100 100 100 100 100 100 100 100 100

GFSCGP_prec_cloud_057.txt.gz
Cloud_Cover
100 100 100 100 100 100 100 100 96 99 99 5 5 1 7 2 5 0 0 5 0 0 0 0 0 0 2 100 100 100 100 100 100 100 100 100 100 100 100 100 100 100 100 100
99 94 100 100 100 100 100 84 5 91 86 5 5 2 0 4 5 2 5 5 0 0 0 0 0 0 0 81 100 100 100 100 100 100 100 100 100 100 100 100 100 100 100 100
100 100 100 100 100 98 99 78 9 99 95 96 8 5 0 0 0 0 0 5 5 0 0 0 0 0 0 35 71 100 100 100 100 100 100 100 100 100 100 100 100 100 100 100
100 100 100 100 100 100 94 100 88 100 100 50 70 91 5 1 3 5 0 1 3 0 0 0 0 0 0 0 88 99 100 100 100 100 100 100 100 100 100 100 100 100 100 100
100 100 100 100 100 100 81 100 100 100 100 98 100 100 21 5 5 5 1 2 5 0 0 0 0 0 0 0 32 81 100 100 100 100 100 100 100 100 100 100 100 100 100 100
100 100 100 100 100 100 100 83 100 94 100 100 100 100 100 7 37 43 1 4 3 0 0 0 0 0 0 0 4 81 85 100 100 100 100 100 100 100 100 100 100 100 100 100
100 100 100 100 100 100 100 100 100 100 100 100 100 100 100 31 16 98 25 2 5 5 0 1 0 0 0 0 0 7 98 90 100 100 100 100 100 100 100 100 100 100 100 100
100 100 100 100 100 100 100 100 100 100 100 100 100 100 100 100 39 52 100 53 4 7 7 11 18 0 0 0 0 0 1 38 100 100 100 100 100 100 100 100 100 100 100 100
100 100 100 100 100 100 100 100 100 100 100 100 100 100 100 100 100 100 100 73 5 5 33 61 100 0 0 0 0 0 0 0 22 100 100 100 100 100 100 100 100 100 100 100
100 100 100 100 100 100 100 100 100 100 100 100 100 100 100 100 100 100 100 97 12 46 92 100 100 11 0 0 0 0 0 0 0 6 99 98 72 100 100 100 100 100 100 100
100 100 100 100 100 100 100 100 100 100 100 100 100 100 100 100 100 100 100 98 84 5 4 100 100 32 0 0 0 0 0 0 0 0 3 51 85 93 100 95 81 91 100 100
100 100 100 100 100 100 100 100 100 100 100 100 100 100 100 100 100 100 100 100 18 4 4 74 100 40 0 1 1 0 0 0 5 2 0 0 0 2 54 9 0 6 10 26
100 100 100 100 100 100 100 100 100 100 100 100 100 100 100 95 100 100 100 100 44 5 8 9 84 100 2 2 0 0 0 0 0 77 100 6 0 0 0 0 0 1 0 0
100 100 100 100 100 100 100 100 100 100 100 100 100 100 100 80 100 100 100 76 51 5 55 5 5 69 100 2 5 5 4 1 0 0 6 98 64 2 5 0 0 0 0 2
100 100 100 100 100 100 100 100 100 100 100 100 100 100 100 100 100 96 100 100 100 74 67 5 97 100 92 4 5 69 64 4 4 0 2 1 3 100 100 7 3 3 5 4
100 100 100 100 100 100 100 100 100 100 100 100 100 100 100 96 82 99 100 100 100 100 100 99 100 100 9 5 5 5 98 69 10 5 31 3 0 5 64 5 5 8 5 5
100 100 100 100 100 100 100 100 100 100 100 100 100 100 100 74 27 99 100 100 100 100 100 100 99 70 10 5 40 100 100 84 23 5 12 37 5 5 3 1 77 29 57 85
100 100 100 100 100 100 100 100 100 100 100 100 100 100 99 76 50 100 91 85 100 100 100 100 100 100 5 5 60 100 100 99 8 5 5 5 45 46 82 40 6 90 100 100
100 100 100 100 100 100 100 100 100 100 100 100 95 87 96 85 92 100 68 100 100 100 100 100 72 100 97 59 19 6 11 5 5 5 61 100 57 84 97 78 97 96 100 100
100 100 100 96 81 87 100 100 100 100 100 100 100 100 100 100 100 100 100 100 100 98 65 92 97 100 100 100 100 100 100 100 11 5 5 9 50 45 54 100 92 96 97 100
98 91 100 100 100 100 100 94 100 100 100 100 100 100 100 100 100 100 100 100 100 38 6 7 93 100 100 100 100 100 100 100 30 89 55 80 52 100 100 100 85 41 87 100
97 100 100 100 100 88 92 100 100 100 100 100 87 83 100 100 100 100 84 53 8 5 5 5 5 16 95 100 100 100 100 94 100 100 100 100 100 80 100 100 100 100 100 100
100 77 100 100 100 100 100 100 100 100 100 100 100 66 7 11 12 14 68 21 5 4 0 0 5 32 98 100 100 100 100 100 100 100 100 100 100 100 100 100 100 100 100 100
100 100 99 100 100 100 100 100 100 100 100 100 99 92 14 5 5 17 5 5 5 5 45 23 12 60 100 48 100 100 100 100 100 100 100 100 100 100 100 100 100 100 100 100
100 100 100 99 100 100 100 72 100 100 100 100 100 99 5 5 34 100 99 6 34 82 95 99 98 100 90 59 100 100 100 100 100 100 100 100 100 100 100 100 100 100 100 100
100 100 84 96 62 100 100 100 100 100 100 100 100 74 58 33 6 23 81 96 98 100 100 100 100 91 100 94 100 100 100 100 100 100 100 100 100 100 100 100 100 100 100 100

GFSCGP_prec_cloud_060.txt.gz
Cloud_Cover
100 100 100 100 100 100 100 100 100 100 100 100 67 26 5 5 5 4 0 0 4 50 1 0 0 0 0 4 82 100 100 100 100 100 100 100 100 100 100 100 100 100 100 100
100 100 100 100 100 100 100 100 100 100 100 100 76 60 26 5 1 2 3 2 0 52 5 0 0 0 0 5 98 100 100 100 100 100 100 100 100 100 100 100 100 100 100 100
100 100 100 100 100 100 100 100 100 100 100 100 31 93 20 14 6 5 3 0 14 95 32 0 0 0 0 0 88 100 100 100 100 77 100 100 100 100 100 100 100 100 100 100
100 100 100 100 100 100 100 100 100 100 100 100 94 99 32 66 10 5 5 3 0 4 54 1 0 0 0 0 18 100 100 100 100 99 100 92 100 99 100 100 100 100 100 100
100 100 100 100 100 100 100 100 100 100 100 99 59 44 96 76 68 20 7 5 0 4 0 0 0 0 0 0 1 100 100 100 100 100 100 100 100 98 86 100 100 100 100 100
100 100 100 100 100 100 100 100 100 100 98 88 100 100 19 99 100 36 74 41 5 1 0 0 0 0 0 0 0 50 100 100 100 100 100 99 100 100 100 100 100 100 100 100
100 100 100 100 100 100 100 100 100 100 100 100 100 100 100 100 98 62 84 22 5 5 4 0 0 0 3 0 0 8 100 100 100 100 100 100 100 100 100 100 100 100 100 100
100 100 100 100 100 100 100 100 100 100 100 100 100 100 100 100 82 63 100 86 12 93 5 5 3 5 32 1 0 0 91 100 100 100 100 100 100 100 100 100 100 100 100 100
100 100 100 100 100 100 100 100 100 100 100 92 100 100 100 100 100 6 99 100 88 100 100 8 0 5 5 7 0 0 0 36 91 100 97 99 100 100 100 100 100 100 100 100
100 100 100 100 99 100 100 100 100 100 100 100 100 100 100 100 100 59 81 98 100 100 100 99 22 4 5 55 4 0 0 0 7 77 100 100 93 99 100 100 100 100 100 100
100 100 100 100 100 100 100 100 100 100 100 100 100 100 100 100 100 100 100 81 50 100 100 47 100 58 6 99 100 15 0 1 0 5 34 99 100 100 100 100 100 100 100 100
100 100 100 100 100 100 100 100 100 100 100 100 100 100 100 100 100 100 100 100 81 75 97 34 5 5 14 31 100 100 4 2 2 0 6 24 64 100 91 13 4 3 3 54
100 100 100 100 100 100 100 100 100 100 100 100 100 100 100 100 100 100 100 100 79 64 76 23 89 39 5 5 25 100 81 5 0 5 0 6 22 27 38 25 0 0 0 0
100 100 100 100 100 100 100 100 100 100 100 100 100 100 100 100 100 100 100 100 100 94 9 5 5 5 10 5 7 96 100 100 27 0 5 1 0 0 0 15 15 0 0 0
100 100 100 100 100 100 100 100 100 100 100 100 100 100 100 100 100 100 96 100 100 100 37 65 6 5 22 5 5 68 100 100 59 0 4 11 0 2 4 12 2 91 94 25
100 100 100 100 100 100 100 100 100 100 100 100 100 100 100 100 100 100 100 100 100 99 100 100 100 5 57 38 5 56 100 100 22 5 7 89 5 5 5 5 15 46 33 98
100 100 100 100 100 100 100 100 100 100 100 100 100 100 100 100 99 99 100 100 11 98 100 100 100 100 100 86 34 100 100 100 6 18 68 100 100 100 52 5 4 5 4 35
100 100 100 100 100 100 100 100 100 100 100 100 100 100 100 100 81 100 100 87 100 100 100 100 100 93 100 100 90 98 86 48 23 73 14 100 100 100 11 5 5 60 5 5
34 100 100 100 100 100 100 100 100 100 100 100 100 100 90 100 100 100 96 100 100 100 100 100 81 8 91 99 55 100 97 100 100 16 40 5 6 5 5 5 22 100 92 42
99 99 100 100 100 100 100 100 100 100 100 100 61 47 100 98 100 100 100 100 100 100 96 100 100 100 100 100 97 98 100 100 79 88 10 79 100 100 100 100 100 92 43 64
64 100 99 100 100 100 100 100 100 100 100 100 86 100 100 100 100 100 100 44 80 100 100 100 100 100 100 100 100 100 90 49 36 36 55 96 84 100 100 100 100 80 92 100
100 78 98 100 86 84 100 100 100 100 100 100 100 100 100 100 100 100 100 94 69 89 100 100 100 100 100 100 100 100 100 100 100 99 100 83 93 84 91 100 100 100 100 100
100 66 33 91 100 100 100 100 100 100 100 100 100 100 100 100 100 100 100 100 100 100 88 32 91 100 98 100 100 100 100 100 100 100 100 100 100 100 100 100 100 100 100 100
99 96 96 70 88 100 100 100 100 100 100 100 100 78 100 100 94 95 94 100 51 53 100 100 100 100 98 76 94 100 100 100 100 100 100 100 100 100 100 100 100 100 100 100
100 100 55 57 100 93 100 100 100 100 100 100 100 98 76 82 79 88 100 84 70 100 100 100 100 100 100 98 93 100 100 100 97 100 100 100 100 100 100 100 100 100 100 100
100 100 100 100 100 100 100 100 95 92 100 100 100 100 100 100 98 72 84 100 100 100 100 100 100 100 99 98 100 100 100 100 82 98 100 100 100 100 100 100 100 100 100 100

GFSCGP_prec_cloud_063.txt.gz
Cloud_Cover
1 57 38 100 100 100 100 100 58 100 27 100 100 100 100 99 16 2 93 60 1 0 0 0 0 0 0 0 0 92 100 100 100 100 100 100 100 100 100 100 100 100 100 100
26 100 100 100 100 100 100 95 62 100 100 100 100 89 100 100 52 5 0 0 1 0 1 0 0 0 0 0 0 57 100 100 100 100 100 98 100 100 100 100 100 100 100 100
96 66 100 100 100 100 100 100 100 100 100 100 100 78 95 100 99 8 5 0 0 0 0 0 0 0 5 0 0 1 99 100 100 100 100 100 100 100 100 100 100 100 100 100
88 55 100 100 100 100 69 100 100 100 100 100 100 100 81 94 72 32 6 5 3 4 0 0 0 0 14 0 0 0 100 100 100 100 100 100 100 100 100 100 100 100 100 100
98 88 100 100 100 100 99 100 100 100 100 100 100 78 92 56 70 86 38 5 5 5 1 0 0 0 0 0 6 0 87 100 100 100 100 99 100 100 100 100 100 100 100 100
66 63 100 100 100 100 100 100 100 100 100 100 100 100 31 100 100 84 100 97 5 5 5 3 0 0 0 0 16 2 26 100 100 100 100 100 79 99 83 100 100 100 100 100
54 66 99 100 100 100 100 100 100 100 98 100 100 100 100 82 96 81 69 77 11 5 5 58 5 0 0 2 28 19 9 97 100 100 89 100 100 84 19 95 58 85 100 100
100 97 100 100 100 100 100 100 100 100 100 100 100 100 100 85 85 100 100 100 30 5 5 6 18 5 0 0 10 0 7 5 100 100 95 84 100 100 96 100 99 99 100 100
100 100 100 100 100 100 100 100 100 100 100 100 100 100 100 100 100 95 58 100 93 14 12 52 100 100 5 0 0 0 5 4 86 100 100 87 100 100 100 100 100 100 100 100
100 100 100 100 100 100 100 100 100 100 100 100 100 100 100 100 99 100 100 100 100 100 100 100 100 100 25 5 1 2 8 100 19 100 100 94 100 100 99 38 100 100 100 100
100 100 100 100 100 100 100 100 100 100 99 100 100 100 100 100 100 100 100 100 100 61 99 100 100 100 82 64 5 1 7 100 85 8 76 100 100 100 100 86 0 76 100 100
100 100 100 100 100 100 100 100 100 100 100 100 100 100 100 100 100 100 100 100 100 68 58 56 48 100 100 76 73 20 50 98 100 99 5 24 100 100 100 100 100 82 5 4
100 100 100 100 100 100 100 100 100 100 100 100 100 100 100 100 100 100 100 100 95 65 100 100 74 24 92 84 54 49 81 6 83 92 13 18 18 57 99 100 100 100 100 51
100 100 100 100 100 100 100 100 100 100 100 100 88 100 100 100 100 100 100 100 91 74 100 98 100 58 85 97 58 74 99 75 7 20 8 30 70 7 1 64 100 100 100 100
100 100 100 100 100 100 100 100 100 100 100 100 100 100 100 100 100 100 100 100 95 100 100 100 94 67 38 7 83 90 80 99 60 43 100 100 100 88 3 0 14 100 100 100
100 100 100 100 100 100 100 100 100 100 100 100 100 100 100 100 100 100 100 100 100 14 96 100 100 100 96 68 8 35 30 100 76 94 76 100 100 100 23 18 42 18 80 100
100 100 100 100 100 100 100 100 100 100 100 100 100 100 100 100 100 100 90 93 99 78 88 100 100 100 100 53 82 8 5 5 14 58 97 100 100 84 76 9 7 26 89 92
100 100 100 100 100 100 100 100 100 100 100 100 100 100 100 100 100 100 100 92 98 70 100 100 100 100 100 100 90 96 56 18 35 20 25 100 100 93 90 26 6 54 13 44
100 100 100 100 100 100 100 100 100 100 100 100 100 100 100 100 100 100 100 100 98 89 100 100 100 100 100 100 100 63 5 6 10 43 34 100 100 100 91 94 97 100 71 74
2 100 100 100 100 100 100 100 100 100 100 100 99 98 100 59 100 100 100 78 98 100 100 98 100 100 100 25 37 8 5 60 36 56 93 100 100 99 62 54 100 92 64 16
33 43 99 100 100 100 100 100 100 100 90 100 100 100 100 100 100 100 41 31 100 100 100 100 100 100 100 100 100 95 84 52 97 100 100 100 100 100 100 100 94 89 91 97
100 99 100 88 77 100 100 100 100 70 100 100 100 100 100 100 100 100 100 100 100 100 100 100 100 100 100 100 100 100 100 100 100 99 98 100 100 100 100 100 100 100 100 100
100 93 92 18 78 100 100 100 100 100 100 100 100 100 100 100 100 100 100 100 100 100 100 100 100 100 100 100 100 100 100 100 100 100 100 100 100 100 100 100 100 100 100 100
92 98 71 78 88 63 100 100 100 100 100 100 100 100 100 100 100 100 100 100 100 100 100 100 100 100 100 100 100 100 100 100 100 100 100 100 100 100 100 100 100 100 100 100
93 100 78 89 100 98 100 100 100 100 100 100 100 100 100 100 100 100 100 100 100 100 100 100 100 100 100 100 100 100 100 94 84 83 98 100 100 100 100 100 100 100 100 100
100 100 100 100 100 100 100 100 100 100 100 100 100 100 100 100 100 100 100 100 99 96 95 100 100 96 88 89 90 89 83 88 100 84 94 92 89 100 100 100 100 100 100 100

GFSCGP_prec_cloud_066.txt.gz
Cloud_Cover
0 0 0 0 12 8 17 5 77 100 61 2 4 100 100 74 97 17 5 5 52 7 6 9 0 32 53 74 58 35 93 100 100 100 100 100 100 100 100 100 100 100 100 100
69 44 0 4 24 96 99 10 72 100 100 94 60 100 100 81 97 5 5 10 74 80 5 5 9 63 62 88 37 26 80 100 100 100 100 100 100 100 100 100 100 100 100 100
4 3 61 59 34 91 100 65 100 100 80 99 60 98 82 100 95 5 5 10 83 84 0 1 18 47 49 98 55 42 71 100 100 100 100 100 100 100 100 100 100 100 100 100
5 0 10 7 100 90 100 99 100 100 35 4 53 64 100 100 40 26 71 43 19 5 0 0 0 75 47 68 44 35 37 99 100 100 100 71 100 100 100 100 100 100 100 100
56 1 5 56 100 100 100 100 100 100 3 17 51 100 100 100 100 100 73 87 65 8 1 0 0 0 22 42 66 45 45 81 100 100 98 71 80 100 100 100 100 100 100 100
47 0 4 42 97 100 100 100 100 60 50 20 92 100 100 100 97 56 9 73 89 69 5 3 1 0 33 57 81 69 46 50 100 100 100 72 99 100 100 100 100 100 100 100
66 0 1 92 100 100 100 100 100 81 36 92 100 100 100 100 100 89 62 32 38 54 5 3 5 1 65 100 100 82 36 85 88 100 100 100 97 99 100 96 80 100 100 100
83 0 0 100 100 100 100 100 100 100 89 100 100 100 100 100 100 87 13 99 39 59 17 5 5 3 29 86 99 60 63 90 52 94 100 100 100 66 100 80 60 100 64 100
90 1 9 100 100 100 100 100 100 100 100 100 97 100 100 80 100 80 24 12 90 33 90 32 5 5 2 53 47 26 53 55 58 49 92 97 81 42 0 92 100 100 29 99
33 4 13 19 100 100 100 100 100 100 100 100 100 100 100 95 100 100 5 5 66 100 100 30 4 5 100 100 100 17 5 17 28 31 65 90 33 32 36 15 0 5 100 68
99 28 38 89 97 100 100 100 100 100 100 100 100 100 100 100 33 76 7 74 100 100 100 100 100 100 46 100 100 55 26 24 6 35 44 29 97 49 99 96 27 0 0 4
96 100 12 100 100 100 100 100 100 100 100 100 100 100 100 100 100 100 99 87 81 100 100 100 100 100 100 100 100 60 74 78 99 94 22 16 10 42 100 100 100 97 6 0
96 72 5 100 100 100 100 100 100 100 100 100 100 100 100 100 100 100 98 100 97 100 100 100 100 100 100 100 100 100 100 91 8 9 6 27 25 26 3 24 98 100 100 78
96 96 0 96 100 100 100 100 100 100 100 100 100 100 100 100 100 76 74 100 100 100 100 100 100 100 100 100 100 100 100 100 100 95 50 100 51 6 5 5 82 69 88 100
5 5 4 24 100 100 100 100 100 100 100 90 100 100 100 100 100 100 100 90 79 100 100 100 100 100 100 100 100 100 91 19 73 92 100 100 100 100 64 42 77 100 100 19
97 5 5 23 100 100 100 100 100 100 100 100 100 100 100 100 100 100 100 100 95 100 100 83 100 82 100 100 100 100 100 91 5 14 60 100 100 100 100 100 100 99 100 23
66 98 46 23 100 100 100 100 100 100 100 100 100 100 100 100 100 100 100 100 100 100 100 100 100 100 100 78 84 100 57 73 72 8 6 6 64 100 100 100 100 100 100 67
31 62 23 100 100 100 100 100 100 100 100 100 100 100 100 100 100 100 100 100 100 100 100 100 100 100 100 100 100 73 8 5 79 91 48 78 79 98 94 100 100 100 100 84
88 100 93 98 100 100 100 100 100 100 100 100 100 100 100 100 100 100 100 100 100 100 100 100 100 100 100 100 98 77 67 7 90 100 100 100 100 88 100 100 100 100 100 100
98 60 82 64 100 100 100 100 100 100 100 100 100 100 99 100 100 100 100 100 100 100 100 100 85 99 100 100 100 100 97 60 88 100 100 100 100 100 100 100 100 100 100 100
98 42 100 99 100 100 100 100 100 100 100 100 100 98 100 100 100 100 100 100 100 100 100 100 100 100 100 100 100 100 100 100 98 72 24 34 60 90 99 100 100 100 100 100
20 53 91 62 96 100 100 100 100 100 100 100 100 100 100 100 100 100 100 93 100 100 100 100 100 100 100 100 100 100 100 100 100 86 97 89 51 79 100 100 100 100 100 100
100 94 72 51 7 100 100 100 100 100 100 100 100 100 100 100 100 100 100 100 100 100 100 100 100 100 100 100 100 100 100 100 100 91 99 100 100 100 79 99 100 100 100 100
100 100 100 100 81 93 100 100 100 100 100 100 100 100 100 100 100 100 100 100 100 100 100 100 100 84 100 100 100 100 100 100 100 100 100 100 100 100 100 100 99 100 100 100
98 100 100 100 100 100 100 100 100 100 100 100 100 100 100 100 100 100 100 100 100 100 100 100 100 100 100 100 100 100 100 100 100 100 100 100 100 100 100 100 100 100 100 100
100 98 100 100 100 100 100 100 100 100 100 100 100 100 100 100 100 100 100 100 100 100 100 100 100 100 100 100 100 100 100 100 100 100 100 98 99 100 98 100 100 100 100 100

GFSCGP_prec_cloud_069.txt.gz
Cloud_Cover
100 100 100 11 5 0 0 2 0 0 5 17 65 60 100 1 3 100 100 70 8 99 5 5 42 43 61 43 49 100 100 100 100 100 100 100 100 100 100 100 100 100 100 100
100 100 83 6 15 35 3 0 3 100 89 16 14 62 100 0 91 100 100 100 82 18 5 51 78 100 99 100 64 100 100 100 100 100 100 100 100 100 100 100 100 100 100 100
100 100 40 41 5 3 0 0 11 100 100 66 39 98 46 4 96 100 100 100 83 6 0 99 100 100 100 100 100 72 95 100 100 100 100 100 100 100 100 100 100 100 100 100
100 100 91 4 5 5 4 3 15 94 30 5 0 95 0 40 91 80 81 62 13 0 4 88 100 100 100 100 73 34 87 100 100 99 100 100 100 100 100 100 100 100 100 100
100 32 5 0 2 20 58 16 99 100 67 96 0 6 89 4 99 100 34 100 100 100 5 95 39 96 100 100 98 75 100 100 64 92 100 100 100 100 100 100 100 100 100 100
29 5 3 0 0 38 5 81 100 100 71 84 1 76 100 100 100 100 100 100 100 100 86 5 80 98 100 100 100 100 100 72 19 38 98 100 97 100 100 98 100 100 100 100
31 7 4 0 6 100 7 100 100 100 100 44 11 100 100 100 100 100 100 100 100 100 100 70 28 82 100 100 100 100 100 97 32 56 87 20 10 76 100 100 100 100 100 100
98 7 0 0 8 100 6 100 100 97 98 25 76 100 100 100 99 61 6 16 100 100 100 7 5 82 88 100 100 100 100 100 78 32 66 26 10 17 91 100 100 100 100 98
15 11 3 4 43 82 66 100 100 100 100 48 100 100 100 100 79 36 18 39 100 100 100 58 29 82 59 92 100 100 100 92 100 43 18 42 17 7 2 21 100 100 100 100
48 8 10 66 100 78 96 100 100 100 100 99 100 100 100 100 78 74 87 47 97 100 100 89 92 95 57 68 100 100 100 97 100 99 24 22 42 73 0 0 46 100 85 94
59 99 78 100 100 78 100 100 100 100 100 100 100 100 100 100 73 40 100 14 73 100 100 100 92 88 38 100 100 100 100 100 100 100 100 86 34 83 8 0 0 4 8 37
99 100 100 100 100 85 100 100 100 100 100 100 100 100 100 99 29 79 100 63 74 100 100 57 99 78 26 59 35 100 100 100 99 100 100 100 34 28 90 18 0 0 0 2
100 100 100 100 100 44 94 100 100 100 100 100 100 100 100 100 100 61 98 100 100 100 100 100 100 71 100 100 100 77 98 100 100 98 99 100 62 46 33 47 98 100 95 75
74 89 100 100 100 100 100 100 100 100 100 100 100 100 100 100 98 100 100 100 100 100 100 100 100 100 100 100 100 100 100 100 100 100 100 100 100 88 99 79 28 8 16 82
48 18 100 100 100 46 100 100 100 100 100 100 100 100 100 100 100 100 99 99 100 100 100 100 100 100 100 100 100 100 100 100 100 100 100 100 100 100 100 100 100 99 98 80
100 99 100 100 97 65 82 77 100 100 100 100 100 100 100 100 100 100 100 100 100 100 100 100 100 100 100 100 100 100 100 100 100 100 100 100 100 100 100 100 100 100 100 100
100 100 100 100 100 14 64 28 100 100 100 100 100 100 100 100 100 100 100 100 100 100 100 100 100 100 100 100 100 100 100 100 100 99 85 38 61 100 100 100 100 100 100 100
100 100 100 92 31 5 5 94 90 100 100 100 100 100 100 100 100 100 100 100 100 100 100 100 100 100 100 100 100 100 100 100 100 100 100 96 100 80 48 52 85 100 100 100
100 100 89 84 28 5 5 86 100 99 100 100 100 100 100 100 100 100 100 100 100 100 100 100 100 100 100 100 100 100 100 100 100 100 100 100 100 100 100 100 100 100 100 100
100 100 94 96 97 5 7 5 100 100 100 100 100 100 100 100 100 100 100 100 100 100 100 100 100 100 100 100 97 72 100 98 99 93 61 96 100 100 100 100 100 100 100 100
100 97 97 100 92 5 73 5 100 100 100 100 100 100 100 100 100 100 100 100 100 100 100 100 100 100 100 100 100 100 100 100 23 8 60 100 100 100 100 100 100 100 100 100
100 100 100 100 100 86 100 12 96 100 100 100 100 100 100 100 100 100 100 100 100 100 100 100 100 100 100 100 100 100 95 73 53 38 17 15 53 93 94 100 68 100 100 100
98 100 100 100 96 84 100 80 62 100 100 100 100 100 100 100 100 100 100 100 100 100 100 100 100 100 100 100 100 100 77 62 66 75 99 93 92 100 100 100 100 100 78 100
100 100 100 100 100 100 100 99 68 100 100 100 100 100 100 100 100 100 100 100 100 100 100 100 100 100 100 100 100 100 100 100 100 100 97 98 100 100 100 100 100 100 99 77
100 99 100 100 100 100 100 100 92 100 100 100 100 100 100 100 100 100 98 100 100 100 100 100 100 100 100 100 100 100 100 100 100 100 100 90 75 98 99 100 100 100 100 100
100 100 100 100 100 100 100 100 100 100 100 100 100 100 100 100 100 100 100 100 100 100 100 100 100 100 100 100 100 100 100 98 92 98 98 100 100 100 86 97 100 100 100 100

GFSCGP_prec_cloud_072.txt.gz
Cloud_Cover
100 100 100 100 99 49 48 100 100 100 5 0 0 0 0 48 1 4 100 89 82 100 100 100 24 100 36 36 77 100 100 99 100 91 100 100 100 100 100 100 100 100 100 100
100 100 100 100 100 79 100 100 100 32 0 0 0 0 0 100 3 5 4 50 100 100 96 99 50 100 37 61 79 100 100 100 100 100 99 100 100 100 100 100 100 100 100 100
100 100 100 100 100 100 100 100 76 2 0 0 0 0 64 100 5 0 66 100 100 100 100 65 59 45 41 45 86 100 100 100 100 100 100 100 96 100 100 100 100 100 100 100
98 100 100 100 100 100 100 36 16 5 3 0 2 23 97 91 0 17 100 100 100 100 98 68 41 56 96 68 88 100 100 100 100 100 100 100 100 91 100 100 100 100 100 100
100 100 100 100 100 100 100 100 91 90 37 6 0 56 100 42 0 84 100 100 100 100 97 51 100 7 100 94 100 100 99 100 100 100 100 100 100 73 100 100 100 100 100 100
100 100 100 100 100 100 75 84 89 100 60 69 5 96 100 37 5 100 100 100 100 100 98 63 97 100 100 99 100 65 100 100 100 100 100 100 100 100 90 98 100 100 100 100
100 100 100 100 100 100 47 73 98 95 100 68 99 41 99 89 65 100 100 100 100 92 31 60 100 100 100 100 100 100 100 100 100 100 100 100 100 100 100 100 92 100 100 100
100 100 100 100 89 6 5 61 97 100 46 6 100 8 96 88 100 100 72 100 100 16 24 85 100 100 74 100 100 100 100 100 100 78 70 100 100 98 93 100 99 100 100 100
100 100 100 98 34 5 33 80 65 100 100 99 100 82 100 90 100 100 70 100 99 95 100 5 19 30 77 100 100 100 100 100 100 76 12 33 55 99 100 100 100 100 100 100
100 100 100 100 79 5 12 100 100 100 100 100 100 100 68 100 100 99 91 100 100 100 100 96 84 98 100 100 100 100 100 100 79 98 11 9 10 54 98 100 100 100 100 100
100 100 100 100 100 28 49 83 100 100 100 100 100 100 100 100 100 100 100 100 100 100 99 75 100 100 100 100 100 100 100 100 100 100 99 18 16 22 15 34 48 100 100 100
100 100 100 100 78 70 91 81 100 100 100 100 100 100 100 100 100 100 100 100 100 100 100 100 100 100 100 100 100 100 100 100 100 100 100 100 98 21 17 2 0 12 95 100
95 100 100 100 90 42 88 100 86 100 100 100 100 100 100 100 100 100 100 100 100 100 100 100 100 100 100 100 100 100 100 100 100 100 100 100 100 99 12 5 0 1 1 0
100 100 100 100 96 73 100 100 100 100 100 100 100 100 100 100 100 100 100 100 100 100 100 100 100 100 100 100 100 100 100 100 100 100 100 100 100 100 100 100 95 46 14 1
50 100 100 100 100 56 100 100 100 100 100 100 100 100 100 100 100 100 100 100 100 100 100 100 100 100 100 100 100 100 100 100 100 100 100 100 100 100 100 100 100 100 100 100
88 89 100 100 46 88 100 100 98 100 100 85 100 100 100 100 100 100 100 100 100 100 100 100 100 100 100 100 100 100 100 100 100 100 100 100 100 100 100 100 100 100 100 100
100 100 99 100 57 66 100 100 100 86 100 100 98 100 100 100 100 100 100 100 100 100 100 100 100 100 100 100 100 100 100 100 100 96 100 100 100 100 100 100 100 100 100 100
100 100 99 100 100 49 100 100 100 100 100 100 100 100 100 100 100 100 100 100 100 100 100 100 100 100 100 100 100 100 100 100 100 100 100 100 100 100 100 100 88 89 77 100
84 9 21 100 100 26 18 100 100 100 100 100 100 100 100 100 100 100 100 100 100 100 100 100 100 100 100 100 100 100 100 100 100 100 100 100 100 94 92 65 81 100 100 100
5 5 61 100 100 100 15 5 81 100 98 100 100 99 100 100 100 100 100 100 100 100 100 100 100 100 100 100 100 100 100 100 100 100 100 100 100 100 100 100 100 100 100 100
67 19 90 100 100 38 100 5 5 10 49 100 100 91 100 100 100 100 100 100 100 100 100 100 100 100 100 100 100 100 100 100 100 100 100 100 100 100 100 100 100 100 100 100
5 19 100 100 100 88 100 5 5 63 100 72 100 100 100 100 100 100 100 100 100 100 100 99 100 100 100 100 100 100 100 100 100 100 100 100 100 100 100 100 100 100 100 100
71 98 100 100 100 99 100 99 100 100 100 100 100 100 100 100 100 100 100 100 100 100 100 100 100 100 100 100 100 100 100 100 100 100 100 100 100 100 100 100 100 100 100 100
51 100 100 100 100 100 100 100 100 100 100 100 100 100 100 100 100 100 100 100 100 100 100 100 100 100 100 100 100 100 100 100 100 100 85 93 100 100 100 100 100 100 100 100
95 100 100 100 100 100 100 100 100 100 100 100 100 100 100 100 100 100 100 100 100 100 100 100 100 100 100 100 100 100 100 100 100 100 100 100 90 99 100 100 100 100 100 100
100 100 100 100 100 100 100 100 100 100 100 100 100 100 100 100 100 100 100 100 100 100 100 100 100 100 100 100 100 100 100 99 100 91 94 95 98 96 100 100 100 100 100 100

GFSCGP_prec_cloud_075.txt.gz
Cloud_Cover
100 100 100 100 100 100 100 100 100 100 100 97 8 0 95 100 5 0 0 0 1 100 100 5 78 100 73 26 86 100 100 100 100 100 100 100 100 100 100 100 100 100 100 100
100 100 100 100 100 66 100 100 100 99 99 12 57 16 99 91 2 0 0 5 70 61 85 18 100 100 77 25 87 100 90 90 97 50 61 100 100 100 100 100 100 100 100 100
100 100 100 100 100 100 100 100 100 95 100 90 15 14 100 36 0 0 3 3 94 7 100 100 100 100 64 83 69 97 76 100 74 100 100 100 100 100 100 100 100 100 100 100
100 100 100 100 100 100 100 100 96 100 100 100 3 17 100 29 0 61 1 0 68 100 100 91 82 69 97 99 91 70 95 100 100 100 100 100 100 100 100 100 100 100 100 100
100 100 100 100 100 100 100 100 100 100 96 79 98 44 98 0 48 88 3 5 100 100 100 100 78 100 99 56 79 100 100 97 100 100 100 100 100 88 100 100 100 100 100 100
100 100 100 100 100 100 100 100 100 95 60 99 100 22 5 17 16 65 4 11 100 98 100 88 62 100 100 98 100 100 100 99 100 100 79 100 100 100 88 100 100 100 100 100
100 100 100 100 100 100 100 100 100 99 96 66 94 7 2 16 35 77 3 96 100 15 62 100 100 94 100 100 100 100 100 100 100 100 98 100 100 100 100 100 100 100 100 100
100 100 100 100 100 100 100 100 100 91 84 69 34 7 0 13 41 13 5 96 100 57 87 100 100 94 100 100 100 100 100 100 100 100 100 100 100 100 100 100 100 100 100 100
100 100 100 100 100 100 100 100 51 99 19 100 60 4 4 74 75 77 28 100 100 100 100 100 100 80 100 100 100 100 100 100 100 100 100 77 100 100 100 100 100 98 100 100
100 100 100 100 100 100 100 100 100 100 68 67 52 9 70 100 100 43 99 100 100 100 100 100 100 96 100 100 100 100 100 63 98 100 96 56 24 97 100 100 100 100 100 100
100 100 100 100 100 100 100 100 100 100 81 91 88 99 100 100 94 92 100 100 100 100 100 100 100 100 100 100 100 100 100 86 66 100 100 77 66 54 64 99 100 100 100 100
84 100 100 100 100 100 100 100 99 100 100 100 99 34 100 100 100 100 100 100 100 100 100 100 100 100 100 100 100 100 100 100 99 100 100 100 99 95 91 73 50 78 100 100
94 100 100 100 100 100 100 100 99 100 100 100 94 100 100 100 100 100 100 100 100 100 100 100 100 100 100 100 100 100 100 100 100 100 100 100 100 100 100 82 61 46 41 66
77 33 100 100 100 100 100 100 54 93 100 100 100 100 100 100 100 100 100 100 100 100 100 100 100 100 100 100 100 100 100 100 100 100 100 100 100 100 100 91 71 64 50 53
86 18 100 100 100 100 100 100 66 100 100 97 94 100 100 100 100 100 100 100 100 100 100 100 100 100 100 100 100 100 100 100 100 100 100 100 100 100 100 100 100 98 89 51
100 48 100 100 100 30 99 99 14 100 100 100 100 100 100 100 100 100 100 100 100 100 100 100 100 100 100 100 100 100 100 100 100 100 100 100 100 100 100 100 100 100 100 100
100 100 100 100 94 29 41 100 99 100 100 100 100 100 100 100 100 100 100 100 100 100 100 100 100 100 100 100 100 100 100 100 100 100 100 100 100 100 100 100 100 100 100 100
100 100 100 99 99 18 78 30 100 100 100 100 100 100 100 100 100 100 100 100 100 100 100 100 100 100 100 100 100 100 100 100 100 100 100 100 100 99 100 100 100 100 100 100
100 100 19 1 5 0 100 76 100 100 100 100 99 100 100 100 100 100 100 100 100 100 100 100 100 100 100 100 100 100 100 100 100 95 98 100 100 100 100 100 100 100 100 100
100 100 37 76 5 5 89 100 100 100 100 100 100 100 100 100 100 100 100 100 100 100 100 100 100 100 100 100 100 100 100 100 100 100 100 100 100 100 100 100 100 100 100 100
100 60 59 71 45 5 99 82 100 100 100 100 100 100 100 100 100 100 100 100 100 100 100 100 100 100 100 100 100 100 100 100 100 100 100 100 100 100 100 100 100 100 100 100
100 89 65 96 95 35 100 39 100 100 100 100 100 100 100 100 100 100 100 100 100 100 100 100 100 100 100 100 100 100 100 100 100 100 100 100 100 100 100 100 100 100 100 100
58 56 22 7 10 62 100 91 100 100 100 100 100 100 100 100 100 100 100 100 100 100 100 100 100 100 100 100 100 100 100 100 100 100 100 100 100 100 100 100 100 100 100 100
54 97 100 100 100 100 100 100 100 100 100 100 100 100 100 100 100 100 100 100 100 100 100 100 100 100 100 100 100 100 100 100 100 100 100 100 100 100 100 100 100 100 100 100
99 100 100 100 100 100 100 100 100 100 100 100 100 100 100 100 100 100 100 100 100 100 100 100 100 100 100 100 100 100 100 100 100 100 100 100 100 100 100 100 100 100 100 100
100 100 100 100 100 100 100 100 100 100 100 100 100 100 100 100 100 100 100 100 100 100 100 100 100 100 100 100 100 100 100 100 100 100 100 100 100 100 98 99 100 100 100 100

GFSCGP_prec_cloud_078.txt.gz
Cloud_Cover
100 100 100 100 100 100 100 100 100 100 100 100 100 100 100 100 100 96 5 5 66 65 0 0 0 0 3 32 100 99 76 100 95 97 100 100 100 100 100 100 100 100 100 100
100 100 100 100 100 100 100 100 100 100 100 100 100 100 100 100 100 13 26 80 21 0 0 42 13 63 5 84 97 66 47 100 100 80 100 100 100 100 100 93 100 82 94 82
77 100 100 100 100 100 100 100 100 100 100 100 100 100 100 100 79 6 13 96 0 0 0 95 23 27 6 100 87 49 33 100 58 78 99 97 85 100 99 95 100 100 100 96
81 100 100 100 100 100 100 100 100 100 100 100 94 80 100 100 77 33 2 1 0 0 4 53 5 5 100 100 99 86 100 82 42 42 44 39 51 100 75 100 100 100 100 100
98 100 100 100 100 100 100 100 100 100 100 99 100 46 100 100 99 2 4 2 0 0 5 5 41 8 100 100 100 100 100 94 33 36 8 20 86 100 76 98 100 100 100 100
100 100 100 100 100 100 100 100 100 100 100 100 100 96 69 100 100 8 5 0 0 0 51 30 20 78 95 100 100 100 95 95 39 45 35 47 50 100 95 100 100 100 100 100
100 100 100 100 100 100 100 100 100 100 100 100 100 99 100 100 96 5 3 0 0 3 95 65 74 99 100 100 100 100 70 100 99 32 27 35 68 68 97 73 100 100 100 100
100 100 100 100 100 100 100 100 100 100 100 100 100 100 100 78 4 0 3 0 2 4 89 100 21 100 100 100 100 100 70 100 100 44 15 80 42 66 100 100 100 100 100 100
86 100 100 100 100 100 100 100 100 100 100 100 100 100 58 48 6 0 0 0 5 5 74 100 63 100 100 100 100 100 100 100 100 99 33 63 74 80 100 100 100 100 100 100
14 20 81 100 100 100 100 100 100 100 100 100 100 99 100 83 71 18 25 46 88 98 88 77 84 100 100 100 100 100 100 100 100 100 78 100 100 78 98 100 100 100 100 100
1 12 63 100 100 100 100 100 100 100 100 100 95 97 100 100 87 100 98 95 100 100 100 80 100 100 100 100 100 100 100 100 100 100 100 100 100 88 100 100 99 86 100 100
46 65 5 100 100 100 100 100 100 100 100 100 95 85 100 100 100 100 100 100 100 100 100 100 100 100 100 100 100 100 100 100 77 100 100 100 100 97 100 100 100 100 100 100
100 47 8 62 100 100 100 100 100 100 100 100 100 99 100 100 100 100 100 100 100 100 100 100 100 100 100 100 100 100 100 100 100 100 100 100 100 98 100 75 96 100 100 100
100 100 12 68 99 100 100 100 100 100 100 100 43 82 100 100 100 100 100 100 100 100 100 100 100 100 100 100 100 100 100 100 100 100 100 100 100 100 100 100 60 73 98 100
100 100 95 75 72 100 100 100 100 100 100 100 91 100 69 69 100 100 100 100 100 100 100 100 100 100 100 100 100 100 100 100 100 100 100 100 100 100 100 100 100 100 99 98
100 100 100 97 88 100 100 100 100 100 100 100 98 100 95 62 100 100 100 100 100 100 100 100 100 100 100 100 100 100 100 100 100 100 100 100 100 100 100 100 100 100 100 100
100 100 98 100 100 100 100 95 97 100 100 100 92 100 100 100 100 100 100 100 100 100 100 100 100 100 100 100 100 100 100 100 100 100 100 100 100 100 100 100 100 100 100 100
100 100 100 100 100 76 39 100 49 93 100 100 95 100 100 100 100 100 100 100 100 100 100 100 100 100 100 100 100 100 100 100 100 100 100 100 100 100 100 100 100 100 100 100
100 100 100 100 95 61 6 87 100 83 100 88 100 85 100 100 100 100 100 100 100 100 100 100 100 100 100 100 100 100 100 100 100 100 100 100 100 100 100 100 100 100 100 100
100 100 100 100 70 91 74 35 100 50 38 76 98 100 100 100 100 100 100 100 100 100 100 100 100 100 100 100 100 100 100 100 100 100 100 100 100 100 100 100 100 100 100 100
100 100 100 99 98 89 5 78 58 100 56 57 89 100 100 100 100 100 100 100 100 100 100 100 100 100 100 100 100 100 100 100 100 100 100 100 100 100 100 100 100 100 100 100
100 100 68 100 96 77 6 21 17 82 99 94 99 100 100 100 100 100 100 100 100 100 100 100 100 100 100 100 100 100 100 100 100 100 100 100 100 100 100 100 100 100 100 100
100 100 100 98 100 100 100 96 100 100 100 100 100 100 100 100 100 100 100 100 100 100 100 100 100 100 100 100 100 100 100 100 100 100 100 100 100 100 100 100 100 100 100 100
80 100 93 88 100 100 100 100 100 100 100 100 100 100 100 100 100 100 100 100 100 100 100 100 100 100 100 100 100 100 100 100 100 100 100 100 100 100 100 100 100 100 100 100
79 40 98 100 100 100 100 100 100 100 100 100 100 100 100 100 100 100 100 100 100 100 100 100 100 100 100 100 100 100 100 100 100 100 100 100 100 100 100 100 100 100 100 100
98 100 100 100 100 100 100 100 100 100 100 100 100 100 100 100 100 100 100 100 100 100 100 100 100 100 100 100 100 100 100 100 100 100 100 100 100 100 100 100 100 100 100 100

GFSCGP_prec_cloud_081.txt.gz
Cloud_Cover
0 0 2 100 84 100 100 92 100 100 100 77 100 54 100 100 100 100 100 100 100 100 100 100 9 0 0 0 0 0 20 27 17 1 53 100 94 100 100 97 99 85 89 74
2 0 5 24 100 100 100 100 100 99 99 40 100 94 100 100 100 100 100 100 100 100 100 97 4 0 0 0 0 0 26 40 9 34 91 100 70 49 57 92 89 92 64 94
5 50 46 92 100 100 100 100 100 100 100 100 100 75 100 100 100 100 100 100 100 80 85 11 2 0 0 2 0 0 54 99 7 78 100 100 41 70 95 100 74 99 55 71
5 95 42 100 99 100 100 100 100 100 100 100 100 100 100 100 100 100 100 100 100 20 75 2 0 0 5 0 0 4 100 40 31 98 100 86 92 63 76 72 58 46 100 100
7 100 100 100 100 100 100 100 100 100 100 100 100 100 100 100 100 100 100 100 84 100 4 0 0 0 5 0 0 99 100 89 100 100 100 31 5 86 64 91 64 100 98 100
4 43 100 100 100 100 100 100 100 100 100 100 100 100 100 100 100 100 100 100 93 25 2 1 0 0 0 0 27 100 93 100 100 100 35 6 13 53 67 100 88 100 100 100
92 99 100 100 100 100 100 100 100 100 100 100 100 100 100 100 100 100 100 100 76 37 3 2 1 5 0 39 96 100 100 100 100 100 16 5 10 97 23 72 74 100 100 100
9 87 92 100 100 100 100 100 100 100 100 100 100 100 100 100 100 100 100 100 100 100 93 6 4 2 1 94 100 100 100 100 100 87 6 4 8 100 100 100 89 100 100 100
98 100 30 100 100 100 100 100 100 100 100 100 100 100 100 100 100 100 100 100 85 58 6 0 4 0 98 97 100 100 100 100 100 61 16 8 52 100 100 71 36 100 100 100
4 61 99 97 100 100 100 100 100 100 100 100 100 100 100 100 100 100 100 100 88 87 36 9 12 35 100 93 100 100 100 100 100 65 38 36 89 98 81 80 94 100 100 100
93 100 54 100 85 100 100 100 100 100 100 100 100 100 100 100 100 100 100 87 96 100 100 95 93 100 94 100 100 100 100 100 100 95 67 100 100 100 84 84 81 100 100 100
96 37 100 100 98 100 100 100 100 100 100 100 100 100 100 100 100 100 100 87 84 100 100 100 100 100 100 100 100 100 100 100 100 100 98 100 100 100 88 100 100 77 100 100
69 16 96 100 90 98 84 100 100 100 100 100 100 100 100 100 100 96 100 48 74 100 100 100 100 100 100 100 100 100 100 100 100 100 100 100 100 97 20 78 56 84 100 100
84 19 86 70 100 86 100 100 100 100 100 100 100 100 100 100 100 98 53 85 100 100 100 100 100 100 100 100 100 100 100 100 100 100 100 100 100 100 99 100 100 100 100 100
41 81 71 61 46 90 15 98 100 100 100 100 100 100 100 100 100 72 100 100 98 100 100 100 100 100 100 100 100 100 100 100 100 100 100 100 100 100 99 85 70 100 100 100
81 39 100 6 72 97 5 100 100 100 100 100 100 100 100 99 98 100 97 100 100 100 100 100 100 100 100 100 100 100 100 100 100 100 100 100 100 100 100 100 100 100 100 100
87 88 100 17 100 98 18 100 96 100 100 100 100 99 46 100 60 100 100 100 100 100 100 100 100 100 100 100 100 100 100 100 100 100 100 100 100 100 100 100 100 100 100 100
75 79 100 100 100 98 32 100 100 100 100 100 100 100 100 100 100 100 100 100 100 100 100 100 100 100 100 100 100 100 100 100 100 100 100 100 100 100 100 100 100 100 100 100
90 100 100 100 100 49 100 100 100 100 100 100 100 100 100 96 100 100 100 100 100 100 100 100 100 100 100 100 100 100 100 100 100 100 100 100 100 100 100 100 100 100 100 100
100 100 100 100 100 100 100 100 95 100 57 100 100 100 100 100 100 100 100 100 100 100 100 100 100 100 100 100 100 100 100 100 100 100 100 100 100 100 100 100 100 100 100 100
100 100 100 100 100 78 83 100 99 5 97 100 100 100 100 94 100 100 100 100 100 100 100 100 100 100 100 100 100 100 100 100 100 100 100 100 100 100 100 100 100 100 100 100
100 100 100 100 93 65 28 35 81 100 100 100 100 100 100 100 100 100 100 100 100 100 100 100 100 100 100 100 100 100 100 100 100 100 100 100 100 100 100 100 100 100 100 100
100 100 100 100 100 100 100 99 100 100 100 100 100 100 100 100 100 100 100 100 100 100 100 100 100 100 100 100 100 100 100 100 100 100 100 100 100 100 100 100 100 100 100 100
100 100 100 100 100 100 100 100 100 100 100 100 97 100 100 98 98 100 100 100 100 100 100 100 100 100 100 100 100 100 100 100 100 100 100 100 100 100 100 100 100 100 100 100
99 99 100 100 100 100 100 100 100 100 100 100 100 100 100 100 100 100 100 100 100 100 100 100 100 100 100 100 100 100 100 100 100 100 100 100 100 100 100 100 100 100 100 100
98 100 100 100 100 98 100 100 100 100 100 100 100 100 100 100 100 100 100 100 100 100 100 100 100 100 100 100 100 100 100 100 100 100 100 100 100 100 100 100 100 100 100 100

GFSCGP_prec_cloud_087.txt.gz
Cloud_Cover
5 11 57 92 100 45 5 5 5 0 0 5 5 1 0 37 98 72 95 87 55 49 96 100 100 35 100 100 100 100 100 100 100 100 88 91 100 100 80 32 0 0 8 27
82 99 100 56 6 2 5 49 2 0 0 4 0 0 0 5 83 26 100 100 100 98 96 70 83 100 100 100 100 100 100 100 100 92 52 100 95 100 50 20 2 0 9 30
98 98 11 12 29 66 5 2 0 3 0 0 2 0 0 16 100 100 100 100 100 23 100 98 100 100 100 100 100 100 100 93 100 32 85 46 3 19 39 16 2 14 36 18
18 6 15 86 99 99 5 3 0 0 0 0 1 1 5 89 89 100 100 100 100 90 100 100 100 100 100 100 100 100 100 100 100 100 54 29 27 76 33 0 6 16 23 30
6 19 5 5 5 0 0 0 0 0 0 0 47 11 96 85 61 100 100 83 77 50 98 93 100 98 100 100 100 100 100 58 8 5 5 5 5 95 25 5 97 23 33 50
88 6 2 0 0 0 0 0 4 0 0 2 36 73 100 88 34 97 62 100 100 57 90 100 95 100 100 87 18 100 100 100 73 2 1 78 50 45 9 5 22 46 95 91
8 10 5 1 0 0 0 0 4 2 2 32 4 100 100 100 100 100 98 100 100 100 100 100 100 100 100 100 100 100 100 65 2 4 3 62 82 74 6 5 39 93 100 100
60 2 0 1 3 3 5 1 4 5 5 34 36 100 100 100 100 100 100 100 100 100 100 100 100 100 91 42 93 22 4 15 48 6 60 31 5 94 24 35 5 68 73 96
3 0 0 5 1 1 0 4 0 40 10 57 100 100 100 100 100 100 100 100 100 100 100 100 100 100 100 89 84 49 100 58 24 100 75 100 88 100 99 5 8 44 93 100
79 4 4 58 70 19 3 14 4 28 83 100 100 100 100 100 100 100 100 100 100 100 100 100 100 100 100 94 100 100 100 100 96 100 94 100 100 100 82 26 100 90 70 100
60 46 1 3 91 13 37 9 0 2 43 99 100 100 100 100 100 100 100 100 100 100 100 100 100 100 100 100 100 100 100 100 100 85 100 100 100 100 100 100 100 49 48 96
5 0 0 0 7 46 8 78 97 43 98 100 100 100 100 100 100 100 100 100 100 100 100 100 100 100 100 100 100 100 100 100 100 100 100 100 100 100 100 100 100 100 100 100
0 0 5 0 0 2 9 49 99 100 99 100 100 100 100 100 100 100 100 100 100 100 100 100 100 100 100 100 100 100 100 100 100 100 100 100 100 100 100 100 100 100 100 100
3 0 2 48 1 71 98 100 100 96 100 99 79 100 100 100 100 100 100 100 100 100 100 100 100 100 100 100 100 100 100 100 100 100 100 100 100 100 100 100 100 100 100 100
69 7 20 5 1 60 100 76 100 96 100 100 100 100 100 100 100 100 100 100 100 100 100 100 100 100 100 100 100 100 100 100 100 100 100 100 100 100 100 100 100 100 100 100
5 5 5 5 0 4 97 5 41 100 97 100 100 100 100 100 100 100 100 100 100 100 100 100 100 100 100 100 100 100 100 100 100 100 100 100 100 100 100 100 100 100 100 100
0 5 91 84 100 87 57 95 100 100 100 50 100 100 100 100 100 100 100 100 100 100 100 100 100 100 100 100 100 100 100 100 100 100 100 100 100 100 100 100 100 100 100 100
22 23 100 89 100 55 85 100 100 100 100 100 100 100 100 100 100 100 100 100 100 100 100 100 100 100 100 100 100 100 100 100 100 100 100 100 100 100 100 100 100 100 100 100
100 99 100 64 100 3 88 100 100 100 100 100 100 100 100 100 100 100 100 100 100 100 100 100 100 100 100 100 100 100 100 100 100 100 100 100 100 100 100 100 100 100 100 100
6 78 53 100 100 100 100 100 100 100 100 100 100 100 100 100 100 100 100 100 100 100 100 100 100 100 100 100 100 100 100 100 100 100 100 100 100 100 100 100 100 100 100 100
39 100 100 100 100 100 100 100 99 98 100 100 100 100 100 100 100 100 100 100 100 100 100 100 100 100 100 100 100 100 100 100 100 100 100 100 100 100 100 100 100 100 100 100
100 100 100 100 100 100 100 100 100 100 100 100 100 99 100 100 100 100 100 100 100 100 100 100 100 100 100 100 100 100 100 100 100 100 100 100 100 100 100 100 100 100 100 100
100 100 100 100 100 100 100 100 100 100 100 100 100 100 100 100 88 100 100 100 100 100 100 97 100 100 100 100 100 100 100 100 100 100 100 100 100 100 100 100 100 100 100 100
100 100 100 100 100 100 100 100 100 100 100 100 100 100 100 100 100 98 100 100 100 100 100 100 100 91 100 100 100 100 100 100 100 100 100 100 100 100 100 100 100 100 100 100
100 100 100 100 100 100 100 100 100 100 100 100 100 100 100 99 96 96 100 100 100 100 100 100 100 100 100 100 100 100 100 100 100 100 100 100 100 100 100 100 100 100 100 100
100 100 100 100 100 100 100 100 100 100 100 99 97 86 86 60 76 62 100 100 100 100 100 100 100 100 100 100 100 100 100 100 100 100 100 100 100 100 100 100 100 100 100 100

GFSCGP_prec_cloud_090.txt.gz
Cloud_Cover
100 100 100 100 5 7 5 12 60 56 100 5 7 0 0 0 0 0 0 5 1 4 96 71 34 98 32 98 100 5 5 78 100 100 100 100 100 97 100 100 69 5 5 4
100 100 25 5 4 4 31 81 94 15 5 5 0 0 0 0 0 0 0 0 35 92 10 100 100 99 98 98 99 21 90 100 100 100 100 100 89 21 78 65 76 6 8 16
46 99 96 13 6 91 100 100 97 100 18 3 0 0 0 0 0 0 0 24 51 99 70 100 100 100 99 31 8 45 100 100 86 41 100 100 15 47 67 98 50 22 7 22
17 100 43 13 98 100 100 100 100 28 5 0 0 1 0 0 1 1 4 0 87 100 100 83 91 9 10 1 10 100 100 100 71 100 100 54 17 96 97 89 67 15 13 45
100 61 5 100 100 100 100 100 100 98 3 0 0 0 0 0 36 8 80 100 100 100 92 100 49 5 100 10 96 100 100 100 100 90 99 100 100 100 70 60 53 16 28 42
100 80 100 100 100 100 100 94 8 3 0 0 0 0 12 21 98 100 78 68 100 100 100 100 100 7 26 100 100 52 100 100 100 100 100 63 100 100 69 94 44 70 67 69
100 100 100 100 88 100 89 26 5 4 0 0 0 2 19 90 100 100 100 100 100 100 100 100 100 100 100 100 100 100 100 100 100 100 77 74 48 25 68 82 34 100 100 100
100 100 100 100 72 52 8 90 65 5 0 0 0 0 3 81 100 100 100 100 100 100 100 100 100 100 100 100 100 100 100 100 100 100 100 100 99 32 94 63 38 100 76 71
100 100 100 100 99 9 6 7 48 61 3 18 3 15 91 100 100 100 100 100 100 100 100 100 100 100 100 100 100 94 100 100 100 100 100 100 54 23 100 22 21 75 100 100
76 62 84 81 5 5 21 92 100 95 31 25 2 7 100 100 100 100 100 100 100 100 100 100 100 100 100 100 100 100 100 100 100 100 100 100 56 95 89 5 41 100 100 100
100 9 0 13 97 99 99 70 100 9 27 73 44 13 100 100 100 100 100 100 100 100 100 100 100 100 100 100 100 100 100 100 100 100 100 97 51 46 29 66 99 100 100 83
70 1 3 6 99 97 96 83 90 100 41 53 5 62 100 100 100 100 100 100 100 100 100 100 100 100 100 100 100 100 100 100 100 100 100 100 100 100 100 79 100 100 100 100
5 10 5 2 35 96 15 60 100 100 100 91 100 100 100 100 100 100 100 100 100 100 100 100 100 100 100 100 100 100 100 100 100 100 100 100 100 100 100 100 100 100 100 100
93 100 12 5 2 1 1 25 100 100 99 76 49 100 100 100 100 100 100 100 89 100 100 100 100 100 100 100 100 100 100 100 100 100 100 100 100 100 100 100 100 100 100 100
5 5 5 1 0 0 0 0 69 100 60 100 67 100 100 100 100 100 100 100 100 100 100 100 100 100 100 100 100 100 100 100 100 100 100 100 100 100 100 100 100 100 100 100
1 3 3 0 0 0 5 0 14 97 52 84 100 100 100 100 100 100 100 100 99 100 100 100 100 100 100 100 100 100 100 100 100 100 100 100 100 100 100 100 100 100 100 100
0 3 5 0 2 4 5 0 0 90 99 100 99 100 100 100 100 100 100 100 100 100 100 100 100 100 100 100 100 100 100 100 100 100 100 100 100 100 100 100 100 100 100 100
3 4 5 16 99 92 40 99 39 97 100 100 100 100 100 100 100 100 100 100 100 100 100 100 100 100 100 100 100 100 100 100 100 100 100 100 100 100 100 100 100 100 100 100
24 100 100 96 97 100 99 100 100 100 100 100 100 100 100 100 100 100 100 100 100 100 100 100 100 100 100 100 100 100 100 100 100 100 100 100 100 100 100 100 100 100 100 100
25 98 100 100 100 100 100 100 100 100 100 100 100 100 100 100 100 100 100 100 100 100 100 100 100 100 100 100 100 100 100 100 100 100 100 100 100 100 100 100 100 100 100 100
29 100 100 100 100 100 100 100 100 100 100 100 100 100 100 100 100 96 100 100 100 100 100 100 100 100 100 100 100 100 100 100 100 100 100 100 100 100 100 100 100 100 100 100
100 100 100 100 100 100 100 100 100 100 100 100 100 100 100 100 100 100 100 100 100 97 82 100 100 100 100 100 100 100 100 100 100 100 100 100 100 100 100 100 100 100 100 100
100 100 100 100 100 100 100 100 100 100 100 100 100 100 100 100 100 100 100 89 100 100 85 96 100 100 100 100 100 100 100 100 100 100 100 100 100 100 100 100 100 100 100 100
100 100 100 100 100 100 100 100 100 100 100 100 100 99 98 94 100 95 92 97 89 100 100 90 100 100 100 100 100 100 97 99 100 100 100 100 100 100 100 100 100 100 100 100
100 100 100 100 100 100 100 100 100 100 100 100 100 98 77 84 97 91 96 94 100 96 100 100 100 100 100 100 100 100 100 100 100 100 100 100 100 100 100 100 100 100 100 100
100 100 100 100 100 100 100 100 100 100 100 100 100 97 98 69 80 98 100 99 87 93 100 100 100 100 100 100 100 100 100 100 100 100 100 100 100 100 100 100 100 100 100 100

GFSCGP_prec_cloud_093.txt.gz
Cloud_Cover
100 98 100 96 100 100 100 100 100 100 37 74 89 5 5 6 96 47 0 5 0 0 0 0 0 0 5 6 70 100 81 100 83 100 100 98 61 72 100 100 100 100 100 100
100 100 99 20 71 97 57 35 80 77 99 67 41 5 5 51 12 5 4 0 0 0 0 0 0 0 6 73 100 47 100 100 100 100 100 31 18 98 100 100 100 99 54 92
100 100 100 100 92 87 55 40 100 80 100 100 88 1 97 100 34 4 0 2 1 0 0 0 0 28 21 38 97 70 100 100 100 100 100 57 76 100 100 100 100 100 82 65
91 100 45 91 100 100 98 100 99 100 96 91 36 65 96 88 5 0 0 4 4 0 2 9 95 100 43 100 100 46 100 100 100 100 98 20 89 87 100 100 100 100 86 63
66 97 66 46 100 96 100 100 100 100 99 67 100 10 5 65 0 0 0 1 14 2 7 30 100 100 100 80 56 100 100 78 100 75 19 29 94 100 100 100 100 100 84 86
100 100 77 100 100 100 100 100 100 100 100 100 89 7 16 1 0 0 1 0 25 65 100 99 76 96 100 100 100 100 100 100 100 100 93 99 100 100 100 100 100 98 100 100
100 100 100 100 100 100 100 100 100 100 100 100 100 19 5 0 0 3 3 100 96 100 100 100 100 100 100 100 100 100 100 100 100 100 99 100 100 100 100 100 100 100 100 100
100 100 100 100 100 100 100 100 100 100 100 100 86 4 0 0 3 5 44 97 100 100 100 100 100 100 100 100 100 100 100 100 100 100 100 100 100 100 100 100 100 100 100 94
100 100 100 100 100 100 100 100 100 100 94 61 2 0 0 0 2 31 100 100 96 100 100 100 100 100 100 100 100 100 100 100 100 100 100 100 100 100 99 100 100 100 100 100
100 100 100 100 100 100 100 100 97 86 71 94 0 0 4 0 4 100 87 100 100 100 99 100 100 100 100 100 100 100 100 100 100 100 100 100 100 100 100 96 52 91 56 78
100 100 100 100 100 100 100 100 100 31 88 100 27 4 2 0 86 100 100 100 100 100 100 100 100 100 100 100 100 100 100 100 100 100 100 100 100 100 100 64 35 36 67 100
100 100 46 99 100 100 100 100 92 97 100 100 96 19 5 5 100 100 100 100 100 100 100 100 100 100 100 100 100 100 100 100 100 100 100 100 100 100 100 93 63 40 38 35
100 100 100 86 29 100 100 100 100 91 80 75 89 23 5 28 100 100 100 100 100 100 100 100 100 100 100 100 100 100 100 100 100 100 100 100 100 100 100 100 93 87 68 58
93 53 40 26 100 100 80 21 3 34 58 51 40 8 3 69 100 100 100 100 100 100 100 100 100 100 100 100 100 100 100 100 100 100 100 100 100 100 100 100 100 100 100 100
98 42 7 4 0 0 0 0 0 0 0 3 0 4 5 100 100 100 100 100 100 100 100 100 100 100 100 100 100 100 100 100 100 100 100 100 100 100 100 100 100 100 100 100
100 98 12 0 0 0 0 0 0 0 0 0 15 1 65 100 100 100 100 100 100 100 100 100 100 100 100 100 100 100 100 100 100 100 100 100 100 100 100 100 100 100 100 100
12 7 5 0 0 1 0 29 78 19 0 0 35 8 100 100 100 100 100 100 100 100 100 100 100 100 100 100 100 100 100 100 100 100 100 100 100 100 100 100 100 100 100 100
3 4 5 5 1 66 2 94 100 97 87 100 100 100 100 100 100 100 100 100 100 100 100 100 100 100 100 100 100 100 100 100 100 100 100 100 100 100 100 100 100 100 100 100
5 59 55 34 47 4 16 100 100 100 100 100 100 100 100 100 100 100 100 100 100 100 100 100 100 100 100 100 100 100 100 100 100 100 100 100 100 100 100 100 100 100 100 100
5 100 100 100 93 48 100 100 100 100 100 100 100 100 100 100 100 100 100 100 100 100 100 100 100 100 100 100 100 100 100 100 100 100 100 100 100 100 100 100 100 100 100 100
99 99 70 90 90 97 100 100 100 100 100 100 100 100 100 100 100 100 100 100 100 100 100 99 100 100 100 100 100 100 100 100 100 100 100 100 100 100 100 100 100 100 100 100
98 100 100 100 100 100 100 100 100 100 100 100 100 100 100 100 100 100 100 100 100 99 97 72 99 100 100 100 100 100 100 100 100 100 100 100 100 100 100 100 100 100 100 100
97 100 100 100 100 100 100 100 100 100 100 100 100 100 100 100 100 100 100 100 100 98 89 65 78 100 100 100 100 100 100 90 100 100 94 100 100 100 100 93 100 100 100 100
97 100 100 100 100 100 100 100 100 100 100 100 100 100 100 100 100 100 100 96 80 87 100 89 67 79 98 100 100 100 100 100 100 100 100 100 95 95 94 99 100 100 100 100
87 100 100 100 100 100 100 100 100 100 100 100 100 100 100 100 100 100 100 100 100 99 88 84 100 100 100 99 100 100 98 100 100 100 100 100 99 99 100 100 100 100 100 100
100 100 100 100 100 100 100 100 100 100 100 100 100 100 100 100 100 100 100 94 97 99 100 87 100 94 100 100 100 100 100 100 100 100 100 100 100 100 100 93 100 100 100 100

GFSCGP_prec_cloud_096.txt.gz
Cloud_Cover
48 5 54 100 100 100 100 100 100 100 100 20 7 99 100 100 99 67 12 5 1 5 5 1 0 5 97 24 0 0 5 2 49 89 100 100 100 100 100 100 100 100 100 100
5 40 100 39 32 95 100 100 100 100 100 38 15 20 100 100 56 17 4 2 4 3 0 0 5 4 0 0 0 0 0 1 30 8 99 100 100 100 100 100 100 100 100 100
100 92 63 23 53 54 99 100 100 100 100 86 23 28 100 100 32 5 0 0 0 0 0 2 1 0 0 0 0 0 6 0 28 65 100 81 81 98 100 100 100 100 100 100
8 78 92 99 80 73 29 100 100 100 100 100 90 4 36 93 99 7 5 6 5 6 2 0 0 0 0 29 43 0 14 92 100 78 100 100 30 75 100 100 97 100 100 100
5 18 8 28 98 34 94 51 43 96 100 79 83 99 5 100 100 70 68 100 97 19 0 1 47 76 97 89 100 58 100 100 100 100 100 100 85 100 100 60 100 100 100 100
84 38 61 98 93 99 99 100 100 88 57 5 95 24 5 100 100 100 100 100 20 10 31 98 100 100 100 100 100 92 100 100 100 100 100 100 13 100 91 90 99 100 100 100
100 100 100 100 100 100 100 100 96 59 18 6 76 5 98 100 100 100 100 21 3 2 9 98 99 100 100 100 100 100 100 100 75 100 100 99 94 99 63 90 100 100 100 100
100 100 100 100 100 100 100 96 97 6 18 57 99 99 100 100 100 100 98 1 1 5 84 93 100 100 100 100 100 100 100 100 100 100 100 100 100 100 100 100 100 100 100 100
100 100 100 100 100 100 100 89 100 100 100 100 100 100 100 100 100 92 7 0 2 16 98 100 100 100 100 100 100 100 100 100 100 100 100 100 100 100 100 100 100 100 100 100
100 100 100 100 100 98 100 100 100 100 100 100 100 100 76 63 16 3 70 50 56 96 100 100 100 100 100 100 100 100 100 100 100 100 100 100 100 100 100 100 100 100 100 100
100 100 100 100 100 100 100 100 100 100 99 86 25 5 57 74 46 77 100 100 94 99 100 100 100 100 100 100 100 100 100 100 100 100 100 100 100 100 100 100 100 100 100 100
100 100 100 100 100 100 100 100 86 27 53 53 98 20 6 17 73 100 100 100 100 100 100 100 100 100 100 100 100 100 100 100 100 100 100 100 100 100 100 100 100 100 89 66
100 100 100 100 100 100 100 100 69 15 11 14 67 3 17 27 87 92 100 100 100 100 100 100 100 100 100 100 100 100 100 100 100 100 100 100 100 100 100 100 100 100 100 55
100 100 100 100 100 100 100 100 100 100 100 57 4 2 5 4 99 100 100 100 100 100 100 100 100 100 100 100 100 100 100 100 100 100 100 100 100 100 100 100 100 100 100 100
100 100 100 100 100 100 100 100 100 94 5 4 0 0 0 1 69 100 100 100 100 100 99 100 100 100 100 100 100 100 100 100 100 100 100 100 100 100 100 100 100 100 100 100
99 100 100 100 81 26 6 5 5 2 31 28 0 0 0 64 100 100 100 100 100 100 100 100 100 100 100 100 100 100 100 100 100 100 100 100 100 100 100 100 100 100 100 100
100 100 100 100 36 5 0 5 41 52 29 44 99 2 5 100 100 100 100 100 100 100 100 100 100 100 100 100 100 100 100 100 100 100 100 100 100 100 100 100 100 100 100 100
72 84 38 5 4 0 3 36 48 60 68 100 61 41 90 100 100 100 100 100 100 100 100 100 100 100 100 100 100 100 100 100 100 100 100 100 100 100 100 100 100 100 100 100
5 21 18 5 51 1 9 52 93 92 98 100 100 100 100 100 100 100 100 100 100 100 100 100 100 100 100 100 100 100 100 100 100 100 100 100 100 100 100 100 100 100 100 100
15 99 80 94 92 76 86 57 100 100 100 100 100 100 100 100 100 100 100 100 100 100 100 97 99 100 100 100 100 100 100 100 100 100 100 100 100 100 100 100 100 100 100 100
73 96 81 100 100 68 100 100 88 100 100 100 100 100 100 100 100 100 100 100 100 100 100 100 100 100 100 100 100 100 100 100 100 100 100 100 100 100 100 100 100 100 100 100
95 99 99 98 91 90 100 100 98 100 100 100 100 100 100 100 100 100 100 100 100 100 100 100 100 100 100 100 100 100 100 100 100 100 100 100 100 100 100 100 100 100 100 100
72 98 68 92 95 92 100 100 100 100 100 100 100 100 100 100 100 100 100 100 100 100 100 100 100 98 96 99 100 100 100 100 100 100 100 100 100 100 100 100 100 100 100 100
97 100 96 97 100 100 100 100 100 100 100 100 100 100 100 100 100 100 100 100 100 100 100 100 94 99 100 100 100 100 89 98 100 100 100 100 100 100 100 100 100 100 100 100
100 84 100 100 100 100 100 100 100 100 100 100 100 100 100 100 100 100 100 100 100 100 100 94 98 100 100 100 100 96 92 81 88 100 100 100 100 100 100 100 100 100 100 100
100 94 95 100 100 100 100 100 100 100 100 100 100 100 100 100 100 100 100 100 98 100 93 82 88 79 98 90 92 97 82 81 87 98 100 100 100 100 100 99 95 100 100 91

GFSCGP_prec_cloud_099.txt.gz
Cloud_Cover
14 5 2 57 100 15 0 0 1 55 86 52 100 100 100 100 100 95 5 5 8 16 86 100 100 100 92 6 5 58 5 5 35 72 23 49 100 100 85 53 100 100 97 100
91 4 5 100 52 4 2 5 64 100 83 5 78 100 100 100 100 95 5 15 100 79 9 5 5 5 5 18 80 91 16 0 8 44 0 0 36 100 98 100 100 100 94 100
100 92 93 79 81 5 5 12 100 96 59 12 5 77 100 100 100 100 95 96 29 5 5 5 5 1 0 4 4 17 33 9 0 0 0 34 93 100 100 100 100 100 100 100
94 84 97 100 100 28 8 100 88 8 5 85 23 26 18 28 86 13 72 96 11 5 4 5 5 5 5 5 84 100 100 70 24 25 13 76 69 100 100 100 100 100 100 100
100 100 100 100 100 100 46 100 8 5 5 5 36 57 99 14 100 18 17 4 5 5 5 5 6 33 28 80 95 100 100 100 100 99 0 26 100 100 86 100 100 100 100 100
100 100 100 100 100 100 100 91 96 27 36 4 60 9 5 5 61 98 98 55 6 6 40 56 87 32 69 100 100 100 100 100 100 100 70 99 100 93 100 99 100 100 98 100
100 100 100 100 100 100 100 100 99 51 8 5 77 28 5 13 77 44 7 7 89 52 64 97 79 32 100 100 100 100 100 100 100 98 75 100 100 100 92 100 98 59 72 100
100 99 95 100 100 100 100 94 99 81 79 50 13 5 36 9 5 32 70 100 100 91 41 5 23 98 99 100 100 100 100 100 100 99 100 100 100 100 100 100 100 37 100 100
100 100 100 100 100 100 91 48 84 91 25 21 51 85 68 6 79 89 100 100 100 60 19 30 36 88 96 100 100 100 100 100 100 100 100 100 100 100 100 100 85 100 100 100
100 100 100 100 100 100 96 92 100 91 78 100 99 85 100 100 100 100 100 100 87 24 6 15 51 94 100 100 100 100 100 100 100 100 100 100 100 99 100 100 100 100 100 100
100 99 100 100 100 100 100 100 100 100 100 100 100 90 100 100 100 96 98 100 38 47 66 56 48 85 100 100 100 100 100 100 100 100 100 100 100 100 100 100 100 100 100 100
100 100 100 100 100 100 100 100 100 100 100 100 100 100 100 100 68 57 6 31 72 66 76 100 100 100 100 100 100 100 100 100 100 100 100 100 100 100 100 100 100 100 100 100
100 100 100 100 100 100 100 100 100 100 100 100 100 100 92 100 86 100 100 99 66 79 70 98 100 100 100 100 100 100 100 100 100 100 100 100 100 100 100 100 100 100 100 100
100 100 100 100 100 100 100 100 100 100 100 84 11 10 99 8 1 30 100 100 77 82 82 99 98 100 100 100 100 100 100 100 100 100 100 100 100 100 100 100 100 100 98 100
100 100 100 100 100 100 100 100 100 100 98 49 94 20 100 5 5 29 100 91 51 57 90 100 98 100 100 100 100 100 100 100 100 100 100 100 100 100 100 100 100 100 100 100
100 100 100 100 100 99 100 100 100 100 100 97 37 59 37 4 70 47 69 96 100 89 100 100 100 100 100 100 100 100 100 100 100 100 100 100 100 100 100 100 100 100 100 100
100 100 100 100 100 79 49 58 28 47 7 50 94 64 89 98 64 84 86 99 100 100 100 100 100 100 100 100 100 100 100 100 100 100 100 100 100 100 100 100 100 100 100 100
100 100 100 100 96 12 88 75 64 99 66 100 100 100 71 72 98 100 90 100 100 100 100 100 100 100 100 100 100 100 100 100 100 100 100 100 100 100 100 100 100 100 100 100
100 100 94 56 8 3 86 98 81 100 98 100 100 100 100 100 100 100 100 100 100 100 100 100 100 100 100 100 100 100 100 100 100 100 100 100 100 100 100 100 100 100 100 100
100 99 86 90 62 5 86 55 72 100 100 99 97 99 100 100 100 100 100 100 100 100 100 100 100 100 100 100 100 100 100 100 100 100 100 100 100 100 100 100 100 100 100 100
96 100 96 99 95 21 90 14 62 100 100 100 100 100 100 100 100 100 100 100 100 100 100 100 100 100 100 100 100 100 100 100 100 100 100 100 100 100 100 100 100 100 100 100
82 91 98 91 97 83 32 39 83 100 100 100 100 100 100 100 100 100 100 100 100 100 100 100 100 100 100 100 100 100 100 100 100 100 100 100 100 100 100 100 100 100 100 100
68 81 92 100 100 100 83 100 100 100 100 100 100 100 100 100 100 100 100 100 100 100 100 100 100 100 100 100 100 100 100 100 100 100 100 100 100 100 100 100 100 100 100 100
69 97 100 100 100 100 100 100 100 100 100 100 100 100 100 100 100 100 100 100 100 100 100 100 100 100 100 100 98 100 100 100 100 100 100 100 100 100 100 100 100 100 100 100
76 75 92 100 100 100 100 100 100 100 100 100 100 100 100 100 100 100 100 100 100 100 100 99 100 99 100 100 97 100 100 100 100 100 100 100 100 100 100 100 100 100 100 100
99 76 85 100 85 98 100 100 100 100 100 100 100 100 100 100 100 100 100 100 100 100 100 100 100 99 97 93 88 73 100 100 100 100 100 100 100 100 100 100 100 100 100 100

GFSCGP_prec_cloud_102.txt.gz
Cloud_Cover
83 100 6 81 98 88 86 88 87 5 5 15 4 4 5 85 5 38 100 100 86 5 5 5 5 5 8 6 5 5 5 5 8 32 6 65 12 15 98 100 100 97 100 100
100 53 44 100 100 100 100 34 82 81 98 4 5 6 12 85 17 58 92 100 83 59 17 6 11 39 41 28 7 6 5 2 4 38 43 23 76 100 100 86 46 75 100 100
100 58 100 100 100 100 100 92 100 100 86 58 5 10 14 89 74 14 5 21 25 6 39 100 100 84 72 100 94 100 23 37 10 20 4 49 100 100 100 100 77 72 99 100
74 100 100 100 88 100 100 100 100 100 83 99 6 96 5 100 90 4 2 5 28 5 5 7 5 5 5 5 14 16 61 40 38 83 49 4 4 5 9 2 18 100 99 100
100 100 100 100 100 100 100 100 100 100 73 100 82 100 100 100 99 5 4 3 12 94 73 5 5 5 4 6 24 41 78 94 70 100 100 86 0 0 0 3 87 100 100 100
100 100 100 100 100 100 100 100 73 93 100 64 100 100 100 31 5 5 5 5 5 5 3 0 0 0 0 12 54 80 64 98 100 100 100 100 76 5 9 4 100 100 100 100
100 100 100 100 100 100 100 100 100 100 100 84 100 100 100 44 5 22 6 38 84 22 5 3 4 5 3 38 65 83 80 100 100 100 100 100 100 76 98 61 100 100 100 100
100 100 100 100 100 100 100 100 100 100 100 100 84 100 100 49 76 100 100 100 90 98 61 5 4 5 35 71 86 85 76 100 100 100 100 100 82 78 82 100 100 100 100 100
100 100 100 100 100 100 100 100 100 100 100 100 100 100 99 100 99 100 100 100 99 79 63 5 5 25 77 80 80 100 100 100 100 100 100 100 66 94 100 100 100 100 100 100
100 100 100 100 100 100 100 100 100 100 100 100 100 100 100 92 96 100 100 100 89 100 68 5 7 55 97 82 88 74 98 100 100 100 100 100 100 84 100 100 82 98 78 78
100 100 100 100 100 100 100 100 100 95 100 100 100 100 99 52 98 100 63 95 100 100 40 15 42 86 99 81 94 68 82 100 100 100 100 100 100 100 100 100 100 100 100 92
100 100 100 100 100 100 80 14 24 95 100 100 100 97 99 100 100 100 97 100 83 89 76 54 55 49 71 82 80 99 100 100 100 100 100 100 100 100 100 100 100 100 100 100
100 100 100 100 100 100 100 100 100 100 100 100 100 100 100 100 100 100 100 100 100 100 86 59 47 69 82 92 64 100 98 100 100 100 100 100 100 100 100 100 100 100 100 100
100 100 100 100 100 100 100 100 100 100 100 100 100 100 100 100 100 100 100 53 19 96 99 75 70 88 82 96 98 100 100 100 100 100 100 100 100 100 100 100 100 100 100 100
100 100 100 100 100 100 100 100 100 100 100 100 100 100 100 74 44 8 76 58 61 79 74 99 98 70 82 80 100 100 100 100 100 100 100 100 100 100 100 100 100 100 100 100
100 100 100 100 100 100 100 100 100 100 100 47 98 100 96 14 66 86 100 66 100 100 99 100 100 87 100 87 100 100 100 100 100 100 100 100 100 100 100 100 100 100 100 100
100 100 100 100 100 100 100 100 100 86 70 57 35 76 66 72 100 100 100 99 100 100 99 100 100 100 100 100 100 100 100 100 100 100 100 100 100 100 100 100 100 100 100 100
100 100 100 100 100 77 93 87 88 80 44 76 86 77 100 96 100 100 100 100 100 100 100 100 100 100 100 100 100 100 100 100 100 100 100 100 100 100 100 100 100 100 100 100
100 100 100 100 100 37 99 56 48 79 81 99 71 74 100 99 100 100 100 100 100 100 100 100 100 100 100 100 100 100 100 100 100 100 100 100 100 100 100 100 100 100 100 100
100 100 100 100 100 97 100 49 90 100 100 100 93 84 100 100 100 100 100 100 100 100 100 100 100 100 100 100 100 100 100 100 100 100 100 100 100 100 100 100 100 100 100 100
100 100 99 100 100 94 96 55 30 100 100 100 100 100 100 100 100 100 100 100 100 100 100 100 100 100 100 100 100 100 100 100 100 100 100 100 100 100 100 100 100 100 100 100
100 100 100 100 100 100 38 83 84 100 100 99 100 100 100 100 100 100 100 100 100 100 100 100 100 100 100 100 100 100 100 100 100 100 100 100 100 100 100 100 100 100 100 100
95 97 97 100 100 100 99 100 100 100 100 100 100 100 100 100 100 100 100 100 100 100 100 100 100 100 100 100 100 100 100 100 100 100 100 100 100 100 100 100 100 100 100 100
100 69 99 95 100 100 97 100 100 100 100 100 100 100 100 100 100 100 100 100 100 100 100 100 100 100 100 100 100 100 100 100 100 100 100 100 100 100 100 100 100 100 100 100
91 78 100 100 100 98 99 100 100 100 100 100 100 100 100 100 100 100 100 100 100 100 100 100 100 100 100 100 100 100 100 100 100 100 100 100 100 100 100 100 100 100 100 100
61 93 100 100 94 99 99 100 100 100 100 100 100 100 100 100 100 100 100 100 100 100 100 100 100 100 92 96 99 100 100 100 100 100 100 100 100 100 100 100 100 100 100 100

GFSCGP_prec_cloud_105.txt.gz
Cloud_Cover
5 42 5 5 35 57 78 100 99 81 100 72 5 5 5 5 3 5 8 5 5 5 4 0 4 69 67 11 65 54 5 1 5 5 7 49 46 81 62 22 57 35 72 100
81 59 4 48 100 100 98 100 87 100 100 97 53 5 56 18 5 5 9 17 100 100 44 23 25 54 95 59 12 14 8 15 17 87 100 100 100 100 95 100 100 98 84 100
70 4 17 33 100 100 42 100 100 87 100 100 91 5 16 70 98 42 21 31 6 5 17 5 21 31 62 100 100 69 72 99 99 88 35 16 10 10 51 10 5 8 5 4
87 23 99 50 18 100 100 100 100 100 100 89 100 57 100 95 11 87 100 99 9 8 8 65 5 54 32 4 5 5 8 8 12 56 67 66 17 1 0 0 1 0 1 15
6 28 12 61 28 100 100 100 100 100 100 100 97 100 100 99 28 97 100 96 77 7 80 100 35 2 0 0 0 3 40 40 63 89 86 88 98 42 0 0 0 0 0 12
72 99 54 57 100 100 100 100 100 100 100 100 73 100 100 100 100 100 100 100 94 100 100 100 12 0 0 0 16 73 81 71 100 93 100 100 100 100 21 1 0 0 0 1
91 77 90 100 100 100 100 100 100 100 100 100 100 100 100 100 100 100 100 86 100 100 100 82 0 0 0 3 35 100 100 95 93 100 100 100 100 100 99 33 0 27 47 76
100 100 80 97 100 100 100 100 100 100 100 100 100 100 100 100 85 100 100 100 100 89 100 92 18 5 5 6 55 100 100 84 94 100 100 100 100 100 100 77 44 26 55 67
100 99 96 100 100 100 100 100 100 100 100 100 100 100 100 100 100 100 100 100 100 100 100 97 19 5 15 93 99 100 100 96 85 100 100 100 100 100 99 16 43 99 62 72
100 100 100 100 97 100 100 100 100 100 100 100 100 100 100 100 100 100 100 100 100 100 100 100 6 9 16 50 87 97 100 100 100 100 100 100 100 100 90 100 100 100 100 81
100 100 100 79 100 100 100 100 100 100 100 100 100 100 100 100 100 100 100 100 100 100 100 100 8 14 53 70 86 97 100 100 96 100 100 100 100 100 100 100 100 100 92 96
100 100 100 98 100 100 100 100 100 100 100 100 100 100 100 100 100 100 87 100 45 53 100 95 100 44 84 96 87 100 100 100 100 100 100 100 100 100 100 100 91 100 89 100
100 100 100 100 100 100 100 100 100 100 100 100 100 100 100 100 100 100 53 5 52 92 78 100 100 100 100 84 97 100 69 100 100 100 100 100 100 100 100 100 100 100 100 82
100 100 100 100 100 100 100 100 100 100 100 100 100 100 100 100 88 81 70 98 62 92 100 100 100 100 100 92 99 100 100 90 100 96 100 100 100 100 100 100 100 100 100 100
100 100 100 100 100 95 98 100 98 100 100 95 100 100 100 50 95 99 100 100 100 100 100 100 100 100 100 96 94 100 100 100 100 100 100 100 100 100 100 100 100 100 100 100
100 100 100 100 100 100 100 100 100 100 100 100 100 100 100 100 100 100 100 100 100 100 100 100 100 100 100 100 100 100 100 100 100 100 100 100 100 100 100 100 100 100 100 100
100 100 96 79 100 100 100 100 100 100 100 87 100 76 86 71 96 100 100 100 100 100 98 100 100 100 100 100 100 100 100 100 100 100 100 100 100 100 100 100 100 100 100 100
100 100 87 100 100 99 100 100 100 100 100 100 100 98 90 90 100 100 87 99 100 100 87 97 100 100 100 100 100 100 100 100 100 100 100 100 100 100 100 100 100 100 100 100
100 100 100 100 100 95 96 100 90 90 79 77 99 80 99 100 100 100 100 100 100 100 100 100 100 100 100 100 100 100 100 100 100 100 100 100 100 100 100 100 100 100 100 100
100 100 100 100 100 100 100 91 90 81 36 99 93 74 100 100 100 100 100 100 100 100 100 100 100 100 100 100 100 100 100 100 100 100 100 100 100 100 100 100 100 100 100 100
100 100 100 100 100 87 97 74 30 89 100 100 100 100 100 100 100 99 93 100 100 100 100 100 100 100 100 100 100 100 100 100 100 100 100 100 100 100 100 100 100 100 100 100
100 100 100 100 94 96 73 61 80 97 98 100 100 100 100 100 98 100 100 100 100 100 100 100 100 100 100 100 100 100 100 100 100 100 100 100 100 100 100 100 100 100 100 100
100 100 99 70 99 99 88 100 100 100 100 99 100 100 100 99 100 100 100 100 100 100 100 100 100 100 100 100 100 100 100 100 100 100 100 100 100 100 100 100 100 100 100 100
100 52 74 69 99 100 100 100 100 100 100 100 100 100 100 100 100 100 100 100 100 100 100 100 100 100 100 100 100 100 100 100 100 100 100 100 100 100 100 100 100 100 100 100
92 90 87 97 100 99 100 100 100 100 100 100 100 100 100 100 100 100 100 100 100 100 100 100 100 100 100 100 100 100 100 100 100 100 100 100 100 100 100 100 100 100 100 100
89 87 100 100 66 93 98 100 100 100 100 100 100 100 100 100 100 100 100 100 100 100 100 100 100 100 100 100 100 100 100 100 100 100 100 100 100 100 100 100 100 100 100 100

GFSCGP_prec_cloud_108.txt.gz
Cloud_Cover
99 36 99 100 15 5 5 6 25 5 22 100 94 52 100 100 100 98 10 86 93 100 4 0 0 5 4 4 2 1 3 48 73 49 14 30 10 11 5 5 5 64 70 66
67 38 80 100 70 35 98 95 20 5 3 23 99 70 100 100 100 100 50 100 100 100 5 5 1 0 0 4 12 99 62 86 29 27 22 14 20 87 98 100 100 100 100 83
7 8 50 76 20 35 5 66 5 53 53 59 97 40 100 78 96 100 100 100 100 88 5 7 11 0 2 4 95 81 98 100 98 68 35 44 54 61 12 5 5 5 5 5
5 9 71 5 9 96 96 67 98 70 87 82 92 76 39 30 60 100 100 100 100 100 42 52 75 6 5 5 1 5 88 99 75 5 3 18 57 91 4 43 50 5 20 83
4 34 94 3 0 93 100 58 80 92 99 100 99 100 0 72 100 100 100 100 100 63 50 99 99 100 73 9 5 7 100 91 5 5 67 74 61 71 34 1 0 0 0 94
9 12 33 27 36 28 57 59 68 100 100 96 93 100 100 100 100 100 100 100 100 100 83 83 100 100 98 20 32 86 63 100 34 50 96 76 100 100 100 96 22 0 0 0
5 5 8 10 36 90 53 67 100 100 100 77 100 100 100 100 100 100 100 100 100 100 100 100 100 59 100 98 100 100 100 100 99 96 82 100 100 100 100 100 100 23 0 0
100 66 7 21 33 94 92 45 100 100 100 100 100 100 100 100 100 100 100 100 100 100 100 100 100 98 70 40 70 100 71 100 100 100 82 100 100 100 100 100 100 95 18 13
100 88 94 23 15 74 33 96 100 100 100 100 100 100 100 100 100 100 100 100 100 100 100 100 100 100 100 99 76 97 95 100 100 100 96 99 100 100 100 100 100 100 56 0
100 88 53 97 88 25 3 16 100 100 100 100 100 100 100 100 100 100 100 100 100 100 100 99 100 100 74 76 100 98 100 100 100 100 100 100 100 100 100 100 100 100 43 28
100 100 44 96 79 80 100 74 100 100 100 100 100 100 100 100 100 100 100 100 100 100 100 100 100 95 99 100 100 100 100 100 100 100 100 100 99 100 100 100 100 100 99 100
100 98 76 97 100 94 14 94 100 100 100 100 100 100 100 100 100 100 100 100 100 100 100 100 100 100 100 100 100 100 100 100 100 100 100 100 100 100 100 100 100 100 100 100
100 100 98 74 85 100 41 88 100 100 100 100 100 100 100 100 100 100 100 100 100 100 100 100 100 100 100 94 95 100 100 100 92 100 100 100 100 100 100 100 100 100 100 100
100 100 96 100 97 90 100 96 100 100 100 100 100 100 100 100 100 100 100 100 100 100 100 90 100 100 100 100 100 100 100 100 100 100 100 100 100 100 100 100 100 100 100 100
100 100 100 100 92 80 100 100 100 96 100 100 100 100 100 79 100 100 100 100 95 90 100 100 100 100 100 100 100 100 100 100 100 86 100 100 100 98 100 100 100 100 100 100
100 100 100 100 100 85 23 68 99 100 100 100 100 100 34 65 100 100 100 100 100 100 100 100 100 100 100 100 100 100 100 100 100 100 100 100 100 100 100 100 100 100 100 100
100 100 100 100 96 100 100 99 100 100 100 100 100 97 100 100 100 100 100 100 100 100 100 100 100 100 100 100 100 100 100 98 100 100 100 100 100 100 100 100 100 100 100 100
100 100 100 98 100 100 98 100 100 100 100 100 100 63 49 100 100 100 100 100 100 100 100 100 100 100 100 100 100 100 100 100 99 100 100 100 100 100 100 100 100 100 100 100
100 100 100 99 100 93 100 100 100 100 100 100 79 94 77 100 100 100 100 100 100 100 94 87 100 100 100 100 100 100 99 100 100 100 97 100 100 100 100 100 100 100 100 100
100 100 97 100 100 100 100 100 100 92 97 98 87 74 69 99 100 100 100 100 100 100 100 100 100 100 100 100 100 100 98 100 100 100 100 100 100 100 100 100 100 100 100 100
100 100 100 100 99 98 100 92 67 55 71 100 100 100 95 100 98 100 100 96 100 99 100 100 100 100 100 100 100 100 100 100 100 100 100 100 100 100 100 100 100 100 100 100
100 100 100 100 100 98 58 74 30 91 100 99 100 100 95 99 100 100 99 99 100 100 100 100 100 100 100 100 100 100 100 100 100 100 100 100 100 100 100 100 100 100 100 100
100 100 100 100 97 99 98 95 98 94 92 100 100 100 100 100 100 99 100 100 100 100 100 100 100 100 100 100 100 100 100 100 100 100 100 100 100 100 100 100 100 100 100 100
100 100 100 100 100 100 100 100 100 100 100 100 100 100 100 100 100 100 100 100 100 100 100 100 100 100 100 100 100 100 100 100 100 100 100 100 100 100 100 100 100 100 100 100
100 100 100 91 92 100 100 100 100 100 100 100 100 91 100 100 100 100 100 100 100 100 100 100 100 100 100 100 100 100 100 100 100 100 100 100 100 100 100 100 100 100 100 100
100 100 77 87 17 71 96 100 100 100 100 100 100 100 100 100 100 100 100 100 100 100 100 100 100 100 100 100 100 100 100 100 100 100 100 100 100 100 100 100 100 100 100 100

GFSCGP_prec_cloud_111.txt.gz
Cloud_Cover
5 5 2 19 2 0 1 3 5 0 0 5 5 15 2 1 99 100 46 100 100 100 94 5 0 0 5 40 1 5 5 0 2 0 0 0 5 92 94 100 83 5 2 0
19 2 1 5 0 4 20 26 2 0 0 17 1 0 0 4 5 69 100 100 100 100 98 86 0 0 0 84 23 2 5 5 2 0 0 16 93 18 28 64 29 84 94 67
2 3 43 5 7 100 17 100 4 3 3 0 0 0 0 0 0 77 100 99 98 100 22 65 1 0 0 39 97 5 5 5 5 5 2 5 5 98 100 76 99 42 2 4
3 12 5 1 5 92 1 64 81 5 4 5 7 73 0 0 22 1 75 100 100 100 98 5 0 1 8 99 100 71 78 97 54 37 57 94 5 14 64 83 79 5 4 0
41 6 0 4 3 3 0 5 31 4 5 14 5 59 0 0 9 96 78 100 100 100 64 2 56 100 100 85 100 100 95 99 100 100 100 25 5 35 100 55 56 14 0 0
100 50 28 0 0 4 4 0 2 5 40 90 16 39 0 2 2 85 100 100 100 100 83 5 99 100 100 100 97 100 99 100 100 100 100 85 52 45 89 100 100 99 93 26
18 7 5 5 5 5 5 5 66 63 98 37 3 20 44 38 90 14 100 100 100 78 100 71 99 100 100 100 100 100 95 72 79 64 73 100 96 99 100 100 100 100 100 100
82 83 21 5 4 5 6 5 72 34 41 65 43 55 23 100 100 100 100 100 100 100 100 100 100 100 100 100 100 93 93 100 81 95 100 100 100 99 99 100 100 100 100 100
93 7 13 6 36 34 36 74 96 100 6 24 86 43 100 100 100 100 100 100 100 100 100 100 100 100 100 100 100 100 100 100 94 93 100 100 100 100 100 100 100 100 100 100
97 63 26 57 83 44 88 21 87 99 97 19 89 68 100 100 100 100 100 100 100 100 100 100 100 100 100 100 100 100 100 100 87 94 98 100 100 100 100 100 100 100 100 100
95 100 91 89 81 100 96 40 95 94 95 100 95 100 100 100 100 100 100 100 100 100 100 100 100 100 100 100 100 100 98 93 68 93 100 92 97 100 100 100 100 100 100 100
100 97 100 96 100 100 100 50 99 100 95 100 100 100 100 100 100 100 100 100 100 100 100 100 100 100 100 100 100 100 100 67 79 100 100 100 100 100 100 100 100 100 100 100
98 100 100 100 96 100 97 61 76 81 100 100 100 97 100 100 100 100 100 100 100 100 100 100 100 100 100 100 100 100 83 83 98 100 100 100 100 100 100 100 100 100 100 100
100 94 64 100 100 100 78 100 48 100 100 97 100 71 98 85 100 100 100 100 100 100 100 100 100 100 100 100 100 100 100 100 100 100 100 100 100 100 100 100 100 100 99 100
100 100 100 100 100 100 100 97 100 100 100 100 100 50 76 37 29 100 100 100 100 100 97 100 100 100 100 100 100 100 100 100 100 100 100 100 100 100 100 100 100 100 100 100
100 100 100 100 100 79 98 89 100 100 100 100 46 96 100 100 100 100 100 95 100 100 100 100 100 100 100 87 100 73 96 99 100 100 100 100 100 100 100 100 77 100 100 100
100 100 100 100 100 100 48 100 100 100 100 100 100 60 100 100 100 100 100 100 100 100 100 100 100 100 100 100 100 100 100 100 100 100 100 100 100 100 100 100 92 100 98 100
100 100 100 100 100 100 65 100 100 100 100 100 100 100 100 100 100 100 100 100 100 100 100 100 100 100 100 100 100 100 100 100 100 100 100 100 96 89 96 95 100 100 100 100
100 100 100 100 100 56 100 100 100 98 100 100 100 100 100 100 100 100 100 100 100 100 100 98 81 100 100 100 100 100 100 100 100 100 100 100 100 100 100 100 100 100 100 100
100 100 100 100 100 42 100 100 91 100 100 100 100 65 99 80 38 96 86 100 75 76 55 86 98 95 100 100 100 100 100 100 100 100 100 100 100 100 100 100 100 100 100 100
100 100 100 100 98 100 100 100 100 100 100 100 99 88 61 92 82 87 84 90 90 84 99 94 100 100 100 100 100 100 100 100 100 100 100 100 100 100 100 100 100 100 100 100
100 100 100 100 100 100 100 100 100 100 100 86 100 88 91 98 97 96 99 85 95 100 100 100 100 100 100 100 100 100 100 100 100 100 100 100 100 100 100 100 100 100 100 100
100 100 100 100 100 100 100 100 100 100 28 96 100 100 92 79 100 100 86 100 100 100 100 100 100 100 100 100 100 100 100 100 100 100 100 100 100 100 100 100 100 100 100 100
100 100 100 100 100 100 100 100 100 100 100 100 100 100 100 100 94 87 98 100 100 100 100 100 100 100 100 100 100 100 100 100 100 100 100 100 100 100 100 100 100 100 100 100
100 100 100 100 100 100 100 100 100 100 100 98 95 92 80 70 100 100 100 100 100 100 100 100 100 100 100 100 100 100 100 100 100 100 100 100 100 100 100 100 100 100 100 100
100 100 100 100 100 100 54 100 100 100 100 94 70 97 100 94 94 100 100 100 100 100 100 100 100 100 100 100 100 100 100 100 100 100 100 100 100 100 100 100 100 100 100 100

GFSCGP_prec_cloud_114.txt.gz
Cloud_Cover
5 5 54 9 5 19 5 5 5 5 1 0 0 0 0 0 0 0 0 0 83 100 99 29 98 100 87 95 80 6 1 5 5 44 5 5 5 0 0 0 0 0 3 5
91 6 5 16 6 4 5 0 0 0 5 4 0 0 0 0 0 0 0 0 100 100 92 93 99 9 22 97 100 100 90 5 5 5 5 5 1 0 0 0 0 0 3 10
92 55 99 86 5 38 5 5 5 5 45 16 4 1 0 0 0 0 0 0 8 27 100 100 98 96 19 5 5 35 97 18 6 5 5 5 4 0 0 3 0 5 5 5
5 76 96 99 87 99 30 5 4 5 4 5 5 51 0 0 0 0 0 0 1 18 54 75 100 100 63 43 5 49 85 100 94 5 18 17 17 73 60 68 7 5 5 100
5 6 5 11 94 98 5 5 5 4 5 7 2 25 0 0 0 0 0 2 3 5 100 100 100 100 20 36 44 44 96 100 100 9 63 98 96 98 100 100 100 100 97 30
100 65 35 100 100 96 22 5 5 5 19 98 5 2 0 0 2 23 36 89 79 80 69 100 100 100 99 100 100 91 100 84 93 49 78 79 100 100 100 84 97 100 100 100
100 100 100 100 99 83 61 76 97 54 92 23 1 5 3 93 86 100 79 94 100 100 100 100 100 100 100 99 87 100 100 100 100 76 84 100 100 100 100 100 100 100 100 100
78 100 100 99 32 6 36 32 28 16 7 16 4 5 92 100 100 100 100 100 100 100 100 100 100 100 100 100 100 99 100 100 100 100 52 98 100 100 100 100 100 100 100 100
100 94 22 5 4 5 5 18 23 92 45 69 2 27 100 100 100 100 100 100 100 100 100 100 100 100 100 100 100 100 100 100 100 100 100 100 99 100 100 100 100 100 100 100
85 68 58 18 5 7 58 47 85 98 56 71 5 74 46 100 100 100 100 100 100 100 100 100 100 100 100 100 100 100 100 100 100 100 100 100 100 100 100 100 100 100 100 100
80 54 44 27 7 31 88 61 42 95 75 31 48 76 98 100 100 100 100 100 100 100 100 100 100 100 100 100 100 100 100 100 100 100 100 100 100 100 100 100 100 100 100 100
84 64 99 38 97 43 49 85 98 100 100 92 28 100 100 93 100 100 100 100 100 100 100 100 100 100 100 100 100 100 100 100 100 100 100 100 100 100 100 100 100 100 100 100
9 100 100 100 100 100 100 17 99 100 100 85 97 51 100 100 100 100 100 100 100 100 100 100 100 94 100 100 98 100 100 100 100 100 100 100 100 100 100 100 92 96 100 100
10 100 100 100 100 100 100 60 97 100 97 41 6 41 100 100 64 100 100 100 100 100 100 100 100 100 100 100 100 100 100 100 100 100 100 100 100 100 100 100 64 83 90 100
6 14 69 100 100 100 100 98 100 100 98 88 18 40 100 100 86 88 100 100 100 100 100 100 100 100 100 100 100 100 100 100 100 100 99 97 100 100 100 100 100 100 90 100
71 92 100 100 100 95 100 100 95 100 63 67 20 92 100 100 100 88 92 100 88 100 100 100 100 100 100 100 100 100 100 100 100 100 100 100 100 100 100 100 100 100 76 83
91 92 92 100 100 100 76 42 100 100 96 62 12 98 100 97 76 100 100 100 97 72 99 96 98 93 99 100 91 100 100 98 85 90 94 100 70 98 99 100 100 100 100 87
86 98 91 100 100 100 50 100 100 82 58 97 92 100 100 100 100 99 98 100 100 88 76 76 89 88 100 100 100 100 100 100 100 100 100 100 100 100 100 100 100 100 100 100
70 100 100 100 100 100 100 100 100 98 39 94 100 100 100 100 100 100 100 100 100 100 100 100 100 100 100 100 100 100 100 100 100 100 100 100 100 100 100 100 100 100 100 100
100 100 100 98 100 54 100 100 99 49 99 5 90 100 100 100 100 100 100 100 100 99 100 100 100 100 98 93 83 99 100 100 100 100 100 100 100 100 100 100 100 100 100 100
100 100 100 100 92 93 100 100 67 100 100 44 62 100 100 100 99 79 100 100 100 100 100 98 100 99 100 100 99 100 100 100 100 100 100 99 90 100 100 100 100 100 100 100
100 100 100 100 98 100 100 100 96 97 100 100 100 72 80 100 100 97 100 100 100 99 98 98 100 100 100 100 99 100 100 100 100 100 100 100 100 100 100 100 100 100 100 100
100 100 100 100 100 100 100 100 100 100 100 100 100 99 88 84 91 97 100 97 99 100 79 96 78 98 100 100 100 100 100 100 100 100 100 100 100 100 100 100 100 100 100 100
100 100 100 100 100 100 100 100 100 100 100 100 100 95 71 85 91 88 90 100 78 100 67 100 100 100 100 100 100 100 100 100 100 100 100 100 100 100 100 100 100 100 100 100
100 100 100 100 100 100 100 100 100 100 100 100 100 72 63 23 76 99 100 95 100 100 100 100 100 100 100 100 100 100 100 100 100 100 100 100 100 100 100 100 100 100 100 100
100 100 100 100 100 100 100 100 100 100 100 98 16 69 12 74 80 95 100 100 100 100 100 100 100 100 100 100 100 100 100 100 100 100 100 100 100 100 100 100 100 100 100 100

GFSCGP_prec_cloud_117.txt.gz
Cloud_Cover
12 20 56 64 85 96 100 49 10 76 61 5 5 5 100 1 0 0 0 0 0 0 0 0 0 0 0 0 0 0 8 100 100 100 93 9 11 8 5 5 16 85 1 0
54 74 100 100 100 100 100 97 88 5 5 5 4 1 5 1 0 0 0 0 0 0 0 0 0 0 5 5 0 4 48 84 99 100 100 21 49 25 5 53 8 9 27 5
5 35 100 100 100 100 100 100 74 25 5 5 2 0 5 4 0 0 0 0 0 0 0 0 1 6 100 99 68 99 100 100 96 55 87 20 5 86 67 79 6 7 12 8
91 100 100 64 94 92 34 14 5 5 5 5 5 11 5 1 0 0 2 2 0 12 12 42 74 52 34 100 100 100 100 100 100 100 83 98 85 80 94 99 67 5 5 5
48 99 98 100 96 18 24 99 20 5 5 5 5 30 5 1 82 100 92 52 75 88 100 100 100 54 68 92 100 100 100 89 100 52 73 47 100 100 100 100 98 46 40 20
77 30 25 55 75 98 100 100 99 80 23 71 5 5 4 100 100 100 100 100 100 100 100 100 100 100 100 100 100 100 100 100 100 100 100 81 92 100 100 100 100 100 100 100
25 18 93 86 77 69 40 100 100 70 83 37 5 5 86 100 100 100 100 100 100 100 100 100 100 100 100 100 100 100 100 100 100 100 100 100 100 100 100 100 100 100 100 100
75 98 100 100 100 100 100 100 100 20 17 7 5 4 98 100 95 88 100 100 100 100 100 100 100 100 100 100 100 100 100 100 100 100 100 100 100 100 100 100 100 100 100 100
100 57 100 100 100 100 100 100 90 98 90 93 5 94 100 100 100 100 100 96 100 100 100 100 100 100 100 100 100 100 100 100 100 100 100 100 100 100 100 100 100 100 100 100
97 91 51 37 30 23 40 32 79 98 83 78 4 30 47 100 100 100 100 100 100 100 100 100 100 100 100 100 100 100 100 100 100 100 100 100 100 100 100 100 100 100 100 100
78 78 43 98 32 7 5 52 73 62 50 24 37 22 5 100 100 100 100 100 100 100 100 100 100 100 100 100 100 100 100 100 100 100 100 100 100 100 100 100 100 100 100 100
31 89 44 82 99 63 90 88 100 82 66 79 54 18 90 58 99 100 100 100 100 100 100 100 100 100 100 100 100 100 100 100 100 100 100 100 100 100 100 100 100 100 100 100
20 96 52 22 10 31 99 95 100 100 46 17 58 19 85 96 100 97 100 100 100 100 100 100 100 100 100 100 100 100 100 100 100 100 100 100 100 100 100 100 100 100 100 100
86 97 99 83 47 5 30 92 100 100 75 99 29 28 99 100 99 37 100 100 100 100 100 100 100 100 100 100 100 100 100 100 100 100 100 100 100 100 100 100 100 100 98 96
100 100 100 100 72 26 58 100 100 100 100 100 55 19 96 37 20 78 92 76 91 100 100 100 100 100 100 100 100 100 100 100 100 100 100 100 100 100 100 100 100 100 100 94
100 100 100 100 69 90 76 100 97 100 67 100 100 94 69 97 16 88 100 98 100 100 100 100 100 100 100 100 100 100 100 83 79 92 94 80 100 99 100 100 82 86 65 43
100 100 100 79 43 98 100 8 86 100 100 95 96 36 100 98 82 100 100 100 71 98 100 100 100 100 100 99 100 100 100 97 95 92 100 99 90 98 95 69 75 100 86 78
94 98 100 97 88 97 3 39 100 100 100 88 26 33 98 81 89 100 92 95 56 11 95 100 100 100 100 100 100 100 99 90 100 100 100 100 96 100 100 100 94 99 100 91
96 99 98 100 90 14 6 74 87 100 77 93 65 97 100 100 100 93 100 98 86 36 85 98 100 94 76 91 92 97 84 100 97 100 100 100 100 100 100 100 100 99 69 86
87 100 100 98 98 75 28 100 100 100 44 98 66 100 100 100 78 82 96 100 100 95 93 86 82 85 56 71 87 87 99 100 100 100 100 100 100 100 100 100 100 48 77 77
98 100 69 100 91 6 98 100 96 62 100 82 89 86 100 90 77 100 100 100 96 98 72 64 74 77 90 62 75 60 81 92 100 100 100 100 100 99 100 100 100 100 100 100
78 98 69 97 98 79 100 100 94 100 100 98 93 100 100 100 100 100 93 100 100 95 69 62 74 84 82 88 99 100 100 100 100 100 100 100 100 100 100 100 100 100 100 100
51 12 88 81 100 100 100 100 100 100 100 84 100 100 100 100 95 93 100 98 75 94 97 90 54 95 100 100 77 100 100 100 100 100 100 100 100 100 100 100 100 100 100 100
77 99 78 97 100 100 100 100 100 100 100 100 100 98 100 92 97 96 92 86 93 98 85 98 100 100 100 100 100 100 100 100 100 100 100 100 100 100 100 100 100 100 100 100
100 100 100 100 100 100 100 100 100 100 100 100 100 100 96 39 91 75 96 93 80 80 87 100 100 100 100 100 100 100 100 100 100 100 100 100 100 100 100 100 100 100 100 100
100 100 84 99 85 100 100 100 100 100 100 100 100 86 46 18 97 78 100 76 83 100 100 100 100 100 100 100 100 100 100 100 100 100 100 100 100 100 100 100 100 100 100 100

GFSCGP_prec_cloud_120.txt.gz
Cloud_Cover
100 34 5 5 99 5 5 5 5 6 23 26 100 100 87 6 5 5 5 5 5 1 8 0 0 0 0 0 0 0 6 24 0 5 4 5 5 4 99 87 100 30 7 5
36 5 18 68 17 5 5 4 37 95 100 86 100 100 99 70 18 5 5 4 0 25 21 37 47 37 20 2 0 0 0 5 3 73 100 64 69 13 10 47 100 99 22 5
10 7 54 5 6 78 19 14 5 5 19 16 10 94 29 32 5 5 30 62 74 80 63 85 100 100 90 89 76 88 68 17 100 100 100 100 66 81 73 61 89 100 88 99
78 100 30 24 92 95 99 99 60 27 5 13 14 53 5 5 5 51 100 100 100 100 100 100 94 100 100 100 100 100 100 73 100 97 100 100 47 97 100 91 54 58 100 95
82 100 60 51 90 52 84 100 96 14 41 75 35 33 5 11 94 100 100 100 100 100 100 100 100 99 76 100 100 100 100 56 100 100 100 100 100 87 100 100 93 100 57 54
24 13 57 70 81 62 48 27 50 86 82 86 54 6 5 100 100 100 100 100 100 100 100 100 100 100 100 100 100 100 100 100 100 100 100 100 100 100 100 100 100 92 100 100
98 66 22 30 16 11 25 22 77 45 95 37 5 5 5 100 100 100 100 100 100 100 100 100 100 100 100 100 100 97 100 100 100 100 100 100 100 100 100 100 100 100 100 100
99 100 100 89 5 5 6 28 90 39 20 5 6 5 7 98 97 98 99 100 100 100 100 100 100 100 100 100 100 100 100 100 100 100 100 100 100 100 100 100 100 100 100 100
50 17 6 5 5 5 49 83 24 100 92 86 8 59 97 100 100 100 100 100 100 100 100 100 100 100 100 100 100 100 100 100 100 100 100 100 100 100 100 100 100 100 100 100
48 6 5 9 21 14 9 21 96 100 100 100 7 8 21 100 100 100 100 100 100 100 85 66 100 100 100 99 99 100 100 100 100 100 100 100 100 100 100 100 100 100 100 100
19 80 35 79 67 65 5 65 77 64 73 98 65 7 4 43 100 100 100 100 96 100 96 99 95 100 100 66 86 100 100 100 100 100 100 100 100 100 100 100 100 100 100 100
100 100 100 53 6 33 9 97 100 100 84 70 62 18 5 10 94 99 100 100 100 100 53 80 100 100 100 82 100 100 100 100 100 100 100 100 100 100 100 100 100 100 100 100
99 100 100 100 98 89 100 97 90 71 100 72 100 8 99 90 62 100 100 100 100 23 10 66 100 100 100 100 100 100 100 100 100 100 100 100 100 100 100 100 100 100 100 100
97 85 62 11 51 63 64 32 40 92 100 92 100 96 100 84 100 100 100 96 33 9 98 78 100 100 100 100 100 100 100 100 100 100 100 100 100 100 100 100 100 100 100 100
100 100 100 92 92 100 79 46 100 100 100 100 99 100 96 92 100 99 96 98 66 86 100 100 100 97 100 100 100 100 100 100 100 100 96 68 93 92 96 100 100 100 100 100
100 100 100 74 77 100 100 100 60 61 100 100 100 58 100 100 98 78 100 70 96 96 91 100 100 100 100 100 99 80 100 100 100 97 100 69 85 100 100 100 100 99 100 98
100 100 100 99 100 100 88 56 62 78 30 3 48 93 100 100 100 82 100 96 92 88 100 100 100 100 100 100 96 100 71 80 66 100 100 90 100 100 100 100 100 84 86 98
100 100 100 94 75 96 8 25 91 5 5 35 44 98 100 94 91 100 97 97 99 74 100 100 100 100 100 91 94 79 64 98 100 100 100 100 100 100 100 100 79 78 85 98
100 100 100 92 87 13 5 2 4 1 2 5 23 95 97 92 100 100 100 100 70 43 100 100 100 96 86 69 71 53 75 96 97 100 100 100 100 100 100 100 100 100 100 100
100 100 100 99 97 63 1 0 0 0 5 7 99 74 100 100 100 64 80 72 80 85 85 81 67 66 58 71 68 98 100 98 100 100 100 100 100 100 100 100 100 100 100 100
100 100 100 97 99 9 1 5 4 28 27 90 60 94 87 91 46 74 80 95 98 98 71 66 56 66 76 84 100 100 100 100 100 100 100 100 100 100 100 100 100 100 100 100
100 100 100 94 100 69 2 3 18 79 83 97 99 96 100 100 100 98 65 100 86 91 88 65 71 77 94 99 100 100 100 100 100 100 100 100 100 100 100 100 100 100 100 100
100 100 100 66 4 8 7 26 89 100 96 54 73 100 100 100 100 100 100 94 94 83 90 74 92 99 100 100 100 100 100 100 100 100 100 100 100 100 100 100 100 100 100 100
48 10 8 10 28 44 81 94 100 100 100 100 100 100 100 100 100 98 100 100 86 100 97 93 100 100 100 100 100 100 100 100 100 100 100 100 100 100 100 100 100 100 100 100
5 5 5 44 58 77 100 100 100 100 100 100 100 100 100 100 88 91 100 77 83 94 100 100 95 100 100 100 100 100 100 100 100 100 100 100 100 100 100 100 100 100 100 100
6 72 86 100 71 99 100 100 100 100 100 100 100 100 100 93 75 64 98 86 72 95 59 72 100 100 100 100 100 100 100 100 100 100 100 100 100 100 100 100 100 100 100 100

GFSCGP_prec_cloud_123.txt.gz
Cloud_Cover
46 29 90 25 67 35 5 5 5 21 5 5 5 5 5 5 32 85 100 100 100 100 100 100 100 97 66 32 48 92 100 100 100 100 73 6 0 0 0 0 0 0 0 2
100 35 71 96 59 26 6 5 12 29 7 5 5 5 5 100 100 100 100 100 100 100 100 96 64 75 40 13 41 100 100 100 100 100 94 42 30 30 8 5 4 5 43 50
27 50 99 83 90 36 6 17 5 5 5 5 5 5 43 71 86 100 100 100 100 100 100 100 100 95 85 98 95 99 100 100 100 100 100 82 10 99 86 73 5 14 54 72
71 95 51 90 86 76 56 6 5 5 5 5 35 5 5 5 24 91 93 100 100 100 100 100 100 100 96 63 91 56 56 100 100 100 100 66 79 63 99 100 82 59 64 97
74 79 80 100 100 100 100 100 46 7 32 37 70 30 31 12 10 96 100 100 94 99 100 92 100 81 100 100 62 11 100 49 97 100 99 88 41 87 100 100 100 100 98 100
47 7 80 100 100 100 82 94 91 43 13 39 12 5 12 37 18 100 90 90 73 97 100 100 100 100 100 100 100 100 84 96 59 88 97 74 99 100 100 100 100 100 100 100
99 74 100 100 100 100 70 59 50 40 83 9 5 10 6 36 84 35 49 90 100 100 100 100 100 100 100 96 78 96 92 100 100 100 100 100 100 100 100 100 100 100 100 100
100 100 100 100 86 90 64 5 43 7 27 5 5 5 5 58 100 67 57 60 99 100 100 100 91 77 78 84 84 75 100 95 100 99 100 100 100 100 100 100 100 100 100 100
100 95 98 100 100 94 62 91 8 27 78 84 23 4 65 89 100 80 86 94 100 100 100 100 100 100 100 96 100 100 100 100 100 100 100 100 100 100 100 100 100 100 100 100
88 85 44 54 51 70 88 10 58 85 69 99 5 1 0 100 100 100 100 100 100 100 100 100 79 91 100 89 100 100 100 100 100 100 100 100 100 100 100 100 100 100 100 100
96 97 27 5 63 86 67 43 67 75 97 66 55 1 0 2 12 100 100 100 100 95 82 42 49 56 87 77 100 100 100 100 100 100 100 100 100 100 100 100 100 100 100 100
74 73 15 7 14 74 62 18 45 100 92 99 100 4 0 5 3 98 100 100 100 100 32 5 15 48 100 100 100 100 100 100 100 100 100 100 100 100 100 100 100 100 100 100
100 84 30 89 63 23 68 84 97 100 100 67 100 11 5 6 61 100 100 100 100 100 18 5 42 100 100 100 100 100 100 100 100 100 100 100 100 100 100 100 100 100 100 100
100 100 72 29 92 100 100 95 86 100 76 59 10 92 21 93 100 100 100 100 100 97 55 11 97 100 100 100 100 100 100 89 99 100 100 100 100 100 100 100 90 100 100 100
100 100 89 6 21 55 98 5 43 90 54 99 48 94 97 100 100 100 100 100 100 82 89 91 100 100 100 100 100 96 98 96 95 98 95 100 95 100 93 100 100 97 89 100
100 99 100 94 94 76 72 5 5 5 98 88 100 13 100 100 100 100 100 100 100 100 69 99 100 100 100 100 100 87 84 92 100 100 96 92 100 100 95 100 100 100 72 94
100 100 100 96 100 100 100 12 5 5 72 100 96 100 6 55 86 70 100 100 100 100 100 100 100 100 100 99 100 80 25 68 79 100 99 100 100 100 100 100 100 98 90 99
100 100 100 100 100 97 12 5 23 55 100 100 75 6 27 66 44 100 100 99 100 100 100 100 100 100 92 90 96 97 20 29 55 95 100 99 100 100 100 100 100 100 91 92
100 100 100 100 100 100 14 27 100 100 92 83 66 19 78 98 100 99 100 100 100 100 100 100 100 96 100 100 78 66 83 79 100 100 100 100 100 100 100 100 100 92 81 100
100 100 100 100 100 98 82 71 98 97 64 74 5 47 94 100 100 97 100 85 94 99 100 100 100 97 100 96 59 71 79 95 100 100 100 100 100 100 100 100 100 100 74 82
100 100 100 100 100 100 99 11 5 4 0 5 5 18 96 85 80 76 100 100 98 100 100 100 100 98 61 54 55 69 99 100 100 100 100 100 100 100 100 100 100 97 100 100
100 100 90 100 100 97 100 54 5 2 13 5 8 20 42 69 100 100 100 100 100 100 100 100 86 87 82 70 100 100 100 100 100 100 100 100 100 100 100 100 100 100 100 100
98 100 100 100 100 100 34 4 5 5 5 30 95 66 22 100 100 100 100 100 100 100 90 82 89 85 83 98 100 100 100 100 100 100 100 100 100 100 100 100 100 100 100 100
95 7 91 100 97 64 5 5 7 7 5 100 96 100 80 100 100 100 100 100 97 81 99 82 85 87 99 92 63 100 100 100 100 100 100 100 100 100 100 100 100 100 100 100
97 99 38 5 28 28 5 29 68 12 38 99 100 100 100 100 100 100 100 100 91 92 92 85 92 97 99 53 94 99 98 100 100 100 100 100 100 100 100 100 100 100 100 100
67 58 34 98 9 77 46 22 51 98 100 100 100 100 100 100 100 100 95 94 86 100 94 98 99 99 98 54 83 79 100 100 100 100 100 100 100 100 100 100 100 100 100 100

GFSCGP_prec_cloud_126.txt.gz
Cloud_Cover
100 100 100 100 53 61 23 66 5 5 5 5 5 5 5 8 25 37 22 5 5 12 98 100 100 100 100 100 100 100 100 100 100 93 81 100 100 100 61 1 0 0 7 36
100 100 100 100 91 86 36 7 10 22 5 13 5 80 91 95 66 6 5 5 38 67 100 100 100 100 100 100 100 100 95 67 99 100 99 91 100 100 93 34 2 16 34 49
100 85 100 100 96 29 6 7 5 5 5 6 5 6 28 28 6 5 20 18 41 7 14 25 10 25 49 64 46 12 5 5 39 55 95 99 81 67 99 100 50 26 67 100
100 100 100 23 94 80 5 5 5 5 11 5 6 6 10 22 90 99 100 98 44 47 22 50 22 40 64 10 31 18 5 62 5 18 28 76 8 67 19 50 27 39 73 79
91 100 100 100 100 41 38 5 5 5 5 5 57 12 98 18 100 87 89 23 59 91 88 86 100 100 100 74 56 64 80 68 55 82 74 55 64 60 99 20 6 54 26 79
98 100 100 100 100 100 100 34 8 5 5 5 5 5 26 35 10 11 5 6 63 100 100 100 99 98 99 99 91 74 91 78 91 82 83 95 91 90 62 96 48 88 100 99
100 100 100 100 100 100 100 100 98 5 15 2 5 5 5 45 5 5 5 6 69 99 100 89 94 98 100 99 96 84 76 72 83 97 94 99 100 96 99 80 100 100 100 98
100 100 100 100 100 100 100 100 100 22 5 6 5 5 5 18 5 5 5 15 97 100 86 96 90 88 86 66 82 90 73 80 83 100 100 100 100 100 100 100 100 100 100 100
100 100 100 100 100 100 100 100 100 100 8 35 5 3 5 5 24 10 6 80 100 100 100 100 91 89 88 70 100 100 98 100 100 100 100 100 100 100 100 100 100 100 100 100
100 100 100 100 100 100 100 100 100 90 52 98 12 18 26 8 55 48 42 99 100 100 99 84 45 38 96 100 100 100 100 100 100 100 100 100 100 100 100 100 100 100 100 100
100 100 100 100 100 100 100 100 94 50 71 100 82 17 29 5 2 11 14 99 100 99 98 76 14 16 66 97 100 100 100 100 100 100 100 100 100 100 100 100 100 100 100 100
100 100 100 97 100 100 100 100 93 54 36 55 15 3 2 5 5 4 5 98 90 99 70 42 5 22 53 100 100 100 100 100 100 100 100 100 100 100 100 100 100 100 100 100
100 100 100 100 68 92 79 85 86 100 100 17 100 52 17 5 0 5 11 100 100 100 100 48 15 28 92 100 100 100 100 100 96 92 89 100 100 98 99 100 100 100 100 100
100 100 98 99 100 100 80 77 100 100 100 60 66 100 52 61 3 9 47 100 100 100 100 70 57 73 100 100 100 100 99 89 56 7 14 100 100 100 100 100 100 100 100 100
100 100 100 60 80 100 100 100 100 100 93 100 10 100 17 100 18 10 58 98 100 100 100 92 72 92 100 100 100 100 93 66 61 52 6 85 100 100 100 100 100 100 100 87
100 99 100 100 100 100 100 99 78 79 75 100 100 2 95 69 6 48 85 84 100 100 100 100 100 100 100 100 100 100 88 44 5 5 5 5 87 100 100 100 100 100 100 84
100 100 100 100 100 100 94 16 30 5 55 72 18 5 18 16 54 51 92 72 88 85 99 96 99 100 100 100 100 100 79 27 5 44 25 7 97 99 100 100 100 100 99 78
100 100 100 100 100 100 26 14 10 22 97 13 14 59 97 100 75 90 100 98 100 100 94 95 100 100 100 100 100 100 55 11 69 63 71 74 98 100 100 100 100 100 100 100
100 100 100 100 100 41 96 25 85 100 48 84 99 100 93 98 84 81 100 100 100 100 100 100 100 100 100 100 100 100 67 99 99 84 89 99 100 100 100 100 100 100 100 100
100 100 100 100 100 100 79 100 100 100 8 100 99 99 100 89 65 19 100 97 100 100 100 100 100 100 100 100 100 97 97 84 100 100 100 100 100 100 100 100 100 100 100 100
100 100 100 100 100 96 64 80 100 100 29 9 27 76 34 66 38 32 100 100 95 100 100 100 100 100 100 100 95 86 86 97 87 100 100 100 100 100 100 100 100 100 100 97
100 100 100 100 100 98 100 100 89 81 77 54 38 10 32 99 100 100 100 100 100 100 100 100 100 100 100 91 68 81 98 99 94 100 100 100 100 100 100 100 100 100 100 100
88 89 81 100 100 100 100 100 100 100 100 85 16 67 98 100 100 100 100 100 100 100 100 100 100 96 91 78 42 98 96 100 100 100 100 100 100 100 100 100 100 100 100 100
20 36 5 8 97 38 100 100 100 100 94 5 18 51 91 100 100 100 100 100 100 100 100 100 98 97 97 50 13 94 52 100 100 100 100 100 100 100 100 100 100 100 100 100
70 98 77 26 94 100 100 100 87 81 6 5 40 56 94 100 100 100 100 100 100 100 100 99 97 100 82 57 7 90 100 100 100 100 100 100 100 100 100 100 100 100 100 100
100 100 83 97 57 24 7 5 11 19 5 12 58 83 100 100 100 100 100 100 100 100 98 96 100 84 11 16 96 100 100 100 86 90 100 100 100 100 100 100 100 100 100 100

GFSCGP_prec_cloud_129.txt.gz
Cloud_Cover
34 100 100 100 100 100 100 100 100 100 100 30 94 9 19 9 76 5 5 5 4 1 5 5 2 5 5 5 5 60 100 100 100 100 100 100 100 100 100 100 100 100 73 40
90 84 92 95 100 100 100 100 100 72 24 96 60 46 56 14 32 5 5 5 5 5 4 5 5 23 48 32 54 47 82 87 90 100 98 95 91 76 14 94 100 100 42 40
98 73 87 81 33 45 77 58 76 97 39 97 15 26 7 19 45 5 5 5 11 6 8 5 25 73 90 77 72 71 59 65 49 22 5 5 12 5 22 12 34 100 99 48
28 81 95 88 5 5 5 5 82 25 90 100 85 100 88 5 51 94 41 100 7 5 5 5 32 52 45 63 60 52 53 35 21 32 17 11 5 5 32 14 5 32 32 83
98 96 26 25 98 10 22 10 9 99 100 100 100 18 100 100 33 90 100 6 5 5 5 16 52 41 54 65 67 63 66 79 86 47 57 20 27 30 24 44 59 55 46 26
100 100 100 54 10 100 68 92 100 95 100 15 89 6 100 29 99 69 82 5 11 5 18 33 29 20 63 48 44 36 31 39 69 73 93 85 98 86 78 79 68 96 99 95
100 87 100 100 100 89 87 99 86 100 99 89 20 10 100 99 100 96 11 5 5 9 62 40 58 64 40 20 14 4 17 34 81 94 100 100 100 100 93 93 100 100 100 100
100 100 100 100 100 100 90 100 100 100 100 93 92 99 100 100 99 11 25 14 4 65 75 84 55 37 12 4 21 41 33 45 84 100 100 100 100 100 100 100 100 100 100 100
100 100 100 100 100 100 100 100 100 100 100 100 100 100 100 100 86 31 98 4 16 89 97 77 43 9 1 1 54 93 76 68 100 100 100 100 100 100 100 100 100 100 100 100
100 100 100 100 100 100 100 100 100 100 100 100 100 100 100 100 100 23 5 5 70 100 99 47 47 4 0 10 45 96 100 100 100 100 100 100 100 100 100 100 100 100 100 100
100 100 100 100 100 100 100 100 100 100 88 100 100 100 100 100 98 8 3 5 40 100 84 75 59 4 5 18 66 98 100 100 100 100 100 100 100 100 97 100 100 100 100 100
100 100 100 100 100 100 100 100 100 100 100 49 60 41 83 8 42 18 2 5 26 99 100 86 46 5 5 13 47 96 100 100 100 100 100 100 100 100 100 100 100 100 100 100
100 100 100 100 100 100 100 100 100 100 100 21 100 34 61 28 75 56 56 5 47 72 100 60 33 11 5 13 44 90 100 100 99 100 98 79 39 23 20 100 100 100 100 100
100 100 100 100 100 100 100 100 100 100 99 56 70 96 100 93 76 97 100 7 3 96 66 49 61 24 34 81 79 100 100 100 92 60 63 26 5 5 5 98 100 100 100 100
100 100 100 100 100 100 100 100 100 95 97 100 54 100 99 100 100 100 98 24 45 75 71 67 77 29 100 100 100 96 100 97 94 81 79 9 5 5 5 74 100 100 100 100
100 100 100 100 100 100 100 100 100 100 100 100 100 91 100 100 100 100 68 37 48 82 86 100 70 53 53 80 74 98 98 46 40 5 5 5 5 5 5 68 100 100 100 100
100 100 100 100 100 100 99 100 100 100 100 100 100 100 100 100 100 87 99 17 99 100 100 99 83 99 96 86 100 100 77 23 5 5 5 5 12 6 59 89 100 100 100 100
100 100 100 100 100 100 100 100 100 100 100 100 100 100 100 100 100 84 50 77 62 100 100 89 100 100 100 100 100 100 93 76 5 5 5 7 25 65 83 100 100 100 100 100
100 100 100 100 100 99 97 100 100 100 57 90 100 77 91 78 11 91 99 32 73 100 96 92 100 100 100 100 99 100 100 84 23 5 20 98 100 99 99 100 100 100 100 100
100 100 100 100 100 100 75 100 100 100 52 100 98 28 5 5 7 35 100 96 94 99 87 100 100 100 100 100 100 100 100 100 84 54 14 54 74 99 100 100 100 100 100 100
100 100 100 100 100 100 100 100 94 96 36 60 81 65 13 96 85 51 100 100 88 93 100 100 100 100 100 100 100 100 100 100 56 35 53 96 98 100 100 100 100 100 100 100
100 100 100 100 100 100 100 100 81 56 66 99 100 100 41 78 100 100 100 100 86 100 100 100 100 100 100 100 100 100 83 57 88 83 75 100 100 100 100 100 100 100 100 100
100 100 100 100 100 100 100 100 86 82 63 93 100 99 100 100 100 100 100 100 87 100 100 100 100 100 100 100 100 70 50 77 68 89 81 100 100 100 100 100 100 100 100 100
100 100 100 100 91 100 100 100 100 100 100 100 100 98 100 100 100 100 100 100 100 100 100 100 100 100 100 92 80 73 85 83 64 53 100 100 100 100 100 100 100 100 100 100
100 99 65 97 68 65 22 52 63 100 30 17 100 100 100 100 100 100 100 100 100 100 100 100 100 100 95 92 91 98 98 80 96 100 100 100 100 100 100 100 100 100 100 100
96 63 60 57 54 99 94 84 99 100 100 100 100 99 97 100 100 100 100 100 100 100 100 100 100 100 100 98 86 94 77 100 100 100 99 93 99 100 100 90 83 100 100 100